<?xml version="1.0"?>
<gpx xmlns="http://www.topografix.com/GPX/1/1" xmlns:xsi="http://www.w3.org/2001/XMLSchema-instance" xmlns:wptx1="http://www.garmin.com/xmlschemas/WaypointExtension/v1" xmlns:gpxtrx="http://www.garmin.com/xmlschemas/GpxExtensions/v3" xmlns:gpxtpx="http://www.garmin.com/xmlschemas/TrackPointExtension/v1" xmlns:gpxx="http://www.garmin.com/xmlschemas/GpxExtensions/v3" xmlns:trp="http://www.garmin.com/xmlschemas/TripExtensions/v1" xmlns:adv="http://www.garmin.com/xmlschemas/AdventuresExtensions/v1" xmlns:prs="http://www.garmin.com/xmlschemas/PressureExtension/v1" xmlns:tmd="http://www.garmin.com/xmlschemas/TripMetaDataExtensions/v1" xmlns:vptm="http://www.garmin.com/xmlschemas/ViaPointTransportationModeExtensions/v1" xmlns:ctx="http://www.garmin.com/xmlschemas/CreationTimeExtension/v1" xmlns:gpxacc="http://www.garmin.com/xmlschemas/AccelerationExtension/v1" xmlns:gpxpx="http://www.garmin.com/xmlschemas/PowerExtension/v1" xmlns:vidx1="http://www.garmin.com/xmlschemas/VideoExtension/v1" creator="Garmin Desktop App" version="1.1" xsi:schemaLocation="http://www.topografix.com/GPX/1/1 http://www.topografix.com/GPX/1/1/gpx.xsd http://www.garmin.com/xmlschemas/WaypointExtension/v1 http://www8.garmin.com/xmlschemas/WaypointExtensionv1.xsd http://www.garmin.com/xmlschemas/TrackPointExtension/v1 http://www.garmin.com/xmlschemas/TrackPointExtensionv1.xsd http://www.garmin.com/xmlschemas/GpxExtensions/v3 http://www8.garmin.com/xmlschemas/GpxExtensionsv3.xsd http://www.garmin.com/xmlschemas/ActivityExtension/v1 http://www8.garmin.com/xmlschemas/ActivityExtensionv1.xsd http://www.garmin.com/xmlschemas/AdventuresExtensions/v1 http://www8.garmin.com/xmlschemas/AdventuresExtensionv1.xsd http://www.garmin.com/xmlschemas/PressureExtension/v1 http://www.garmin.com/xmlschemas/PressureExtensionv1.xsd http://www.garmin.com/xmlschemas/TripExtensions/v1 http://www.garmin.com/xmlschemas/TripExtensionsv1.xsd http://www.garmin.com/xmlschemas/TripMetaDataExtensions/v1 http://www.garmin.com/xmlschemas/TripMetaDataExtensionsv1.xsd http://www.garmin.com/xmlschemas/ViaPointTransportationModeExtensions/v1 http://www.garmin.com/xmlschemas/ViaPointTransportationModeExtensionsv1.xsd http://www.garmin.com/xmlschemas/CreationTimeExtension/v1 http://www.garmin.com/xmlschemas/CreationTimeExtensionsv1.xsd http://www.garmin.com/xmlschemas/AccelerationExtension/v1 http://www.garmin.com/xmlschemas/AccelerationExtensionv1.xsd http://www.garmin.com/xmlschemas/PowerExtension/v1 http://www.garmin.com/xmlschemas/PowerExtensionv1.xsd http://www.garmin.com/xmlschemas/VideoExtension/v1 http://www.garmin.com/xmlschemas/VideoExtensionv1.xsd">

  <metadata>
    <link href="http://www.garmin.com">
      <text>Garmin International</text>
    </link>
    <time>2015-02-06T21:36:16Z</time>
    <bounds maxlat="47.521131634712219" maxlon="11.158759463578463" minlat="47.499837409704924" minlon="11.107347887009382"/>
  </metadata>

  <trk>
    <name>Wank 2015.02.06</name>
    <extensions>
      <gpxx:TrackExtension>
        <gpxx:DisplayColor>Cyan</gpxx:DisplayColor>
      </gpxx:TrackExtension>
      <gpxtrkx:TrackStatsExtension xmlns:gpxtrkx="http://www.garmin.com/xmlschemas/TrackStatsExtension/v1">
        <gpxtrkx:Distance>13548</gpxtrkx:Distance>
        <gpxtrkx:TotalElapsedTime>26764</gpxtrkx:TotalElapsedTime>
        <gpxtrkx:MovingTime>10913</gpxtrkx:MovingTime>
        <gpxtrkx:StoppedTime>3825</gpxtrkx:StoppedTime>
        <gpxtrkx:MovingSpeed>1</gpxtrkx:MovingSpeed>
        <gpxtrkx:MaxSpeed>12</gpxtrkx:MaxSpeed>
        <gpxtrkx:MaxElevation>1786</gpxtrkx:MaxElevation>
        <gpxtrkx:MinElevation>714</gpxtrkx:MinElevation>
        <gpxtrkx:Ascent>1121</gpxtrkx:Ascent>
        <gpxtrkx:Descent>1142</gpxtrkx:Descent>
        <gpxtrkx:AvgAscentRate>0</gpxtrkx:AvgAscentRate>
        <gpxtrkx:MaxAscentRate>0</gpxtrkx:MaxAscentRate>
        <gpxtrkx:AvgDescentRate>0</gpxtrkx:AvgDescentRate>
        <gpxtrkx:MaxDescentRate>-2</gpxtrkx:MaxDescentRate>
      </gpxtrkx:TrackStatsExtension>
    </extensions>
    <trkseg>
      <trkpt lat="47.504017716273665" lon="11.10741812735796">
        <ele>738.419999999999959</ele>
        <time>2015-02-06T13:03:46Z</time>
      </trkpt>
      <trkpt lat="47.504020230844617" lon="11.107421312481165">
        <ele>736.350000000000023</ele>
        <time>2015-02-06T13:03:51Z</time>
      </trkpt>
      <trkpt lat="47.504014363512397" lon="11.107404632493854">
        <ele>736.080000000000041</ele>
        <time>2015-02-06T13:04:16Z</time>
      </trkpt>
      <trkpt lat="47.504038000479341" lon="11.107419803738594">
        <ele>735.990000000000009</ele>
        <time>2015-02-06T13:04:42Z</time>
      </trkpt>
      <trkpt lat="47.504032803699374" lon="11.107408739626408">
        <ele>735.769999999999982</ele>
        <time>2015-02-06T13:05:10Z</time>
      </trkpt>
      <trkpt lat="47.504032468423247" lon="11.10740102827549">
        <ele>735.870000000000005</ele>
        <time>2015-02-06T13:05:32Z</time>
      </trkpt>
      <trkpt lat="47.5040228292346" lon="11.107422402128577">
        <ele>735.899999999999977</ele>
        <time>2015-02-06T13:05:58Z</time>
      </trkpt>
      <trkpt lat="47.504013273864985" lon="11.107428856194019">
        <ele>724.470000000000027</ele>
        <time>2015-02-06T13:06:26Z</time>
      </trkpt>
      <trkpt lat="47.504011346027255" lon="11.107434052973986">
        <ele>744.330000000000041</ele>
        <time>2015-02-06T13:06:27Z</time>
      </trkpt>
      <trkpt lat="47.504010004922748" lon="11.107438914477825">
        <ele>734.169999999999959</ele>
        <time>2015-02-06T13:06:28Z</time>
      </trkpt>
      <trkpt lat="47.50401645898819" lon="11.107437573373318">
        <ele>737.960000000000036</ele>
        <time>2015-02-06T13:06:30Z</time>
      </trkpt>
      <trkpt lat="47.504023835062981" lon="11.107386192306876">
        <ele>735.690000000000055</ele>
        <time>2015-02-06T13:06:52Z</time>
      </trkpt>
      <trkpt lat="47.504006735980511" lon="11.107421899214387">
        <ele>732.470000000000027</ele>
        <time>2015-02-06T13:07:02Z</time>
      </trkpt>
      <trkpt lat="47.504006735980511" lon="11.107421899214387">
        <ele>735.039999999999964</ele>
        <time>2015-02-06T13:07:03Z</time>
      </trkpt>
      <trkpt lat="47.504005478695035" lon="11.107425671070814">
        <ele>738.080000000000041</ele>
        <time>2015-02-06T13:07:05Z</time>
      </trkpt>
      <trkpt lat="47.504011932760477" lon="11.107422234490514">
        <ele>736.720000000000027</ele>
        <time>2015-02-06T13:07:06Z</time>
      </trkpt>
      <trkpt lat="47.503954768180847" lon="11.107347887009382">
        <ele>735.759999999999991</ele>
        <time>2015-02-06T13:07:25Z</time>
      </trkpt>
      <trkpt lat="47.503828704357147" lon="11.107381246984005">
        <ele>736.389999999999986</ele>
        <time>2015-02-06T13:07:43Z</time>
      </trkpt>
      <trkpt lat="47.503759805113077" lon="11.107423575595021">
        <ele>739.480000000000018</ele>
        <time>2015-02-06T13:08:01Z</time>
      </trkpt>
      <trkpt lat="47.50375309959054" lon="11.107542514801025">
        <ele>742.240000000000009</ele>
        <time>2015-02-06T13:08:19Z</time>
      </trkpt>
      <trkpt lat="47.503758128732443" lon="11.10765022225678">
        <ele>745.720000000000027</ele>
        <time>2015-02-06T13:08:40Z</time>
      </trkpt>
      <trkpt lat="47.503757122904062" lon="11.107666566967964">
        <ele>746.350000000000023</ele>
        <time>2015-02-06T13:09:03Z</time>
      </trkpt>
      <trkpt lat="47.50373306684196" lon="11.107685007154942">
        <ele>747.129999999999995</ele>
        <time>2015-02-06T13:09:24Z</time>
      </trkpt>
      <trkpt lat="47.50372476875782" lon="11.107752900570631">
        <ele>749.759999999999991</ele>
        <time>2015-02-06T13:09:43Z</time>
      </trkpt>
      <trkpt lat="47.503750920295715" lon="11.107921209186316">
        <ele>752.850000000000023</ele>
        <time>2015-02-06T13:10:00Z</time>
      </trkpt>
      <trkpt lat="47.503744633868337" lon="11.108034029603004">
        <ele>755.960000000000036</ele>
        <time>2015-02-06T13:10:15Z</time>
      </trkpt>
      <trkpt lat="47.503744633868337" lon="11.108111562207341">
        <ele>758.330000000000041</ele>
        <time>2015-02-06T13:10:33Z</time>
      </trkpt>
      <trkpt lat="47.503783861175179" lon="11.108199823647738">
        <ele>761.370000000000005</ele>
        <time>2015-02-06T13:10:49Z</time>
      </trkpt>
      <trkpt lat="47.503773970529437" lon="11.108407527208328">
        <ele>764.049999999999955</ele>
        <time>2015-02-06T13:11:09Z</time>
      </trkpt>
      <trkpt lat="47.503721583634615" lon="11.108565861359239">
        <ele>763.309999999999945</ele>
        <time>2015-02-06T13:11:28Z</time>
      </trkpt>
      <trkpt lat="47.503706328570843" lon="11.108781108632684">
        <ele>766.980000000000018</ele>
        <time>2015-02-06T13:11:51Z</time>
      </trkpt>
      <trkpt lat="47.503679422661662" lon="11.108916644006968">
        <ele>770.25</ele>
        <time>2015-02-06T13:12:07Z</time>
      </trkpt>
      <trkpt lat="47.503662323579192" lon="11.108988393098116">
        <ele>772.610000000000014</ele>
        <time>2015-02-06T13:12:28Z</time>
      </trkpt>
      <trkpt lat="47.503681518137455" lon="11.109142620116472">
        <ele>775.67999999999995</ele>
        <time>2015-02-06T13:12:42Z</time>
      </trkpt>
      <trkpt lat="47.503646900877357" lon="11.109317885711789">
        <ele>778.879999999999995</ele>
        <time>2015-02-06T13:12:58Z</time>
      </trkpt>
      <trkpt lat="47.503607925027609" lon="11.109502036124468">
        <ele>782.139999999999986</ele>
        <time>2015-02-06T13:13:15Z</time>
      </trkpt>
      <trkpt lat="47.503604488447309" lon="11.109512262046337">
        <ele>782.309999999999945</ele>
        <time>2015-02-06T13:13:16Z</time>
      </trkpt>
      <trkpt lat="47.503562076017261" lon="11.109629608690739">
        <ele>785.67999999999995</ele>
        <time>2015-02-06T13:13:30Z</time>
      </trkpt>
      <trkpt lat="47.50346970744431" lon="11.109758270904422">
        <ele>788.769999999999982</ele>
        <time>2015-02-06T13:13:47Z</time>
      </trkpt>
      <trkpt lat="47.503482447937131" lon="11.109879808500409">
        <ele>791.980000000000018</ele>
        <time>2015-02-06T13:14:06Z</time>
      </trkpt>
      <trkpt lat="47.503504240885377" lon="11.110018193721771">
        <ele>792.519999999999982</ele>
        <time>2015-02-06T13:14:28Z</time>
      </trkpt>
      <trkpt lat="47.503493763506413" lon="11.110186418518424">
        <ele>794.289999999999964</ele>
        <time>2015-02-06T13:14:52Z</time>
      </trkpt>
      <trkpt lat="47.503501558676362" lon="11.110273841768503">
        <ele>793.779999999999973</ele>
        <time>2015-02-06T13:14:58Z</time>
      </trkpt>
      <trkpt lat="47.50349460169673" lon="11.110343160107732">
        <ele>794.269999999999982</ele>
        <time>2015-02-06T13:15:02Z</time>
      </trkpt>
      <trkpt lat="47.503463253378868" lon="11.110480204224586">
        <ele>794.299999999999955</ele>
        <time>2015-02-06T13:15:09Z</time>
      </trkpt>
      <trkpt lat="47.503455709666014" lon="11.110573494806886">
        <ele>793.940000000000055</ele>
        <time>2015-02-06T13:15:14Z</time>
      </trkpt>
      <trkpt lat="47.503456799313426" lon="11.110618002712727">
        <ele>793.990000000000009</ele>
        <time>2015-02-06T13:15:17Z</time>
      </trkpt>
      <trkpt lat="47.503463672474027" lon="11.110875243321061">
        <ele>796.799999999999955</ele>
        <time>2015-02-06T13:15:35Z</time>
      </trkpt>
      <trkpt lat="47.50346090644598" lon="11.111048916354775">
        <ele>799.889999999999986</ele>
        <time>2015-02-06T13:15:49Z</time>
      </trkpt>
      <trkpt lat="47.503431737422943" lon="11.111270030960441">
        <ele>803.340000000000032</ele>
        <time>2015-02-06T13:16:04Z</time>
      </trkpt>
      <trkpt lat="47.503439029678702" lon="11.111444961279631">
        <ele>806.42999999999995</ele>
        <time>2015-02-06T13:16:20Z</time>
      </trkpt>
      <trkpt lat="47.503435425460339" lon="11.111637242138386">
        <ele>809.789999999999964</ele>
        <time>2015-02-06T13:16:36Z</time>
      </trkpt>
      <trkpt lat="47.503396281972528" lon="11.111820638179779">
        <ele>812.879999999999995</ele>
        <time>2015-02-06T13:16:52Z</time>
      </trkpt>
      <trkpt lat="47.503381026908755" lon="11.111988024786115">
        <ele>816.009999999999991</ele>
        <time>2015-02-06T13:17:08Z</time>
      </trkpt>
      <trkpt lat="47.503350265324116" lon="11.112163458019495">
        <ele>819.220000000000027</ele>
        <time>2015-02-06T13:17:23Z</time>
      </trkpt>
      <trkpt lat="47.503345655277371" lon="11.112309638410807">
        <ele>822.42999999999995</ele>
        <time>2015-02-06T13:17:38Z</time>
      </trkpt>
      <trkpt lat="47.503306092694402" lon="11.112428493797779">
        <ele>825.440000000000055</ele>
        <time>2015-02-06T13:17:48Z</time>
      </trkpt>
      <trkpt lat="47.503256974741817" lon="11.112685902044177">
        <ele>828.440000000000055</ele>
        <time>2015-02-06T13:18:08Z</time>
      </trkpt>
      <trkpt lat="47.503241300582886" lon="11.112707862630486">
        <ele>828.129999999999995</ele>
        <time>2015-02-06T13:18:19Z</time>
      </trkpt>
      <trkpt lat="47.503135437145829" lon="11.112840045243502">
        <ele>829.769999999999982</ele>
        <time>2015-02-06T13:18:33Z</time>
      </trkpt>
      <trkpt lat="47.503034938126802" lon="11.112911207601428">
        <ele>832.490000000000009</ele>
        <time>2015-02-06T13:18:49Z</time>
      </trkpt>
      <trkpt lat="47.502954890951514" lon="11.112956972792745">
        <ele>835.830000000000041</ele>
        <time>2015-02-06T13:19:04Z</time>
      </trkpt>
      <trkpt lat="47.502988167107105" lon="11.113038193434477">
        <ele>839.059999999999945</ele>
        <time>2015-02-06T13:19:19Z</time>
      </trkpt>
      <trkpt lat="47.50300157815218" lon="11.113164173439145">
        <ele>842.059999999999945</ele>
        <time>2015-02-06T13:19:33Z</time>
      </trkpt>
      <trkpt lat="47.502910383045673" lon="11.113334828987718">
        <ele>844.919999999999959</ele>
        <time>2015-02-06T13:19:50Z</time>
      </trkpt>
      <trkpt lat="47.502822792157531" lon="11.113491654396057">
        <ele>848.32000000000005</ele>
        <time>2015-02-06T13:20:07Z</time>
      </trkpt>
      <trkpt lat="47.50276755541563" lon="11.113590141758323">
        <ele>851.730000000000018</ele>
        <time>2015-02-06T13:20:24Z</time>
      </trkpt>
      <trkpt lat="47.502766801044345" lon="11.113598272204399">
        <ele>851.980000000000018</ele>
        <time>2015-02-06T13:20:25Z</time>
      </trkpt>
      <trkpt lat="47.502730675041676" lon="11.113667590543628">
        <ele>854.610000000000014</ele>
        <time>2015-02-06T13:20:46Z</time>
      </trkpt>
      <trkpt lat="47.502701841294765" lon="11.113639008253813">
        <ele>854.919999999999959</ele>
        <time>2015-02-06T13:21:10Z</time>
      </trkpt>
      <trkpt lat="47.502623721957207" lon="11.11359391361475">
        <ele>856.889999999999986</ele>
        <time>2015-02-06T13:21:27Z</time>
      </trkpt>
      <trkpt lat="47.502625398337841" lon="11.113610342144966">
        <ele>842.580000000000041</ele>
        <time>2015-02-06T13:21:42Z</time>
      </trkpt>
      <trkpt lat="47.502624057233334" lon="11.113617466762662">
        <ele>867.850000000000023</ele>
        <time>2015-02-06T13:21:43Z</time>
      </trkpt>
      <trkpt lat="47.50262439250946" lon="11.11362031660974">
        <ele>860.82000000000005</ele>
        <time>2015-02-06T13:21:44Z</time>
      </trkpt>
      <trkpt lat="47.502620704472065" lon="11.11362224444747">
        <ele>857.490000000000009</ele>
        <time>2015-02-06T13:21:45Z</time>
      </trkpt>
      <trkpt lat="47.502479217946529" lon="11.113609587773681">
        <ele>861.039999999999964</ele>
        <time>2015-02-06T13:22:03Z</time>
      </trkpt>
      <trkpt lat="47.502313172444701" lon="11.113668261095881">
        <ele>864.32000000000005</ele>
        <time>2015-02-06T13:22:24Z</time>
      </trkpt>
      <trkpt lat="47.502280147746205" lon="11.113687455654144">
        <ele>864.580000000000041</ele>
        <time>2015-02-06T13:22:46Z</time>
      </trkpt>
      <trkpt lat="47.502256678417325" lon="11.113695753738284">
        <ele>865.440000000000055</ele>
        <time>2015-02-06T13:23:05Z</time>
      </trkpt>
      <trkpt lat="47.502150144428015" lon="11.113775130361319">
        <ele>867.559999999999945</ele>
        <time>2015-02-06T13:23:17Z</time>
      </trkpt>
      <trkpt lat="47.502009244635701" lon="11.113818632438779">
        <ele>870.210000000000036</ele>
        <time>2015-02-06T13:23:31Z</time>
      </trkpt>
      <trkpt lat="47.501901872456074" lon="11.113852830603719">
        <ele>873.389999999999986</ele>
        <time>2015-02-06T13:23:42Z</time>
      </trkpt>
      <trkpt lat="47.501703053712845" lon="11.11399901099503">
        <ele>875.5</ele>
        <time>2015-02-06T13:24:03Z</time>
      </trkpt>
      <trkpt lat="47.501610517501831" lon="11.11407620832324">
        <ele>878.509999999999991</ele>
        <time>2015-02-06T13:24:16Z</time>
      </trkpt>
      <trkpt lat="47.501508593559265" lon="11.114167906343937">
        <ele>882.230000000000018</ele>
        <time>2015-02-06T13:24:29Z</time>
      </trkpt>
      <trkpt lat="47.501350678503513" lon="11.114402515813708">
        <ele>885.490000000000009</ele>
        <time>2015-02-06T13:24:53Z</time>
      </trkpt>
      <trkpt lat="47.501257890835404" lon="11.114576021209359">
        <ele>888.600000000000023</ele>
        <time>2015-02-06T13:25:09Z</time>
      </trkpt>
      <trkpt lat="47.501133503392339" lon="11.114680459722877">
        <ele>891.990000000000009</ele>
        <time>2015-02-06T13:25:23Z</time>
      </trkpt>
      <trkpt lat="47.501032501459122" lon="11.114756735041738">
        <ele>894.669999999999959</ele>
        <time>2015-02-06T13:25:35Z</time>
      </trkpt>
      <trkpt lat="47.500939797610044" lon="11.114839799702168">
        <ele>897.789999999999964</ele>
        <time>2015-02-06T13:25:49Z</time>
      </trkpt>
      <trkpt lat="47.500815410166979" lon="11.114886738359928">
        <ele>899.629999999999995</ele>
        <time>2015-02-06T13:26:03Z</time>
      </trkpt>
      <trkpt lat="47.500787498429418" lon="11.114892940968275">
        <ele>899.870000000000005</ele>
        <time>2015-02-06T13:26:05Z</time>
      </trkpt>
      <trkpt lat="47.500573759898543" lon="11.115033589303493">
        <ele>902.360000000000014</ele>
        <time>2015-02-06T13:26:26Z</time>
      </trkpt>
      <trkpt lat="47.500555235892534" lon="11.115052532404661">
        <ele>902.700000000000045</ele>
        <time>2015-02-06T13:26:28Z</time>
      </trkpt>
      <trkpt lat="47.500373683869839" lon="11.115160491317511">
        <ele>906.080000000000041</ele>
        <time>2015-02-06T13:26:45Z</time>
      </trkpt>
      <trkpt lat="47.50017779879272" lon="11.115297870710492">
        <ele>907.909999999999968</ele>
        <time>2015-02-06T13:27:04Z</time>
      </trkpt>
      <trkpt lat="47.500005215406418" lon="11.115364842116833">
        <ele>911.5</ele>
        <time>2015-02-06T13:27:22Z</time>
      </trkpt>
      <trkpt lat="47.499847887083888" lon="11.115436339750886">
        <ele>913.269999999999982</ele>
        <time>2015-02-06T13:27:39Z</time>
      </trkpt>
      <trkpt lat="47.499837409704924" lon="11.115563744679093">
        <ele>915.620000000000005</ele>
        <time>2015-02-06T13:27:51Z</time>
      </trkpt>
      <trkpt lat="47.499854089692235" lon="11.115610264241695">
        <ele>916.220000000000027</ele>
        <time>2015-02-06T13:27:55Z</time>
      </trkpt>
      <trkpt lat="47.499940255656838" lon="11.11570137552917">
        <ele>919.519999999999982</ele>
        <time>2015-02-06T13:28:09Z</time>
      </trkpt>
      <trkpt lat="47.500038910657167" lon="11.115720067173243">
        <ele>922.590000000000032</ele>
        <time>2015-02-06T13:28:22Z</time>
      </trkpt>
      <trkpt lat="47.500089118257165" lon="11.115731634199619">
        <ele>923.299999999999955</ele>
        <time>2015-02-06T13:28:27Z</time>
      </trkpt>
      <trkpt lat="47.500220546498895" lon="11.115759462118149">
        <ele>926.309999999999945</ele>
        <time>2015-02-06T13:28:41Z</time>
      </trkpt>
      <trkpt lat="47.500327583402395" lon="11.115791061893106">
        <ele>929.32000000000005</ele>
        <time>2015-02-06T13:28:56Z</time>
      </trkpt>
      <trkpt lat="47.50032196752727" lon="11.115974122658372">
        <ele>931.870000000000005</ele>
        <time>2015-02-06T13:29:13Z</time>
      </trkpt>
      <trkpt lat="47.500243848189712" lon="11.116072693839669">
        <ele>935.019999999999982</ele>
        <time>2015-02-06T13:29:26Z</time>
      </trkpt>
      <trkpt lat="47.500180313363671" lon="11.116171181201935">
        <ele>938.32000000000005</ele>
        <time>2015-02-06T13:29:38Z</time>
      </trkpt>
      <trkpt lat="47.500126753002405" lon="11.116243517026305">
        <ele>940.509999999999991</ele>
        <time>2015-02-06T13:29:57Z</time>
      </trkpt>
      <trkpt lat="47.500141756609082" lon="11.116222897544503">
        <ele>941.049999999999955</ele>
        <time>2015-02-06T13:30:20Z</time>
      </trkpt>
      <trkpt lat="47.500079395249486" lon="11.116338903084397">
        <ele>943.769999999999982</ele>
        <time>2015-02-06T13:30:43Z</time>
      </trkpt>
      <trkpt lat="47.50006690621376" lon="11.116365306079388">
        <ele>943.370000000000005</ele>
        <time>2015-02-06T13:31:03Z</time>
      </trkpt>
      <trkpt lat="47.500018207356334" lon="11.116456082090735">
        <ele>946.409999999999968</ele>
        <time>2015-02-06T13:31:17Z</time>
      </trkpt>
      <trkpt lat="47.499998342245817" lon="11.116527328267694">
        <ele>949.450000000000045</ele>
        <time>2015-02-06T13:31:25Z</time>
      </trkpt>
      <trkpt lat="47.499987948685884" lon="11.116641322150826">
        <ele>952.899999999999977</ele>
        <time>2015-02-06T13:31:38Z</time>
      </trkpt>
      <trkpt lat="47.499937992542982" lon="11.116751208901405">
        <ele>956.289999999999964</ele>
        <time>2015-02-06T13:31:54Z</time>
      </trkpt>
      <trkpt lat="47.499910751357675" lon="11.116838045418262">
        <ele>959.409999999999968</ele>
        <time>2015-02-06T13:32:05Z</time>
      </trkpt>
      <trkpt lat="47.499883426353335" lon="11.116906693205237">
        <ele>961.490000000000009</ele>
        <time>2015-02-06T13:32:28Z</time>
      </trkpt>
      <trkpt lat="47.499888958409429" lon="11.116942735388875">
        <ele>962.529999999999973</ele>
        <time>2015-02-06T13:32:50Z</time>
      </trkpt>
      <trkpt lat="47.499929862096906" lon="11.117044659331441">
        <ele>965.730000000000018</ele>
        <time>2015-02-06T13:33:02Z</time>
      </trkpt>
      <trkpt lat="47.499939501285553" lon="11.117069218307734">
        <ele>967.110000000000014</ele>
        <time>2015-02-06T13:33:14Z</time>
      </trkpt>
      <trkpt lat="47.500007143244147" lon="11.117147840559483">
        <ele>969.649999999999977</ele>
        <time>2015-02-06T13:33:35Z</time>
      </trkpt>
      <trkpt lat="47.500022565945983" lon="11.117163682356477">
        <ele>971.740000000000009</ele>
        <time>2015-02-06T13:33:40Z</time>
      </trkpt>
      <trkpt lat="47.500038156285882" lon="11.117187570780516">
        <ele>971.299999999999955</ele>
        <time>2015-02-06T13:33:48Z</time>
      </trkpt>
      <trkpt lat="47.500068582594395" lon="11.11727574840188">
        <ele>972.490000000000009</ele>
        <time>2015-02-06T13:34:10Z</time>
      </trkpt>
      <trkpt lat="47.500120466575027" lon="11.117295110598207">
        <ele>975.419999999999959</ele>
        <time>2015-02-06T13:34:30Z</time>
      </trkpt>
      <trkpt lat="47.500203447416425" lon="11.117401141673326">
        <ele>978.529999999999973</ele>
        <time>2015-02-06T13:34:49Z</time>
      </trkpt>
      <trkpt lat="47.500230772420764" lon="11.117368703708053">
        <ele>981.529999999999973</ele>
        <time>2015-02-06T13:35:12Z</time>
      </trkpt>
      <trkpt lat="47.500296989455819" lon="11.117373565211892">
        <ele>984.149999999999977</ele>
        <time>2015-02-06T13:35:34Z</time>
      </trkpt>
      <trkpt lat="47.500336971133947" lon="11.117317909374833">
        <ele>986.299999999999955</ele>
        <time>2015-02-06T13:35:57Z</time>
      </trkpt>
      <trkpt lat="47.500391453504562" lon="11.117307767271996">
        <ele>987.519999999999982</ele>
        <time>2015-02-06T13:36:19Z</time>
      </trkpt>
      <trkpt lat="47.500441996380687" lon="11.117300894111395">
        <ele>989.350000000000023</ele>
        <time>2015-02-06T13:36:38Z</time>
      </trkpt>
      <trkpt lat="47.500474601984024" lon="11.117335679009557">
        <ele>990.389999999999986</ele>
        <time>2015-02-06T13:36:59Z</time>
      </trkpt>
      <trkpt lat="47.500479044392705" lon="11.11733291298151">
        <ele>990.549999999999955</ele>
        <time>2015-02-06T13:37:22Z</time>
      </trkpt>
      <trkpt lat="47.500484408810735" lon="11.117383623495698">
        <ele>992.789999999999964</ele>
        <time>2015-02-06T13:37:33Z</time>
      </trkpt>
      <trkpt lat="47.500501424074173" lon="11.11749853938818">
        <ele>994.120000000000005</ele>
        <time>2015-02-06T13:37:54Z</time>
      </trkpt>
      <trkpt lat="47.500478457659483" lon="11.117636589333415">
        <ele>997.289999999999964</ele>
        <time>2015-02-06T13:38:16Z</time>
      </trkpt>
      <trkpt lat="47.500435207039118" lon="11.117838090285659">
        <ele>1000.019999999999982</ele>
        <time>2015-02-06T13:38:36Z</time>
      </trkpt>
      <trkpt lat="47.500420957803726" lon="11.117891650646925">
        <ele>1000.740000000000009</ele>
        <time>2015-02-06T13:38:56Z</time>
      </trkpt>
      <trkpt lat="47.500423975288868" lon="11.117925848811865">
        <ele>1001.289999999999964</ele>
        <time>2015-02-06T13:39:16Z</time>
      </trkpt>
      <trkpt lat="47.50049052760005" lon="11.117900451645255">
        <ele>1004.769999999999982</ele>
        <time>2015-02-06T13:39:32Z</time>
      </trkpt>
      <trkpt lat="47.50056428834796" lon="11.117877066135406">
        <ele>1006.649999999999977</ele>
        <time>2015-02-06T13:39:43Z</time>
      </trkpt>
      <trkpt lat="47.500619105994701" lon="11.117932219058275">
        <ele>1008.309999999999945</ele>
        <time>2015-02-06T13:40:04Z</time>
      </trkpt>
      <trkpt lat="47.500609382987022" lon="11.117960130795836">
        <ele>1008.159999999999968</ele>
        <time>2015-02-06T13:40:34Z</time>
      </trkpt>
      <trkpt lat="47.500669732689857" lon="11.118017043918371">
        <ele>1011.409999999999968</ele>
        <time>2015-02-06T13:40:48Z</time>
      </trkpt>
      <trkpt lat="47.500724215060472" lon="11.118061970919371">
        <ele>1014.409999999999968</ele>
        <time>2015-02-06T13:40:58Z</time>
      </trkpt>
      <trkpt lat="47.500830665230751" lon="11.118106059730053">
        <ele>1016.450000000000045</ele>
        <time>2015-02-06T13:41:14Z</time>
      </trkpt>
      <trkpt lat="47.500856062397361" lon="11.118128104135394">
        <ele>1017.379999999999995</ele>
        <time>2015-02-06T13:41:17Z</time>
      </trkpt>
      <trkpt lat="47.500972989946604" lon="11.118336226791143">
        <ele>1018.779999999999973</ele>
        <time>2015-02-06T13:41:34Z</time>
      </trkpt>
      <trkpt lat="47.501075668260455" lon="11.11849338747561">
        <ele>1021.690000000000055</ele>
        <time>2015-02-06T13:41:53Z</time>
      </trkpt>
      <trkpt lat="47.501146579161286" lon="11.118604699149728">
        <ele>1023.879999999999995</ele>
        <time>2015-02-06T13:42:12Z</time>
      </trkpt>
      <trkpt lat="47.501213299110532" lon="11.118628503754735">
        <ele>1026.940000000000055</ele>
        <time>2015-02-06T13:42:23Z</time>
      </trkpt>
      <trkpt lat="47.501216568052769" lon="11.118675358593464">
        <ele>1027.569999999999936</ele>
        <time>2015-02-06T13:42:29Z</time>
      </trkpt>
      <trkpt lat="47.501182956621051" lon="11.118800165131688">
        <ele>1028.950000000000045</ele>
        <time>2015-02-06T13:42:45Z</time>
      </trkpt>
      <trkpt lat="47.501179603859782" lon="11.118968725204468">
        <ele>1032.289999999999964</ele>
        <time>2015-02-06T13:43:03Z</time>
      </trkpt>
      <trkpt lat="47.50120148062706" lon="11.119031505659223">
        <ele>1033.599999999999909</ele>
        <time>2015-02-06T13:43:22Z</time>
      </trkpt>
      <trkpt lat="47.501217909157276" lon="11.119134770706296">
        <ele>1033.809999999999945</ele>
        <time>2015-02-06T13:43:39Z</time>
      </trkpt>
      <trkpt lat="47.501268535852432" lon="11.119220852851868">
        <ele>1036.839999999999918</ele>
        <time>2015-02-06T13:43:50Z</time>
      </trkpt>
      <trkpt lat="47.501334585249424" lon="11.119327135384083">
        <ele>1040.799999999999955</ele>
        <time>2015-02-06T13:44:04Z</time>
      </trkpt>
      <trkpt lat="47.501367190852761" lon="11.119427550584078">
        <ele>1042.549999999999955</ele>
        <time>2015-02-06T13:44:26Z</time>
      </trkpt>
      <trkpt lat="47.501415722072124" lon="11.119499383494258">
        <ele>1045.710000000000036</ele>
        <time>2015-02-06T13:44:49Z</time>
      </trkpt>
      <trkpt lat="47.50148537568748" lon="11.119497371837497">
        <ele>1048.990000000000009</ele>
        <time>2015-02-06T13:45:02Z</time>
      </trkpt>
      <trkpt lat="47.50149660743773" lon="11.119521930813789">
        <ele>1049.670000000000073</ele>
        <time>2015-02-06T13:45:08Z</time>
      </trkpt>
      <trkpt lat="47.501554023474455" lon="11.119526289403439">
        <ele>1051.319999999999936</ele>
        <time>2015-02-06T13:45:25Z</time>
      </trkpt>
      <trkpt lat="47.501626778393984" lon="11.119534838944674">
        <ele>1054.559999999999945</ele>
        <time>2015-02-06T13:45:36Z</time>
      </trkpt>
      <trkpt lat="47.501775892451406" lon="11.119605163112283">
        <ele>1056.980000000000018</ele>
        <time>2015-02-06T13:45:56Z</time>
      </trkpt>
      <trkpt lat="47.501912182196975" lon="11.119790654629469">
        <ele>1060.170000000000073</ele>
        <time>2015-02-06T13:46:16Z</time>
      </trkpt>
      <trkpt lat="47.502047549933195" lon="11.119919316843152">
        <ele>1062.289999999999964</ele>
        <time>2015-02-06T13:46:37Z</time>
      </trkpt>
      <trkpt lat="47.502260785549879" lon="11.120001208037138">
        <ele>1065.190000000000055</ele>
        <time>2015-02-06T13:46:58Z</time>
      </trkpt>
      <trkpt lat="47.502404367551208" lon="11.120164906606078">
        <ele>1068.369999999999891</ele>
        <time>2015-02-06T13:47:14Z</time>
      </trkpt>
      <trkpt lat="47.502483241260052" lon="11.120240930467844">
        <ele>1071.3900000000001</ele>
        <time>2015-02-06T13:47:24Z</time>
      </trkpt>
      <trkpt lat="47.502552727237344" lon="11.120322402566671">
        <ele>1071.3599999999999</ele>
        <time>2015-02-06T13:47:47Z</time>
      </trkpt>
      <trkpt lat="47.502585332840681" lon="11.1203658208251">
        <ele>1071.799999999999955</ele>
        <time>2015-02-06T13:47:51Z</time>
      </trkpt>
      <trkpt lat="47.5025999173522" lon="11.120381494984031">
        <ele>1071.970000000000027</ele>
        <time>2015-02-06T13:47:53Z</time>
      </trkpt>
      <trkpt lat="47.502748109400272" lon="11.120495656505227">
        <ele>1072.470000000000027</ele>
        <time>2015-02-06T13:48:10Z</time>
      </trkpt>
      <trkpt lat="47.502802927047014" lon="11.120551228523254">
        <ele>1072.869999999999891</ele>
        <time>2015-02-06T13:48:17Z</time>
      </trkpt>
      <trkpt lat="47.502912227064371" lon="11.120660528540611">
        <ele>1073.069999999999936</ele>
        <time>2015-02-06T13:48:30Z</time>
      </trkpt>
      <trkpt lat="47.503104340285063" lon="11.120875691995025">
        <ele>1075.829999999999927</ele>
        <time>2015-02-06T13:48:51Z</time>
      </trkpt>
      <trkpt lat="47.50322001054883" lon="11.121116252616048">
        <ele>1078.25</ele>
        <time>2015-02-06T13:49:12Z</time>
      </trkpt>
      <trkpt lat="47.503247922286391" lon="11.121316580101848">
        <ele>1081.299999999999955</ele>
        <time>2015-02-06T13:49:26Z</time>
      </trkpt>
      <trkpt lat="47.503259154036641" lon="11.121408110484481">
        <ele>1081.25</ele>
        <time>2015-02-06T13:49:45Z</time>
      </trkpt>
      <trkpt lat="47.503239791840315" lon="11.121450522914529">
        <ele>1081.5</ele>
        <time>2015-02-06T13:50:05Z</time>
      </trkpt>
      <trkpt lat="47.503242054954171" lon="11.121463598683476">
        <ele>1080.950000000000045</ele>
        <time>2015-02-06T13:50:22Z</time>
      </trkpt>
      <trkpt lat="47.503238786011934" lon="11.121431663632393">
        <ele>1081.990000000000009</ele>
        <time>2015-02-06T13:50:41Z</time>
      </trkpt>
      <trkpt lat="47.503242138773203" lon="11.121398387476802">
        <ele>1081.660000000000082</ele>
        <time>2015-02-06T13:50:58Z</time>
      </trkpt>
      <trkpt lat="47.503218334168196" lon="11.121411379426718">
        <ele>1081.410000000000082</ele>
        <time>2015-02-06T13:51:19Z</time>
      </trkpt>
      <trkpt lat="47.503210203722119" lon="11.121425628662109">
        <ele>1081.450000000000045</ele>
        <time>2015-02-06T13:51:39Z</time>
      </trkpt>
      <trkpt lat="47.503239708021283" lon="11.121431915089488">
        <ele>1081.380000000000109</ele>
        <time>2015-02-06T13:52:00Z</time>
      </trkpt>
      <trkpt lat="47.503163767978549" lon="11.121525792405009">
        <ele>1084.569999999999936</ele>
        <time>2015-02-06T13:52:18Z</time>
      </trkpt>
      <trkpt lat="47.503100400790572" lon="11.121559739112854">
        <ele>1087.700000000000045</ele>
        <time>2015-02-06T13:52:29Z</time>
      </trkpt>
      <trkpt lat="47.503035692498088" lon="11.121641043573618">
        <ele>1091.059999999999945</ele>
        <time>2015-02-06T13:52:42Z</time>
      </trkpt>
      <trkpt lat="47.502980288118124" lon="11.121796863153577">
        <ele>1094.309999999999945</ele>
        <time>2015-02-06T13:52:58Z</time>
      </trkpt>
      <trkpt lat="47.502933600917459" lon="11.121907085180283">
        <ele>1097.559999999999945</ele>
        <time>2015-02-06T13:53:11Z</time>
      </trkpt>
      <trkpt lat="47.502816002815962" lon="11.121909683570266">
        <ele>1100.440000000000055</ele>
        <time>2015-02-06T13:53:29Z</time>
      </trkpt>
      <trkpt lat="47.502714330330491" lon="11.12192896194756">
        <ele>1103.170000000000073</ele>
        <time>2015-02-06T13:53:42Z</time>
      </trkpt>
      <trkpt lat="47.502582399174571" lon="11.121899709105492">
        <ele>1106.160000000000082</ele>
        <time>2015-02-06T13:53:56Z</time>
      </trkpt>
      <trkpt lat="47.502541746944189" lon="11.121915634721518">
        <ele>1106.410000000000082</ele>
        <time>2015-02-06T13:54:01Z</time>
      </trkpt>
      <trkpt lat="47.502509141340852" lon="11.122087379917502">
        <ele>1109.220000000000027</ele>
        <time>2015-02-06T13:54:14Z</time>
      </trkpt>
      <trkpt lat="47.502623638138175" lon="11.122204642742872">
        <ele>1111.650000000000091</ele>
        <time>2015-02-06T13:54:30Z</time>
      </trkpt>
      <trkpt lat="47.502694968134165" lon="11.122311679646373">
        <ele>1114.269999999999982</ele>
        <time>2015-02-06T13:54:42Z</time>
      </trkpt>
      <trkpt lat="47.502724723890424" lon="11.12247814424336">
        <ele>1117.880000000000109</ele>
        <time>2015-02-06T13:54:57Z</time>
      </trkpt>
      <trkpt lat="47.502754479646683" lon="11.12271417863667">
        <ele>1120.880000000000109</ele>
        <time>2015-02-06T13:55:15Z</time>
      </trkpt>
      <trkpt lat="47.50273528508842" lon="11.122824819758534">
        <ele>1123.5</ele>
        <time>2015-02-06T13:55:32Z</time>
      </trkpt>
      <trkpt lat="47.502730088308454" lon="11.122820042073727">
        <ele>1122.170000000000073</ele>
        <time>2015-02-06T13:55:50Z</time>
      </trkpt>
      <trkpt lat="47.502729501575232" lon="11.122820964083076">
        <ele>1123.519999999999982</ele>
        <time>2015-02-06T13:56:08Z</time>
      </trkpt>
      <trkpt lat="47.502733189612627" lon="11.122848372906446">
        <ele>1122.779999999999973</ele>
        <time>2015-02-06T13:56:30Z</time>
      </trkpt>
      <trkpt lat="47.502731094136834" lon="11.122860945761204">
        <ele>1123.529999999999973</ele>
        <time>2015-02-06T13:56:51Z</time>
      </trkpt>
      <trkpt lat="47.502669151872396" lon="11.122947111725807">
        <ele>1127.519999999999982</ele>
        <time>2015-02-06T13:57:04Z</time>
      </trkpt>
      <trkpt lat="47.502619531005621" lon="11.122978292405605">
        <ele>1128.470000000000027</ele>
        <time>2015-02-06T13:57:10Z</time>
      </trkpt>
      <trkpt lat="47.502490449696779" lon="11.123032858595252">
        <ele>1130.799999999999955</ele>
        <time>2015-02-06T13:57:24Z</time>
      </trkpt>
      <trkpt lat="47.502451306208968" lon="11.123035792261362">
        <ele>1131.440000000000055</ele>
        <time>2015-02-06T13:57:28Z</time>
      </trkpt>
      <trkpt lat="47.502356758341193" lon="11.12306747585535">
        <ele>1133.660000000000082</ele>
        <time>2015-02-06T13:57:37Z</time>
      </trkpt>
      <trkpt lat="47.502210242673755" lon="11.123121120035648">
        <ele>1134.240000000000009</ele>
        <time>2015-02-06T13:57:50Z</time>
      </trkpt>
      <trkpt lat="47.502162465825677" lon="11.123121455311775">
        <ele>1134.420000000000073</ele>
        <time>2015-02-06T13:57:54Z</time>
      </trkpt>
      <trkpt lat="47.502042185515165" lon="11.123248189687729">
        <ele>1136.319999999999936</ele>
        <time>2015-02-06T13:58:10Z</time>
      </trkpt>
      <trkpt lat="47.501952247694135" lon="11.12337333150208">
        <ele>1136.980000000000018</ele>
        <time>2015-02-06T13:58:26Z</time>
      </trkpt>
      <trkpt lat="47.501955600455403" lon="11.123564355075359">
        <ele>1140.279999999999973</ele>
        <time>2015-02-06T13:58:41Z</time>
      </trkpt>
      <trkpt lat="47.502030115574598" lon="11.123682875186205">
        <ele>1143.519999999999982</ele>
        <time>2015-02-06T13:58:58Z</time>
      </trkpt>
      <trkpt lat="47.502111922949553" lon="11.12378915771842">
        <ele>1146.75</ele>
        <time>2015-02-06T13:59:13Z</time>
      </trkpt>
      <trkpt lat="47.502120472490788" lon="11.123812710866332">
        <ele>1147.420000000000073</ele>
        <time>2015-02-06T13:59:15Z</time>
      </trkpt>
      <trkpt lat="47.5022217258811" lon="11.124060731381178">
        <ele>1149.700000000000045</ele>
        <time>2015-02-06T13:59:34Z</time>
      </trkpt>
      <trkpt lat="47.502327673137188" lon="11.124222418293357">
        <ele>1151.440000000000055</ele>
        <time>2015-02-06T13:59:50Z</time>
      </trkpt>
      <trkpt lat="47.502422975376248" lon="11.124375555664301">
        <ele>1154.5</ele>
        <time>2015-02-06T14:00:04Z</time>
      </trkpt>
      <trkpt lat="47.502495897933841" lon="11.124523831531405">
        <ele>1157.940000000000055</ele>
        <time>2015-02-06T14:00:18Z</time>
      </trkpt>
      <trkpt lat="47.502564294263721" lon="11.12466380931437">
        <ele>1160.950000000000045</ele>
        <time>2015-02-06T14:00:31Z</time>
      </trkpt>
      <trkpt lat="47.50257988460362" lon="11.124722650274634">
        <ele>1161.269999999999982</ele>
        <time>2015-02-06T14:00:50Z</time>
      </trkpt>
      <trkpt lat="47.502557672560215" lon="11.124744862318039">
        <ele>1160.630000000000109</ele>
        <time>2015-02-06T14:01:14Z</time>
      </trkpt>
      <trkpt lat="47.502547698095441" lon="11.124734468758106">
        <ele>1160.839999999999918</ele>
        <time>2015-02-06T14:01:35Z</time>
      </trkpt>
      <trkpt lat="47.502562953159213" lon="11.124779898673296">
        <ele>1161.3599999999999</ele>
        <time>2015-02-06T14:01:45Z</time>
      </trkpt>
      <trkpt lat="47.502573514357209" lon="11.124850893393159">
        <ele>1161.049999999999955</ele>
        <time>2015-02-06T14:01:49Z</time>
      </trkpt>
      <trkpt lat="47.502576112747192" lon="11.124914595857263">
        <ele>1161.809999999999945</ele>
        <time>2015-02-06T14:01:53Z</time>
      </trkpt>
      <trkpt lat="47.502537723630667" lon="11.125175021588802">
        <ele>1161.069999999999936</ele>
        <time>2015-02-06T14:02:08Z</time>
      </trkpt>
      <trkpt lat="47.502567982301116" lon="11.125308461487293">
        <ele>1164.420000000000073</ele>
        <time>2015-02-06T14:02:19Z</time>
      </trkpt>
      <trkpt lat="47.502581560984254" lon="11.125381048768759">
        <ele>1167.819999999999936</ele>
        <time>2015-02-06T14:02:28Z</time>
      </trkpt>
      <trkpt lat="47.502598576247692" lon="11.125438632443547">
        <ele>1168.8900000000001</ele>
        <time>2015-02-06T14:02:35Z</time>
      </trkpt>
      <trkpt lat="47.502603773027658" lon="11.125497221946716">
        <ele>1171.190000000000055</ele>
        <time>2015-02-06T14:02:41Z</time>
      </trkpt>
      <trkpt lat="47.502638222649693" lon="11.125609036535025">
        <ele>1174.220000000000027</ele>
        <time>2015-02-06T14:02:51Z</time>
      </trkpt>
      <trkpt lat="47.50274165533483" lon="11.12576125189662">
        <ele>1177.369999999999891</ele>
        <time>2015-02-06T14:03:08Z</time>
      </trkpt>
      <trkpt lat="47.502831509336829" lon="11.12584481947124">
        <ele>1180.630000000000109</ele>
        <time>2015-02-06T14:03:22Z</time>
      </trkpt>
      <trkpt lat="47.502922285348177" lon="11.125896451994777">
        <ele>1183.720000000000027</ele>
        <time>2015-02-06T14:03:34Z</time>
      </trkpt>
      <trkpt lat="47.50300157815218" lon="11.125907180830836">
        <ele>1186.380000000000109</ele>
        <time>2015-02-06T14:03:45Z</time>
      </trkpt>
      <trkpt lat="47.503069220110774" lon="11.125946994870901">
        <ele>1187.819999999999936</ele>
        <time>2015-02-06T14:03:56Z</time>
      </trkpt>
      <trkpt lat="47.503191344439983" lon="11.125991921871901">
        <ele>1190.720000000000027</ele>
        <time>2015-02-06T14:04:11Z</time>
      </trkpt>
      <trkpt lat="47.503249011933804" lon="11.126086385920644">
        <ele>1193.720000000000027</ele>
        <time>2015-02-06T14:04:21Z</time>
      </trkpt>
      <trkpt lat="47.503280527889729" lon="11.126148998737335">
        <ele>1195.700000000000045</ele>
        <time>2015-02-06T14:04:28Z</time>
      </trkpt>
      <trkpt lat="47.50330307520926" lon="11.126179760321975">
        <ele>1195.960000000000036</ele>
        <time>2015-02-06T14:04:51Z</time>
      </trkpt>
      <trkpt lat="47.503277929499745" lon="11.126150507479906">
        <ele>1192.700000000000045</ele>
        <time>2015-02-06T14:05:02Z</time>
      </trkpt>
      <trkpt lat="47.503282288089395" lon="11.126154698431492">
        <ele>1195.900000000000091</ele>
        <time>2015-02-06T14:05:05Z</time>
      </trkpt>
      <trkpt lat="47.503308355808258" lon="11.126193506643176">
        <ele>1197.069999999999936</ele>
        <time>2015-02-06T14:05:28Z</time>
      </trkpt>
      <trkpt lat="47.50333241187036" lon="11.126191914081573">
        <ele>1199.079999999999927</ele>
        <time>2015-02-06T14:05:52Z</time>
      </trkpt>
      <trkpt lat="47.503399550914764" lon="11.126200295984745">
        <ele>1202.329999999999927</ele>
        <time>2015-02-06T14:06:06Z</time>
      </trkpt>
      <trkpt lat="47.50349854119122" lon="11.126241534948349">
        <ele>1205.630000000000109</ele>
        <time>2015-02-06T14:06:20Z</time>
      </trkpt>
      <trkpt lat="47.503558387979865" lon="11.126368772238493">
        <ele>1209.119999999999891</ele>
        <time>2015-02-06T14:06:32Z</time>
      </trkpt>
      <trkpt lat="47.503677494823933" lon="11.126431552693248">
        <ele>1212.700000000000045</ele>
        <time>2015-02-06T14:06:49Z</time>
      </trkpt>
      <trkpt lat="47.503773467615247" lon="11.126468433067203">
        <ele>1215.460000000000036</ele>
        <time>2015-02-06T14:07:10Z</time>
      </trkpt>
      <trkpt lat="47.503889221698046" lon="11.126487627625465">
        <ele>1218.559999999999945</ele>
        <time>2015-02-06T14:07:25Z</time>
      </trkpt>
      <trkpt lat="47.503992486745119" lon="11.12647614441812">
        <ele>1221.619999999999891</ele>
        <time>2015-02-06T14:07:39Z</time>
      </trkpt>
      <trkpt lat="47.504029786214232" lon="11.126557532697916">
        <ele>1224.6400000000001</ele>
        <time>2015-02-06T14:07:51Z</time>
      </trkpt>
      <trkpt lat="47.504065912216902" lon="11.126681417226791">
        <ele>1227.779999999999973</ele>
        <time>2015-02-06T14:08:06Z</time>
      </trkpt>
      <trkpt lat="47.504084939137101" lon="11.126777390018106">
        <ele>1231</ele>
        <time>2015-02-06T14:08:19Z</time>
      </trkpt>
      <trkpt lat="47.504029367119074" lon="11.126866908743978">
        <ele>1234.509999999999991</ele>
        <time>2015-02-06T14:08:32Z</time>
      </trkpt>
      <trkpt lat="47.504023248329759" lon="11.126956678926945">
        <ele>1237.549999999999955</ele>
        <time>2015-02-06T14:08:51Z</time>
      </trkpt>
      <trkpt lat="47.503999108448625" lon="11.126992804929614">
        <ele>1238.440000000000055</ele>
        <time>2015-02-06T14:08:56Z</time>
      </trkpt>
      <trkpt lat="47.50394563190639" lon="11.127055082470179">
        <ele>1239.619999999999891</ele>
        <time>2015-02-06T14:09:17Z</time>
      </trkpt>
      <trkpt lat="47.503914618864655" lon="11.127117108553648">
        <ele>1242.319999999999936</ele>
        <time>2015-02-06T14:09:24Z</time>
      </trkpt>
      <trkpt lat="47.503844881430268" lon="11.127249374985695">
        <ele>1245.579999999999927</ele>
        <time>2015-02-06T14:09:40Z</time>
      </trkpt>
      <trkpt lat="47.503805821761489" lon="11.127340821549296">
        <ele>1248.059999999999945</ele>
        <time>2015-02-06T14:09:50Z</time>
      </trkpt>
      <trkpt lat="47.503780676051974" lon="11.127422964200377">
        <ele>1249.660000000000082</ele>
        <time>2015-02-06T14:10:10Z</time>
      </trkpt>
      <trkpt lat="47.503773383796215" lon="11.127546681091189">
        <ele>1252.990000000000009</ele>
        <time>2015-02-06T14:10:27Z</time>
      </trkpt>
      <trkpt lat="47.503760559484363" lon="11.127641480416059">
        <ele>1256.049999999999955</ele>
        <time>2015-02-06T14:10:40Z</time>
      </trkpt>
      <trkpt lat="47.50371060334146" lon="11.127757150679827">
        <ele>1259.079999999999927</ele>
        <time>2015-02-06T14:11:02Z</time>
      </trkpt>
      <trkpt lat="47.503625527024269" lon="11.127987820655107">
        <ele>1262.240000000000009</ele>
        <time>2015-02-06T14:11:23Z</time>
      </trkpt>
      <trkpt lat="47.503605494275689" lon="11.128059402108192">
        <ele>1264.029999999999973</ele>
        <time>2015-02-06T14:11:40Z</time>
      </trkpt>
      <trkpt lat="47.503647906705737" lon="11.128055630251765">
        <ele>1265.930000000000064</ele>
        <time>2015-02-06T14:12:07Z</time>
      </trkpt>
      <trkpt lat="47.503675315529108" lon="11.127997124567628">
        <ele>1265.819999999999936</ele>
        <time>2015-02-06T14:12:38Z</time>
      </trkpt>
      <trkpt lat="47.503691324964166" lon="11.127973822876811">
        <ele>1265.980000000000018</ele>
        <time>2015-02-06T14:13:04Z</time>
      </trkpt>
      <trkpt lat="47.503670370206237" lon="11.127987820655107">
        <ele>1265.789999999999964</ele>
        <time>2015-02-06T14:13:31Z</time>
      </trkpt>
      <trkpt lat="47.503670621663332" lon="11.128092342987657">
        <ele>1268.849999999999909</ele>
        <time>2015-02-06T14:13:58Z</time>
      </trkpt>
      <trkpt lat="47.503663748502731" lon="11.128066023811698">
        <ele>1268.670000000000073</ele>
        <time>2015-02-06T14:14:22Z</time>
      </trkpt>
      <trkpt lat="47.503666263073683" lon="11.128098294138908">
        <ele>1269.329999999999927</ele>
        <time>2015-02-06T14:14:46Z</time>
      </trkpt>
      <trkpt lat="47.503666514530778" lon="11.128165936097503">
        <ele>1270.410000000000082</ele>
        <time>2015-02-06T14:15:10Z</time>
      </trkpt>
      <trkpt lat="47.503665089607239" lon="11.128189153969288">
        <ele>1272.660000000000082</ele>
        <time>2015-02-06T14:15:33Z</time>
      </trkpt>
      <trkpt lat="47.503665927797556" lon="11.128199296072125">
        <ele>1272.809999999999945</ele>
        <time>2015-02-06T14:15:57Z</time>
      </trkpt>
      <trkpt lat="47.503649834543467" lon="11.128248665481806">
        <ele>1272.8900000000001</ele>
        <time>2015-02-06T14:16:19Z</time>
      </trkpt>
      <trkpt lat="47.503580767661333" lon="11.128285964950919">
        <ele>1271.670000000000073</ele>
        <time>2015-02-06T14:16:42Z</time>
      </trkpt>
      <trkpt lat="47.503541624173522" lon="11.128298286348581">
        <ele>1271.920000000000073</ele>
        <time>2015-02-06T14:17:08Z</time>
      </trkpt>
      <trkpt lat="47.503517484292388" lon="11.128453016281128">
        <ele>1274.009999999999991</ele>
        <time>2015-02-06T14:17:30Z</time>
      </trkpt>
      <trkpt lat="47.503526536747813" lon="11.12857916392386">
        <ele>1277.349999999999909</ele>
        <time>2015-02-06T14:17:48Z</time>
      </trkpt>
      <trkpt lat="47.503568697720766" lon="11.128617050126195">
        <ele>1280.400000000000091</ele>
        <time>2015-02-06T14:18:10Z</time>
      </trkpt>
      <trkpt lat="47.503661904484034" lon="11.128623755648732">
        <ele>1283.579999999999927</ele>
        <time>2015-02-06T14:18:23Z</time>
      </trkpt>
      <trkpt lat="47.503702389076352" lon="11.128622330725193">
        <ele>1285.180000000000064</ele>
        <time>2015-02-06T14:18:29Z</time>
      </trkpt>
      <trkpt lat="47.503800876438618" lon="11.128570279106498">
        <ele>1286.930000000000064</ele>
        <time>2015-02-06T14:18:49Z</time>
      </trkpt>
      <trkpt lat="47.503908080980182" lon="11.128600370138884">
        <ele>1290.160000000000082</ele>
        <time>2015-02-06T14:19:06Z</time>
      </trkpt>
      <trkpt lat="47.503993576392531" lon="11.12860020250082">
        <ele>1293.440000000000055</ele>
        <time>2015-02-06T14:19:18Z</time>
      </trkpt>
      <trkpt lat="47.504069013521075" lon="11.128587629646063">
        <ele>1296.769999999999982</ele>
        <time>2015-02-06T14:19:32Z</time>
      </trkpt>
      <trkpt lat="47.504040682688355" lon="11.128616882488132">
        <ele>1293.549999999999955</ele>
        <time>2015-02-06T14:19:51Z</time>
      </trkpt>
      <trkpt lat="47.504037329927087" lon="11.128617469221354">
        <ele>1293.559999999999945</ele>
        <time>2015-02-06T14:19:52Z</time>
      </trkpt>
      <trkpt lat="47.504034815356135" lon="11.128625432029366">
        <ele>1295.480000000000018</ele>
        <time>2015-02-06T14:20:15Z</time>
      </trkpt>
      <trkpt lat="47.504051746800542" lon="11.128629455342889">
        <ele>1296.789999999999964</ele>
        <time>2015-02-06T14:20:36Z</time>
      </trkpt>
      <trkpt lat="47.504109414294362" lon="11.128655187785625">
        <ele>1300.019999999999982</ele>
        <time>2015-02-06T14:20:51Z</time>
      </trkpt>
      <trkpt lat="47.504113102331758" lon="11.128657199442387">
        <ele>1300.130000000000109</ele>
        <time>2015-02-06T14:20:52Z</time>
      </trkpt>
      <trkpt lat="47.504189210012555" lon="11.128699611872435">
        <ele>1303.210000000000036</ele>
        <time>2015-02-06T14:21:13Z</time>
      </trkpt>
      <trkpt lat="47.504246039316058" lon="11.128794075921178">
        <ele>1307.339999999999918</ele>
        <time>2015-02-06T14:21:30Z</time>
      </trkpt>
      <trkpt lat="47.504289206117392" lon="11.128858868032694">
        <ele>1309.259999999999991</ele>
        <time>2015-02-06T14:21:52Z</time>
      </trkpt>
      <trkpt lat="47.504342850297689" lon="11.128856102004647">
        <ele>1312.559999999999945</ele>
        <time>2015-02-06T14:22:10Z</time>
      </trkpt>
      <trkpt lat="47.504425747320056" lon="11.128867669031024">
        <ele>1315.930000000000064</ele>
        <time>2015-02-06T14:22:23Z</time>
      </trkpt>
      <trkpt lat="47.504497747868299" lon="11.128876218572259">
        <ele>1319.039999999999964</ele>
        <time>2015-02-06T14:22:35Z</time>
      </trkpt>
      <trkpt lat="47.504556924104691" lon="11.128910332918167">
        <ele>1322.599999999999909</ele>
        <time>2015-02-06T14:22:49Z</time>
      </trkpt>
      <trkpt lat="47.504577627405524" lon="11.128893652930856">
        <ele>1323.269999999999982</ele>
        <time>2015-02-06T14:22:54Z</time>
      </trkpt>
      <trkpt lat="47.504624649882317" lon="11.128991721197963">
        <ele>1325.630000000000109</ele>
        <time>2015-02-06T14:23:14Z</time>
      </trkpt>
      <trkpt lat="47.50461702235043" lon="11.128979399800301">
        <ele>1322.1400000000001</ele>
        <time>2015-02-06T14:23:27Z</time>
      </trkpt>
      <trkpt lat="47.504619872197509" lon="11.128995660692453">
        <ele>1321.910000000000082</ele>
        <time>2015-02-06T14:23:32Z</time>
      </trkpt>
      <trkpt lat="47.504595816135406" lon="11.128992475569248">
        <ele>1323.210000000000036</ele>
        <time>2015-02-06T14:24:01Z</time>
      </trkpt>
      <trkpt lat="47.50460964627564" lon="11.128985099494457">
        <ele>1323.710000000000036</ele>
        <time>2015-02-06T14:24:33Z</time>
      </trkpt>
      <trkpt lat="47.504603443667293" lon="11.128980740904808">
        <ele>1323.150000000000091</ele>
        <time>2015-02-06T14:24:57Z</time>
      </trkpt>
      <trkpt lat="47.504617106169462" lon="11.128973364830017">
        <ele>1323.269999999999982</ele>
        <time>2015-02-06T14:25:20Z</time>
      </trkpt>
      <trkpt lat="47.50461551360786" lon="11.128975879400969">
        <ele>1323.049999999999955</ele>
        <time>2015-02-06T14:25:49Z</time>
      </trkpt>
      <trkpt lat="47.504618698731065" lon="11.128970431163907">
        <ele>1324.299999999999955</ele>
        <time>2015-02-06T14:26:14Z</time>
      </trkpt>
      <trkpt lat="47.504649041220546" lon="11.128953751176596">
        <ele>1325.289999999999964</ele>
        <time>2015-02-06T14:26:35Z</time>
      </trkpt>
      <trkpt lat="47.504655914381146" lon="11.12896372564137">
        <ele>1325.170000000000073</ele>
        <time>2015-02-06T14:26:46Z</time>
      </trkpt>
      <trkpt lat="47.504661194980145" lon="11.128960875794291">
        <ele>1325.650000000000091</ele>
        <time>2015-02-06T14:27:22Z</time>
      </trkpt>
      <trkpt lat="47.504663458094001" lon="11.128961043432355">
        <ele>1321.210000000000036</ele>
        <time>2015-02-06T14:27:24Z</time>
      </trkpt>
      <trkpt lat="47.504664799198508" lon="11.12896179780364">
        <ele>1326.119999999999891</ele>
        <time>2015-02-06T14:27:25Z</time>
      </trkpt>
      <trkpt lat="47.504667062312365" lon="11.128962384536862">
        <ele>1330.539999999999964</ele>
        <time>2015-02-06T14:27:27Z</time>
      </trkpt>
      <trkpt lat="47.504667062312365" lon="11.128962049260736">
        <ele>1325.039999999999964</ele>
        <time>2015-02-06T14:27:28Z</time>
      </trkpt>
      <trkpt lat="47.504685083404183" lon="11.128908824175596">
        <ele>1326.329999999999927</ele>
        <time>2015-02-06T14:27:54Z</time>
      </trkpt>
      <trkpt lat="47.504686173051596" lon="11.128894742578268">
        <ele>1326.630000000000109</ele>
        <time>2015-02-06T14:28:22Z</time>
      </trkpt>
      <trkpt lat="47.504694052040577" lon="11.128902370110154">
        <ele>1327.650000000000091</ele>
        <time>2015-02-06T14:28:46Z</time>
      </trkpt>
      <trkpt lat="47.504712995141745" lon="11.129002952948213">
        <ele>1329.099999999999909</ele>
        <time>2015-02-06T14:29:05Z</time>
      </trkpt>
      <trkpt lat="47.504735877737403" lon="11.129066655412316">
        <ele>1332.130000000000109</ele>
        <time>2015-02-06T14:29:23Z</time>
      </trkpt>
      <trkpt lat="47.504763789474964" lon="11.129137650132179">
        <ele>1333.349999999999909</ele>
        <time>2015-02-06T14:29:45Z</time>
      </trkpt>
      <trkpt lat="47.504792958498001" lon="11.129081575199962">
        <ele>1336.1099999999999</ele>
        <time>2015-02-06T14:30:07Z</time>
      </trkpt>
      <trkpt lat="47.504884991794825" lon="11.12903312779963">
        <ele>1338.579999999999927</ele>
        <time>2015-02-06T14:30:29Z</time>
      </trkpt>
      <trkpt lat="47.504963027313352" lon="11.129097081720829">
        <ele>1341.579999999999927</ele>
        <time>2015-02-06T14:30:42Z</time>
      </trkpt>
      <trkpt lat="47.504968727007508" lon="11.129105547443032">
        <ele>1341.700000000000045</ele>
        <time>2015-02-06T14:30:43Z</time>
      </trkpt>
      <trkpt lat="47.505071740597486" lon="11.12920168787241">
        <ele>1344.960000000000036</ele>
        <time>2015-02-06T14:30:59Z</time>
      </trkpt>
      <trkpt lat="47.505153212696314" lon="11.129236808046699">
        <ele>1347.759999999999991</ele>
        <time>2015-02-06T14:31:11Z</time>
      </trkpt>
      <trkpt lat="47.505217334255576" lon="11.12929162569344">
        <ele>1350.680000000000064</ele>
        <time>2015-02-06T14:31:21Z</time>
      </trkpt>
      <trkpt lat="47.505293441936374" lon="11.129322554916143">
        <ele>1352.75</ele>
        <time>2015-02-06T14:31:39Z</time>
      </trkpt>
      <trkpt lat="47.505334932357073" lon="11.129404194653034">
        <ele>1356.3599999999999</ele>
        <time>2015-02-06T14:31:50Z</time>
      </trkpt>
      <trkpt lat="47.505406094714999" lon="11.129508800804615">
        <ele>1359.460000000000036</ele>
        <time>2015-02-06T14:32:06Z</time>
      </trkpt>
      <trkpt lat="47.505458481609821" lon="11.129621285945177">
        <ele>1362.869999999999891</ele>
        <time>2015-02-06T14:32:19Z</time>
      </trkpt>
      <trkpt lat="47.505518244579434" lon="11.129676355049014">
        <ele>1365.150000000000091</ele>
        <time>2015-02-06T14:32:30Z</time>
      </trkpt>
      <trkpt lat="47.505557723343372" lon="11.129788421094418">
        <ele>1367.25</ele>
        <time>2015-02-06T14:32:52Z</time>
      </trkpt>
      <trkpt lat="47.50565436668694" lon="11.129903169348836">
        <ele>1370.690000000000055</ele>
        <time>2015-02-06T14:33:08Z</time>
      </trkpt>
      <trkpt lat="47.505750926211476" lon="11.129903756082058">
        <ele>1373.710000000000036</ele>
        <time>2015-02-06T14:33:20Z</time>
      </trkpt>
      <trkpt lat="47.50584002584219" lon="11.129853967577219">
        <ele>1376.960000000000036</ele>
        <time>2015-02-06T14:33:37Z</time>
      </trkpt>
      <trkpt lat="47.505901884287596" lon="11.129829743877053">
        <ele>1377.220000000000027</ele>
        <time>2015-02-06T14:33:59Z</time>
      </trkpt>
      <trkpt lat="47.505931975319982" lon="11.129845669493079">
        <ele>1380.710000000000036</ele>
        <time>2015-02-06T14:34:13Z</time>
      </trkpt>
      <trkpt lat="47.505969442427158" lon="11.129680210724473">
        <ele>1382.8900000000001</ele>
        <time>2015-02-06T14:34:34Z</time>
      </trkpt>
      <trkpt lat="47.50609315931797" lon="11.129540065303445">
        <ele>1385.980000000000018</ele>
        <time>2015-02-06T14:34:55Z</time>
      </trkpt>
      <trkpt lat="47.506193742156029" lon="11.12950217910111">
        <ele>1388.259999999999991</ele>
        <time>2015-02-06T14:35:17Z</time>
      </trkpt>
      <trkpt lat="47.506189802661538" lon="11.129525564610958">
        <ele>1388.220000000000027</ele>
        <time>2015-02-06T14:35:43Z</time>
      </trkpt>
      <trkpt lat="47.506184773519635" lon="11.12953688018024">
        <ele>1387.970000000000027</ele>
        <time>2015-02-06T14:35:52Z</time>
      </trkpt>
      <trkpt lat="47.506266245618463" lon="11.129636373370886">
        <ele>1391.200000000000045</ele>
        <time>2015-02-06T14:36:10Z</time>
      </trkpt>
      <trkpt lat="47.506257528439164" lon="11.1297357827425">
        <ele>1394.349999999999909</ele>
        <time>2015-02-06T14:36:26Z</time>
      </trkpt>
      <trkpt lat="47.506238501518965" lon="11.129829324781895">
        <ele>1397.569999999999936</ele>
        <time>2015-02-06T14:36:38Z</time>
      </trkpt>
      <trkpt lat="47.506251912564039" lon="11.13007441163063">
        <ele>1399.220000000000027</ele>
        <time>2015-02-06T14:36:59Z</time>
      </trkpt>
      <trkpt lat="47.506284853443503" lon="11.130197793245316">
        <ele>1402.420000000000073</ele>
        <time>2015-02-06T14:37:13Z</time>
      </trkpt>
      <trkpt lat="47.506340928375721" lon="11.130278175696731">
        <ele>1405.509999999999991</ele>
        <time>2015-02-06T14:37:27Z</time>
      </trkpt>
      <trkpt lat="47.506384765729308" lon="11.1302659381181">
        <ele>1408.950000000000045</ele>
        <time>2015-02-06T14:37:42Z</time>
      </trkpt>
      <trkpt lat="47.506482414901257" lon="11.130146076902747">
        <ele>1411.950000000000045</ele>
        <time>2015-02-06T14:38:00Z</time>
      </trkpt>
      <trkpt lat="47.506658770143986" lon="11.129991346970201">
        <ele>1414.990000000000009</ele>
        <time>2015-02-06T14:38:22Z</time>
      </trkpt>
      <trkpt lat="47.506749713793397" lon="11.129916328936815">
        <ele>1418.269999999999982</ele>
        <time>2015-02-06T14:38:37Z</time>
      </trkpt>
      <trkpt lat="47.506821462884545" lon="11.129884561523795">
        <ele>1419.8900000000001</ele>
        <time>2015-02-06T14:38:56Z</time>
      </trkpt>
      <trkpt lat="47.506860438734293" lon="11.129950108006597">
        <ele>1422.990000000000009</ele>
        <time>2015-02-06T14:39:14Z</time>
      </trkpt>
      <trkpt lat="47.506911735981703" lon="11.130015486851335">
        <ele>1426.420000000000073</ele>
        <time>2015-02-06T14:39:33Z</time>
      </trkpt>
      <trkpt lat="47.50700200907886" lon="11.130064101889729">
        <ele>1429.759999999999991</ele>
        <time>2015-02-06T14:39:49Z</time>
      </trkpt>
      <trkpt lat="47.507088175043464" lon="11.130043063312769">
        <ele>1432.789999999999964</ele>
        <time>2015-02-06T14:40:02Z</time>
      </trkpt>
      <trkpt lat="47.507182471454144" lon="11.130127552896738">
        <ele>1436.089999999999918</ele>
        <time>2015-02-06T14:40:19Z</time>
      </trkpt>
      <trkpt lat="47.507218094542623" lon="11.13024883903563">
        <ele>1439.460000000000036</ele>
        <time>2015-02-06T14:40:38Z</time>
      </trkpt>
      <trkpt lat="47.507251454517245" lon="11.130390577018261">
        <ele>1442.279999999999973</ele>
        <time>2015-02-06T14:41:02Z</time>
      </trkpt>
      <trkpt lat="47.507257573306561" lon="11.130541283637285">
        <ele>1445.440000000000055</ele>
        <time>2015-02-06T14:41:15Z</time>
      </trkpt>
      <trkpt lat="47.507339715957642" lon="11.130592916160822">
        <ele>1448.980000000000018</ele>
        <time>2015-02-06T14:41:30Z</time>
      </trkpt>
      <trkpt lat="47.507384642958641" lon="11.130604315549135">
        <ele>1450.3599999999999</ele>
        <time>2015-02-06T14:41:36Z</time>
      </trkpt>
      <trkpt lat="47.507422445341945" lon="11.130688972771168">
        <ele>1451.490000000000009</ele>
        <time>2015-02-06T14:41:54Z</time>
      </trkpt>
      <trkpt lat="47.50749746337533" lon="11.130726356059313">
        <ele>1454.529999999999973</ele>
        <time>2015-02-06T14:42:08Z</time>
      </trkpt>
      <trkpt lat="47.507517077028751" lon="11.130644464865327">
        <ele>1457.569999999999936</ele>
        <time>2015-02-06T14:42:27Z</time>
      </trkpt>
      <trkpt lat="47.507655210793018" lon="11.130631221458316">
        <ele>1460.950000000000045</ele>
        <time>2015-02-06T14:42:42Z</time>
      </trkpt>
      <trkpt lat="47.507708687335253" lon="11.130720991641283">
        <ele>1464.130000000000109</ele>
        <time>2015-02-06T14:42:58Z</time>
      </trkpt>
      <trkpt lat="47.507675159722567" lon="11.130859209224582">
        <ele>1464.970000000000027</ele>
        <time>2015-02-06T14:43:20Z</time>
      </trkpt>
      <trkpt lat="47.507691755890846" lon="11.130894748494029">
        <ele>1465.6400000000001</ele>
        <time>2015-02-06T14:43:49Z</time>
      </trkpt>
      <trkpt lat="47.507791081443429" lon="11.130995834246278">
        <ele>1469.069999999999936</ele>
        <time>2015-02-06T14:44:05Z</time>
      </trkpt>
      <trkpt lat="47.507876995950937" lon="11.131062973290682">
        <ele>1472.440000000000055</ele>
        <time>2015-02-06T14:44:19Z</time>
      </trkpt>
      <trkpt lat="47.507880767807364" lon="11.131061296910048">
        <ele>1472.599999999999909</ele>
        <time>2015-02-06T14:44:20Z</time>
      </trkpt>
      <trkpt lat="47.507924605160952" lon="11.131057692691684">
        <ele>1475.700000000000045</ele>
        <time>2015-02-06T14:44:36Z</time>
      </trkpt>
      <trkpt lat="47.508030720055103" lon="11.131007988005877">
        <ele>1479.319999999999936</ele>
        <time>2015-02-06T14:44:55Z</time>
      </trkpt>
      <trkpt lat="47.508077155798674" lon="11.131075629964471">
        <ele>1482.8900000000001</ele>
        <time>2015-02-06T14:45:05Z</time>
      </trkpt>
      <trkpt lat="47.508081933483481" lon="11.131079401820898">
        <ele>1482.819999999999936</ele>
        <time>2015-02-06T14:45:06Z</time>
      </trkpt>
      <trkpt lat="47.508092662319541" lon="11.131189372390509">
        <ele>1483.900000000000091</ele>
        <time>2015-02-06T14:45:28Z</time>
      </trkpt>
      <trkpt lat="47.508114287629724" lon="11.131214015185833">
        <ele>1485.849999999999909</ele>
        <time>2015-02-06T14:45:53Z</time>
      </trkpt>
      <trkpt lat="47.508103977888823" lon="11.131180906668305">
        <ele>1485.869999999999891</ele>
        <time>2015-02-06T14:46:14Z</time>
      </trkpt>
      <trkpt lat="47.508148653432727" lon="11.131243351846933">
        <ele>1488.220000000000027</ele>
        <time>2015-02-06T14:46:36Z</time>
      </trkpt>
      <trkpt lat="47.508155610412359" lon="11.131286099553108">
        <ele>1488.069999999999936</ele>
        <time>2015-02-06T14:47:01Z</time>
      </trkpt>
      <trkpt lat="47.508148150518537" lon="11.131276628002524">
        <ele>1487.190000000000055</ele>
        <time>2015-02-06T14:47:31Z</time>
      </trkpt>
      <trkpt lat="47.508175559341908" lon="11.131246369332075">
        <ele>1490.230000000000018</ele>
        <time>2015-02-06T14:47:51Z</time>
      </trkpt>
      <trkpt lat="47.508210511878133" lon="11.131284423172474">
        <ele>1491.710000000000036</ele>
        <time>2015-02-06T14:47:57Z</time>
      </trkpt>
      <trkpt lat="47.508261054754257" lon="11.131356088444591">
        <ele>1495.150000000000091</ele>
        <time>2015-02-06T14:48:10Z</time>
      </trkpt>
      <trkpt lat="47.508325846865773" lon="11.13135265186429">
        <ele>1498.380000000000109</ele>
        <time>2015-02-06T14:48:25Z</time>
      </trkpt>
      <trkpt lat="47.508401283994317" lon="11.131392801180482">
        <ele>1501.430000000000064</ele>
        <time>2015-02-06T14:48:39Z</time>
      </trkpt>
      <trkpt lat="47.508440762758255" lon="11.131478799507022">
        <ele>1504.450000000000045</ele>
        <time>2015-02-06T14:48:52Z</time>
      </trkpt>
      <trkpt lat="47.50844587571919" lon="11.131565887480974">
        <ele>1504.339999999999918</ele>
        <time>2015-02-06T14:49:13Z</time>
      </trkpt>
      <trkpt lat="47.508484767749906" lon="11.131587345153093">
        <ele>1507.6099999999999</ele>
        <time>2015-02-06T14:49:34Z</time>
      </trkpt>
      <trkpt lat="47.508507063612342" lon="11.131582483649254">
        <ele>1510.029999999999973</ele>
        <time>2015-02-06T14:49:52Z</time>
      </trkpt>
      <trkpt lat="47.508605802431703" lon="11.131504364311695">
        <ele>1511.519999999999982</ele>
        <time>2015-02-06T14:50:12Z</time>
      </trkpt>
      <trkpt lat="47.508660200983286" lon="11.131475698202848">
        <ele>1513.490000000000009</ele>
        <time>2015-02-06T14:50:36Z</time>
      </trkpt>
      <trkpt lat="47.50867067836225" lon="11.131518613547087">
        <ele>1516.710000000000036</ele>
        <time>2015-02-06T14:50:57Z</time>
      </trkpt>
      <trkpt lat="47.508667828515172" lon="11.131619112566113">
        <ele>1516.970000000000027</ele>
        <time>2015-02-06T14:51:16Z</time>
      </trkpt>
      <trkpt lat="47.508653411641717" lon="11.131617352366447">
        <ele>1517.339999999999918</ele>
        <time>2015-02-06T14:51:40Z</time>
      </trkpt>
      <trkpt lat="47.508654501289129" lon="11.131658842787147">
        <ele>1517.670000000000073</ele>
        <time>2015-02-06T14:52:06Z</time>
      </trkpt>
      <trkpt lat="47.50867604278028" lon="11.131693292409182">
        <ele>1519.210000000000036</ele>
        <time>2015-02-06T14:52:28Z</time>
      </trkpt>
      <trkpt lat="47.508703786879778" lon="11.131787421181798">
        <ele>1521.779999999999973</ele>
        <time>2015-02-06T14:52:49Z</time>
      </trkpt>
      <trkpt lat="47.508714934810996" lon="11.131892362609506">
        <ele>1522.309999999999945</ele>
        <time>2015-02-06T14:53:11Z</time>
      </trkpt>
      <trkpt lat="47.508751144632697" lon="11.131840813905001">
        <ele>1524.720000000000027</ele>
        <time>2015-02-06T14:53:29Z</time>
      </trkpt>
      <trkpt lat="47.508766399696469" lon="11.131732268258929">
        <ele>1526.240000000000009</ele>
        <time>2015-02-06T14:53:53Z</time>
      </trkpt>
      <trkpt lat="47.508837142959237" lon="11.131703769788146">
        <ele>1527.440000000000055</ele>
        <time>2015-02-06T14:54:20Z</time>
      </trkpt>
      <trkpt lat="47.508807638660073" lon="11.131697734817863">
        <ele>1527.440000000000055</ele>
        <time>2015-02-06T14:54:44Z</time>
      </trkpt>
      <trkpt lat="47.508766399696469" lon="11.131784236058593">
        <ele>1527.900000000000091</ele>
        <time>2015-02-06T14:55:06Z</time>
      </trkpt>
      <trkpt lat="47.508755251765251" lon="11.131934691220522">
        <ele>1531.279999999999973</ele>
        <time>2015-02-06T14:55:25Z</time>
      </trkpt>
      <trkpt lat="47.508736392483115" lon="11.132025802507997">
        <ele>1532.910000000000082</ele>
        <time>2015-02-06T14:55:50Z</time>
      </trkpt>
      <trkpt lat="47.508772602304816" lon="11.131960339844227">
        <ele>1534.700000000000045</ele>
        <time>2015-02-06T14:56:09Z</time>
      </trkpt>
      <trkpt lat="47.508840998634696" lon="11.131881047040224">
        <ele>1537.819999999999936</ele>
        <time>2015-02-06T14:56:26Z</time>
      </trkpt>
      <trkpt lat="47.50886270776391" lon="11.131847100332379">
        <ele>1538.6400000000001</ele>
        <time>2015-02-06T14:56:51Z</time>
      </trkpt>
      <trkpt lat="47.508923644199967" lon="11.131954556331038">
        <ele>1539.839999999999918</ele>
        <time>2015-02-06T14:57:17Z</time>
      </trkpt>
      <trkpt lat="47.508970415219665" lon="11.132033262401819">
        <ele>1543.430000000000064</ele>
        <time>2015-02-06T14:57:29Z</time>
      </trkpt>
      <trkpt lat="47.508976617828012" lon="11.132032927125692">
        <ele>1543.349999999999909</ele>
        <time>2015-02-06T14:57:30Z</time>
      </trkpt>
      <trkpt lat="47.509026657789946" lon="11.132011050358415">
        <ele>1546.039999999999964</ele>
        <time>2015-02-06T14:57:43Z</time>
      </trkpt>
      <trkpt lat="47.509142914786935" lon="11.131985737010837">
        <ele>1548.119999999999891</ele>
        <time>2015-02-06T14:58:06Z</time>
      </trkpt>
      <trkpt lat="47.509124474599957" lon="11.132008284330368">
        <ele>1549.230000000000018</ele>
        <time>2015-02-06T14:58:33Z</time>
      </trkpt>
      <trkpt lat="47.509151548147202" lon="11.132070478051901">
        <ele>1550.440000000000055</ele>
        <time>2015-02-06T14:58:47Z</time>
      </trkpt>
      <trkpt lat="47.509155906736851" lon="11.132197380065918">
        <ele>1553.549999999999955</ele>
        <time>2015-02-06T14:58:58Z</time>
      </trkpt>
      <trkpt lat="47.509228829294443" lon="11.132176509127021">
        <ele>1555.450000000000045</ele>
        <time>2015-02-06T14:59:16Z</time>
      </trkpt>
      <trkpt lat="47.509220112115145" lon="11.132271643728018">
        <ele>1556.930000000000064</ele>
        <time>2015-02-06T14:59:29Z</time>
      </trkpt>
      <trkpt lat="47.509172754362226" lon="11.132382117211819">
        <ele>1559.519999999999982</ele>
        <time>2015-02-06T14:59:48Z</time>
      </trkpt>
      <trkpt lat="47.509134700521827" lon="11.132581690326333">
        <ele>1562.8599999999999</ele>
        <time>2015-02-06T15:00:05Z</time>
      </trkpt>
      <trkpt lat="47.509159427136183" lon="11.132648997008801">
        <ele>1565.230000000000018</ele>
        <time>2015-02-06T15:00:22Z</time>
      </trkpt>
      <trkpt lat="47.5092604290694" lon="11.132629634812474">
        <ele>1568.369999999999891</ele>
        <time>2015-02-06T15:00:37Z</time>
      </trkpt>
      <trkpt lat="47.509329495951533" lon="11.132644303143024">
        <ele>1571.630000000000109</ele>
        <time>2015-02-06T15:00:49Z</time>
      </trkpt>
      <trkpt lat="47.509411135688424" lon="11.132688140496612">
        <ele>1573.529999999999973</ele>
        <time>2015-02-06T15:01:12Z</time>
      </trkpt>
      <trkpt lat="47.50945002771914" lon="11.132795764133334">
        <ele>1577.509999999999991</ele>
        <time>2015-02-06T15:01:25Z</time>
      </trkpt>
      <trkpt lat="47.509522531181574" lon="11.132796686142683">
        <ele>1580.559999999999945</ele>
        <time>2015-02-06T15:01:43Z</time>
      </trkpt>
      <trkpt lat="47.509534768760204" lon="11.132832393050194">
        <ele>1581.589999999999918</ele>
        <time>2015-02-06T15:02:04Z</time>
      </trkpt>
      <trkpt lat="47.509528482332826" lon="11.132947728037834">
        <ele>1584.849999999999909</ele>
        <time>2015-02-06T15:02:27Z</time>
      </trkpt>
      <trkpt lat="47.509513646364212" lon="11.133070690557361">
        <ele>1587.869999999999891</ele>
        <time>2015-02-06T15:02:41Z</time>
      </trkpt>
      <trkpt lat="47.50950668938458" lon="11.13315861672163">
        <ele>1590.009999999999991</ele>
        <time>2015-02-06T15:02:59Z</time>
      </trkpt>
      <trkpt lat="47.509475257247686" lon="11.133263809606433">
        <ele>1593.079999999999927</ele>
        <time>2015-02-06T15:03:12Z</time>
      </trkpt>
      <trkpt lat="47.509445752948523" lon="11.133281327784061">
        <ele>1594.529999999999973</ele>
        <time>2015-02-06T15:03:32Z</time>
      </trkpt>
      <trkpt lat="47.509510293602943" lon="11.133198849856853">
        <ele>1596.950000000000045</ele>
        <time>2015-02-06T15:03:58Z</time>
      </trkpt>
      <trkpt lat="47.509534098207951" lon="11.13318401388824">
        <ele>1598.329999999999927</ele>
        <time>2015-02-06T15:04:21Z</time>
      </trkpt>
      <trkpt lat="47.509561758488417" lon="11.133318543434143">
        <ele>1601.1400000000001</ele>
        <time>2015-02-06T15:04:42Z</time>
      </trkpt>
      <trkpt lat="47.509598638862371" lon="11.133400853723288">
        <ele>1604.220000000000027</ele>
        <time>2015-02-06T15:04:55Z</time>
      </trkpt>
      <trkpt lat="47.509630741551518" lon="11.133493557572365">
        <ele>1606.230000000000018</ele>
        <time>2015-02-06T15:05:11Z</time>
      </trkpt>
      <trkpt lat="47.50963275320828" lon="11.133496491238475">
        <ele>1603.559999999999945</ele>
        <time>2015-02-06T15:05:35Z</time>
      </trkpt>
      <trkpt lat="47.509633004665375" lon="11.133496910333633">
        <ele>1609.099999999999909</ele>
        <time>2015-02-06T15:05:36Z</time>
      </trkpt>
      <trkpt lat="47.509633842855692" lon="11.13349674269557">
        <ele>1605.799999999999955</ele>
        <time>2015-02-06T15:05:38Z</time>
      </trkpt>
      <trkpt lat="47.509619174525142" lon="11.133488696068525">
        <ele>1608.299999999999955</ele>
        <time>2015-02-06T15:05:52Z</time>
      </trkpt>
      <trkpt lat="47.509735012426972" lon="11.133472518995404">
        <ele>1610.710000000000036</ele>
        <time>2015-02-06T15:06:14Z</time>
      </trkpt>
      <trkpt lat="47.50975638628006" lon="11.133562959730625">
        <ele>1613.75</ele>
        <time>2015-02-06T15:06:29Z</time>
      </trkpt>
      <trkpt lat="47.509760493412614" lon="11.13357444293797">
        <ele>1614.589999999999918</ele>
        <time>2015-02-06T15:06:49Z</time>
      </trkpt>
      <trkpt lat="47.50979888252914" lon="11.133612412959337">
        <ele>1617.670000000000073</ele>
        <time>2015-02-06T15:07:02Z</time>
      </trkpt>
      <trkpt lat="47.509819334372878" lon="11.13370930776">
        <ele>1619.779999999999973</ele>
        <time>2015-02-06T15:07:21Z</time>
      </trkpt>
      <trkpt lat="47.509854035452008" lon="11.133785918354988">
        <ele>1620.369999999999891</ele>
        <time>2015-02-06T15:07:29Z</time>
      </trkpt>
      <trkpt lat="47.509926119819283" lon="11.133935702964664">
        <ele>1623.079999999999927</ele>
        <time>2015-02-06T15:07:43Z</time>
      </trkpt>
      <trkpt lat="47.509995773434639" lon="11.134071992710233">
        <ele>1626.220000000000027</ele>
        <time>2015-02-06T15:07:57Z</time>
      </trkpt>
      <trkpt lat="47.510056290775537" lon="11.134179616346955">
        <ele>1629.230000000000018</ele>
        <time>2015-02-06T15:08:11Z</time>
      </trkpt>
      <trkpt lat="47.510132985189557" lon="11.134218592196703">
        <ele>1632.680000000000064</ele>
        <time>2015-02-06T15:08:23Z</time>
      </trkpt>
      <trkpt lat="47.510187635198236" lon="11.134248515591025">
        <ele>1635.1400000000001</ele>
        <time>2015-02-06T15:08:46Z</time>
      </trkpt>
      <trkpt lat="47.510271705687046" lon="11.134298890829086">
        <ele>1638.5</ele>
        <time>2015-02-06T15:09:00Z</time>
      </trkpt>
      <trkpt lat="47.510339850559831" lon="11.134389750659466">
        <ele>1641.589999999999918</ele>
        <time>2015-02-06T15:09:14Z</time>
      </trkpt>
      <trkpt lat="47.51039114780724" lon="11.134483041241765">
        <ele>1644.75</ele>
        <time>2015-02-06T15:09:27Z</time>
      </trkpt>
      <trkpt lat="47.510383101180196" lon="11.134516233578324">
        <ele>1644.470000000000027</ele>
        <time>2015-02-06T15:09:49Z</time>
      </trkpt>
      <trkpt lat="47.510399781167507" lon="11.134476503357291">
        <ele>1644.339999999999918</ele>
        <time>2015-02-06T15:10:09Z</time>
      </trkpt>
      <trkpt lat="47.510452251881361" lon="11.134516904130578">
        <ele>1647.990000000000009</ele>
        <time>2015-02-06T15:10:30Z</time>
      </trkpt>
      <trkpt lat="47.510540848597884" lon="11.134605081751943">
        <ele>1651.470000000000027</ele>
        <time>2015-02-06T15:10:45Z</time>
      </trkpt>
      <trkpt lat="47.510604886338115" lon="11.13473198376596">
        <ele>1654.5</ele>
        <time>2015-02-06T15:11:00Z</time>
      </trkpt>
      <trkpt lat="47.510684346780181" lon="11.134787639603019">
        <ele>1657.6400000000001</ele>
        <time>2015-02-06T15:11:18Z</time>
      </trkpt>
      <trkpt lat="47.510711336508393" lon="11.134806415066123">
        <ele>1658.230000000000018</ele>
        <time>2015-02-06T15:11:21Z</time>
      </trkpt>
      <trkpt lat="47.510779313743114" lon="11.134969610720873">
        <ele>1661.980000000000018</ele>
        <time>2015-02-06T15:11:38Z</time>
      </trkpt>
      <trkpt lat="47.510803453624249" lon="11.135123921558261">
        <ele>1661.910000000000082</ele>
        <time>2015-02-06T15:11:56Z</time>
      </trkpt>
      <trkpt lat="47.510846452787519" lon="11.135218217968941">
        <ele>1664.980000000000018</ele>
        <time>2015-02-06T15:12:09Z</time>
      </trkpt>
      <trkpt lat="47.510924069210887" lon="11.135312346741557">
        <ele>1668.079999999999927</ele>
        <time>2015-02-06T15:12:23Z</time>
      </trkpt>
      <trkpt lat="47.511004870757461" lon="11.135334810242057">
        <ele>1670.849999999999909</ele>
        <time>2015-02-06T15:12:42Z</time>
      </trkpt>
      <trkpt lat="47.511018784716725" lon="11.135447379201651">
        <ele>1674.420000000000073</ele>
        <time>2015-02-06T15:12:55Z</time>
      </trkpt>
      <trkpt lat="47.511066058650613" lon="11.135519044473767">
        <ele>1676.6099999999999</ele>
        <time>2015-02-06T15:13:12Z</time>
      </trkpt>
      <trkpt lat="47.511189859360456" lon="11.135560451075435">
        <ele>1679.740000000000009</ele>
        <time>2015-02-06T15:13:28Z</time>
      </trkpt>
      <trkpt lat="47.511271499097347" lon="11.135626835748553">
        <ele>1683.490000000000009</ele>
        <time>2015-02-06T15:13:42Z</time>
      </trkpt>
      <trkpt lat="47.511332184076309" lon="11.135709984228015">
        <ele>1686.089999999999918</ele>
        <time>2015-02-06T15:14:01Z</time>
      </trkpt>
      <trkpt lat="47.511403681710362" lon="11.13580210134387">
        <ele>1689.279999999999973</ele>
        <time>2015-02-06T15:14:19Z</time>
      </trkpt>
      <trkpt lat="47.511453805491328" lon="11.135845184326172">
        <ele>1692.470000000000027</ele>
        <time>2015-02-06T15:14:31Z</time>
      </trkpt>
      <trkpt lat="47.511523626744747" lon="11.135932104662061">
        <ele>1696.059999999999945</ele>
        <time>2015-02-06T15:14:52Z</time>
      </trkpt>
      <trkpt lat="47.511583892628551" lon="11.136000165715814">
        <ele>1699.549999999999955</ele>
        <time>2015-02-06T15:15:04Z</time>
      </trkpt>
      <trkpt lat="47.511632088571787" lon="11.13609722815454">
        <ele>1702.5</ele>
        <time>2015-02-06T15:15:28Z</time>
      </trkpt>
      <trkpt lat="47.511637285351753" lon="11.13626386038959">
        <ele>1704.440000000000055</ele>
        <time>2015-02-06T15:15:44Z</time>
      </trkpt>
      <trkpt lat="47.511643320322037" lon="11.136313565075397">
        <ele>1704.960000000000036</ele>
        <time>2015-02-06T15:15:48Z</time>
      </trkpt>
      <trkpt lat="47.511644577607512" lon="11.136449184268713">
        <ele>1707.630000000000109</ele>
        <time>2015-02-06T15:16:00Z</time>
      </trkpt>
      <trkpt lat="47.511672992259264" lon="11.136584719642997">
        <ele>1710.730000000000018</ele>
        <time>2015-02-06T15:16:13Z</time>
      </trkpt>
      <trkpt lat="47.51167768612504" lon="11.136779682710767">
        <ele>1712.990000000000009</ele>
        <time>2015-02-06T15:16:30Z</time>
      </trkpt>
      <trkpt lat="47.511712890118361" lon="11.136885965242982">
        <ele>1716.1400000000001</ele>
        <time>2015-02-06T15:16:42Z</time>
      </trkpt>
      <trkpt lat="47.511732168495655" lon="11.136927120387554">
        <ele>1717.539999999999964</ele>
        <time>2015-02-06T15:17:03Z</time>
      </trkpt>
      <trkpt lat="47.511742981150746" lon="11.137117641046643">
        <ele>1718.240000000000009</ele>
        <time>2015-02-06T15:17:25Z</time>
      </trkpt>
      <trkpt lat="47.511780448257923" lon="11.137328445911407">
        <ele>1720.720000000000027</ele>
        <time>2015-02-06T15:17:40Z</time>
      </trkpt>
      <trkpt lat="47.511812131851912" lon="11.137491641566157">
        <ele>1723.1099999999999</ele>
        <time>2015-02-06T15:17:57Z</time>
      </trkpt>
      <trkpt lat="47.51179302111268" lon="11.137609826400876">
        <ele>1726.210000000000036</ele>
        <time>2015-02-06T15:18:07Z</time>
      </trkpt>
      <trkpt lat="47.511791763827205" lon="11.137619046494365">
        <ele>1726.410000000000082</ele>
        <time>2015-02-06T15:18:08Z</time>
      </trkpt>
      <trkpt lat="47.511814394965768" lon="11.137745613232255">
        <ele>1730.460000000000036</ele>
        <time>2015-02-06T15:18:26Z</time>
      </trkpt>
      <trkpt lat="47.511833673343062" lon="11.137917609885335">
        <ele>1733.75</ele>
        <time>2015-02-06T15:18:44Z</time>
      </trkpt>
      <trkpt lat="47.511848090216517" lon="11.138050463050604">
        <ele>1735.009999999999991</ele>
        <time>2015-02-06T15:19:00Z</time>
      </trkpt>
      <trkpt lat="47.51184624619782" lon="11.138276271522045">
        <ele>1736.940000000000055</ele>
        <time>2015-02-06T15:19:17Z</time>
      </trkpt>
      <trkpt lat="47.511849934235215" lon="11.138394540175796">
        <ele>1740.150000000000091</ele>
        <time>2015-02-06T15:19:29Z</time>
      </trkpt>
      <trkpt lat="47.511883797124028" lon="11.138545498251915">
        <ele>1742.980000000000018</ele>
        <time>2015-02-06T15:19:51Z</time>
      </trkpt>
      <trkpt lat="47.511891173198819" lon="11.138624455779791">
        <ele>1743.809999999999945</ele>
        <time>2015-02-06T15:20:09Z</time>
      </trkpt>
      <trkpt lat="47.511894693598151" lon="11.13863761536777">
        <ele>1744.269999999999982</ele>
        <time>2015-02-06T15:20:50Z</time>
      </trkpt>
      <trkpt lat="47.511901147663593" lon="11.138659324496984">
        <ele>1744.529999999999973</ele>
        <time>2015-02-06T15:20:53Z</time>
      </trkpt>
      <trkpt lat="47.511912127956748" lon="11.138716656714678">
        <ele>1740.400000000000091</ele>
        <time>2015-02-06T15:21:03Z</time>
      </trkpt>
      <trkpt lat="47.511911960318685" lon="11.138716153800488">
        <ele>1747.950000000000045</ele>
        <time>2015-02-06T15:21:04Z</time>
      </trkpt>
      <trkpt lat="47.511910703033209" lon="11.13871531561017">
        <ele>1744.5</ele>
        <time>2015-02-06T15:21:05Z</time>
      </trkpt>
      <trkpt lat="47.511919504031539" lon="11.138705844059587">
        <ele>1743.759999999999991</ele>
        <time>2015-02-06T15:21:34Z</time>
      </trkpt>
      <trkpt lat="47.511934088543057" lon="11.138738868758082">
        <ele>1745.549999999999955</ele>
        <time>2015-02-06T15:21:59Z</time>
      </trkpt>
      <trkpt lat="47.511939201503992" lon="11.138736102730036">
        <ele>1745</ele>
        <time>2015-02-06T15:22:36Z</time>
      </trkpt>
      <trkpt lat="47.511955797672272" lon="11.138814641162753">
        <ele>1745.069999999999936</ele>
        <time>2015-02-06T15:22:50Z</time>
      </trkpt>
      <trkpt lat="47.511972561478615" lon="11.138939447700977">
        <ele>1749.009999999999991</ele>
        <time>2015-02-06T15:23:00Z</time>
      </trkpt>
      <trkpt lat="47.511992929503322" lon="11.13911010324955">
        <ele>1751.789999999999964</ele>
        <time>2015-02-06T15:23:14Z</time>
      </trkpt>
      <trkpt lat="47.51201237551868" lon="11.139200292527676">
        <ele>1753.1099999999999</ele>
        <time>2015-02-06T15:23:31Z</time>
      </trkpt>
      <trkpt lat="47.512010699138045" lon="11.139212949201465">
        <ele>1753.009999999999991</ele>
        <time>2015-02-06T15:23:57Z</time>
      </trkpt>
      <trkpt lat="47.512010363861918" lon="11.139209512621164">
        <ele>1752.910000000000082</ele>
        <time>2015-02-06T15:24:16Z</time>
      </trkpt>
      <trkpt lat="47.512007346376777" lon="11.139210602268577">
        <ele>1752.630000000000109</ele>
        <time>2015-02-06T15:24:35Z</time>
      </trkpt>
      <trkpt lat="47.511990666389465" lon="11.139204986393452">
        <ele>1752.339999999999918</ele>
        <time>2015-02-06T15:24:55Z</time>
      </trkpt>
      <trkpt lat="47.511990247294307" lon="11.139202136546373">
        <ele>1751.980000000000018</ele>
        <time>2015-02-06T15:25:13Z</time>
      </trkpt>
      <trkpt lat="47.511987816542387" lon="11.139200963079929">
        <ele>1752.710000000000036</ele>
        <time>2015-02-06T15:25:15Z</time>
      </trkpt>
      <trkpt lat="47.512010866776109" lon="11.139193754643202">
        <ele>1751.690000000000055</ele>
        <time>2015-02-06T15:25:36Z</time>
      </trkpt>
      <trkpt lat="47.512014554813504" lon="11.139192748814821">
        <ele>1752.180000000000064</ele>
        <time>2015-02-06T15:25:54Z</time>
      </trkpt>
      <trkpt lat="47.512019081041217" lon="11.139188390225172">
        <ele>1752.180000000000064</ele>
        <time>2015-02-06T15:26:13Z</time>
      </trkpt>
      <trkpt lat="47.512015057727695" lon="11.139192916452885">
        <ele>1751.490000000000009</ele>
        <time>2015-02-06T15:26:33Z</time>
      </trkpt>
      <trkpt lat="47.51201631501317" lon="11.139217559248209">
        <ele>1752.029999999999973</ele>
        <time>2015-02-06T15:26:55Z</time>
      </trkpt>
      <trkpt lat="47.512014890089631" lon="11.139218816533685">
        <ele>1751.759999999999991</ele>
        <time>2015-02-06T15:27:14Z</time>
      </trkpt>
      <trkpt lat="47.512008519843221" lon="11.139213033020496">
        <ele>1751.410000000000082</ele>
        <time>2015-02-06T15:27:29Z</time>
      </trkpt>
      <trkpt lat="47.512029893696308" lon="11.139214960858226">
        <ele>1750.75</ele>
        <time>2015-02-06T15:27:55Z</time>
      </trkpt>
      <trkpt lat="47.512002484872937" lon="11.139207752421498">
        <ele>1751.119999999999891</ele>
        <time>2015-02-06T15:28:14Z</time>
      </trkpt>
      <trkpt lat="47.511991839855909" lon="11.139208422973752">
        <ele>1751.980000000000018</ele>
        <time>2015-02-06T15:28:36Z</time>
      </trkpt>
      <trkpt lat="47.511988990008831" lon="11.139206578955054">
        <ele>1751.619999999999891</ele>
        <time>2015-02-06T15:29:00Z</time>
      </trkpt>
      <trkpt lat="47.511990247294307" lon="11.139206830412149">
        <ele>1751.150000000000091</ele>
        <time>2015-02-06T15:29:22Z</time>
      </trkpt>
      <trkpt lat="47.511992091313004" lon="11.139205992221832">
        <ele>1751.930000000000064</ele>
        <time>2015-02-06T15:29:47Z</time>
      </trkpt>
      <trkpt lat="47.512000640854239" lon="11.139209512621164">
        <ele>1751.3900000000001</ele>
        <time>2015-02-06T15:30:15Z</time>
      </trkpt>
      <trkpt lat="47.512007346376777" lon="11.139209177345037">
        <ele>1751.299999999999955</ele>
        <time>2015-02-06T15:30:48Z</time>
      </trkpt>
      <trkpt lat="47.512014973908663" lon="11.139211021363735">
        <ele>1750.730000000000018</ele>
        <time>2015-02-06T15:31:13Z</time>
      </trkpt>
      <trkpt lat="47.512015728279948" lon="11.139210434630513">
        <ele>1751.630000000000109</ele>
        <time>2015-02-06T15:31:40Z</time>
      </trkpt>
      <trkpt lat="47.51200751401484" lon="11.139210853725672">
        <ele>1750.700000000000045</ele>
        <time>2015-02-06T15:32:04Z</time>
      </trkpt>
      <trkpt lat="47.512003490701318" lon="11.139214122667909">
        <ele>1751.940000000000055</ele>
        <time>2015-02-06T15:32:24Z</time>
      </trkpt>
      <trkpt lat="47.511998545378447" lon="11.139217810705304">
        <ele>1751.569999999999936</ele>
        <time>2015-02-06T15:32:45Z</time>
      </trkpt>
      <trkpt lat="47.511997204273939" lon="11.139224013313651">
        <ele>1752.150000000000091</ele>
        <time>2015-02-06T15:33:08Z</time>
      </trkpt>
      <trkpt lat="47.511997455731034" lon="11.139220241457224">
        <ele>1752.470000000000027</ele>
        <time>2015-02-06T15:33:31Z</time>
      </trkpt>
      <trkpt lat="47.512001059949398" lon="11.139216888695955">
        <ele>1752.029999999999973</ele>
        <time>2015-02-06T15:33:59Z</time>
      </trkpt>
      <trkpt lat="47.511994857341051" lon="11.139214038848877">
        <ele>1751.710000000000036</ele>
        <time>2015-02-06T15:34:25Z</time>
      </trkpt>
      <trkpt lat="47.511994354426861" lon="11.139203310012817">
        <ele>1752.200000000000045</ele>
        <time>2015-02-06T15:34:53Z</time>
      </trkpt>
      <trkpt lat="47.511985301971436" lon="11.139195179566741">
        <ele>1751.1400000000001</ele>
        <time>2015-02-06T15:35:22Z</time>
      </trkpt>
      <trkpt lat="47.511988570913672" lon="11.13919953815639">
        <ele>1751.680000000000064</ele>
        <time>2015-02-06T15:35:48Z</time>
      </trkpt>
      <trkpt lat="47.511992929503322" lon="11.13920490257442">
        <ele>1751.3900000000001</ele>
        <time>2015-02-06T15:36:13Z</time>
      </trkpt>
      <trkpt lat="47.511994438245893" lon="11.139212278649211">
        <ele>1751.619999999999891</ele>
        <time>2015-02-06T15:36:42Z</time>
      </trkpt>
      <trkpt lat="47.511997791007161" lon="11.139207249507308">
        <ele>1751.329999999999927</ele>
        <time>2015-02-06T15:37:04Z</time>
      </trkpt>
      <trkpt lat="47.511999718844891" lon="11.13921076990664">
        <ele>1751.740000000000009</ele>
        <time>2015-02-06T15:37:30Z</time>
      </trkpt>
      <trkpt lat="47.51199871301651" lon="11.139207584783435">
        <ele>1751.130000000000109</ele>
        <time>2015-02-06T15:38:02Z</time>
      </trkpt>
      <trkpt lat="47.512002484872937" lon="11.139206998050213">
        <ele>1751.3599999999999</ele>
        <time>2015-02-06T15:38:53Z</time>
      </trkpt>
      <trkpt lat="47.511999970301986" lon="11.139194509014487">
        <ele>1751.279999999999973</ele>
        <time>2015-02-06T15:39:30Z</time>
      </trkpt>
      <trkpt lat="47.512005586177111" lon="11.139186713844538">
        <ele>1752.950000000000045</ele>
        <time>2015-02-06T15:39:34Z</time>
      </trkpt>
      <trkpt lat="47.512008938938379" lon="11.139194844290614">
        <ele>1751.380000000000109</ele>
        <time>2015-02-06T15:39:45Z</time>
      </trkpt>
      <trkpt lat="47.512004915624857" lon="11.139199454337358">
        <ele>1751.8900000000001</ele>
        <time>2015-02-06T15:40:20Z</time>
      </trkpt>
      <trkpt lat="47.512005250900984" lon="11.139197861775756">
        <ele>1750.079999999999927</ele>
        <time>2015-02-06T15:40:23Z</time>
      </trkpt>
      <trkpt lat="47.512003909796476" lon="11.139198616147041">
        <ele>1751.430000000000064</ele>
        <time>2015-02-06T15:40:25Z</time>
      </trkpt>
      <trkpt lat="47.511992510408163" lon="11.139178751036525">
        <ele>1752.200000000000045</ele>
        <time>2015-02-06T15:40:44Z</time>
      </trkpt>
      <trkpt lat="47.511994773522019" lon="11.139169279485941">
        <ele>1751.789999999999964</ele>
        <time>2015-02-06T15:41:11Z</time>
      </trkpt>
      <trkpt lat="47.511988654732704" lon="11.139171291142702">
        <ele>1751.869999999999891</ele>
        <time>2015-02-06T15:41:34Z</time>
      </trkpt>
      <trkpt lat="47.511992678046227" lon="11.139184450730681">
        <ele>1750.809999999999945</ele>
        <time>2015-02-06T15:41:56Z</time>
      </trkpt>
      <trkpt lat="47.511976584792137" lon="11.139177409932017">
        <ele>1750.880000000000109</ele>
        <time>2015-02-06T15:42:03Z</time>
      </trkpt>
      <trkpt lat="47.511955965310335" lon="11.13921613432467">
        <ele>1749.900000000000091</ele>
        <time>2015-02-06T15:42:05Z</time>
      </trkpt>
      <trkpt lat="47.511946577578783" lon="11.139262989163399">
        <ele>1749.089999999999918</ele>
        <time>2015-02-06T15:42:06Z</time>
      </trkpt>
      <trkpt lat="47.51193325035274" lon="11.139326021075249">
        <ele>1748.509999999999991</ele>
        <time>2015-02-06T15:42:07Z</time>
      </trkpt>
      <trkpt lat="47.511914977803826" lon="11.139399446547031">
        <ele>1747.559999999999945</ele>
        <time>2015-02-06T15:42:08Z</time>
      </trkpt>
      <trkpt lat="47.51188094727695" lon="11.139575215056539">
        <ele>1744.599999999999909</ele>
        <time>2015-02-06T15:42:10Z</time>
      </trkpt>
      <trkpt lat="47.511859824880958" lon="11.139671271666884">
        <ele>1743.329999999999927</ele>
        <time>2015-02-06T15:42:11Z</time>
      </trkpt>
      <trkpt lat="47.511837193742394" lon="11.13972969353199">
        <ele>1740.230000000000018</ele>
        <time>2015-02-06T15:42:12Z</time>
      </trkpt>
      <trkpt lat="47.511823950335383" lon="11.139742182567716">
        <ele>1741.460000000000036</ele>
        <time>2015-02-06T15:42:13Z</time>
      </trkpt>
      <trkpt lat="47.511807773262262" lon="11.13974972628057">
        <ele>1740.289999999999964</ele>
        <time>2015-02-06T15:42:26Z</time>
      </trkpt>
      <trkpt lat="47.511794865131378" lon="11.139765903353691">
        <ele>1739.480000000000018</ele>
        <time>2015-02-06T15:42:27Z</time>
      </trkpt>
      <trkpt lat="47.511783046647906" lon="11.139785684645176">
        <ele>1739.6099999999999</ele>
        <time>2015-02-06T15:42:28Z</time>
      </trkpt>
      <trkpt lat="47.511768043041229" lon="11.139832455664873">
        <ele>1738.910000000000082</ele>
        <time>2015-02-06T15:42:35Z</time>
      </trkpt>
      <trkpt lat="47.511756224557757" lon="11.139855589717627">
        <ele>1738.549999999999955</ele>
        <time>2015-02-06T15:42:36Z</time>
      </trkpt>
      <trkpt lat="47.511741556227207" lon="11.13988509401679">
        <ele>1737.740000000000009</ele>
        <time>2015-02-06T15:42:37Z</time>
      </trkpt>
      <trkpt lat="47.51172655262053" lon="11.139920214191079">
        <ele>1737.279999999999973</ele>
        <time>2015-02-06T15:42:38Z</time>
      </trkpt>
      <trkpt lat="47.511712554842234" lon="11.139960950240493">
        <ele>1736.400000000000091</ele>
        <time>2015-02-06T15:42:39Z</time>
      </trkpt>
      <trkpt lat="47.511701239272952" lon="11.140008810907602">
        <ele>1735.779999999999973</ele>
        <time>2015-02-06T15:42:40Z</time>
      </trkpt>
      <trkpt lat="47.51168942078948" lon="11.140064969658852">
        <ele>1734.700000000000045</ele>
        <time>2015-02-06T15:42:41Z</time>
      </trkpt>
      <trkpt lat="47.511657401919365" lon="11.140187596902251">
        <ele>1733.740000000000009</ele>
        <time>2015-02-06T15:42:43Z</time>
      </trkpt>
      <trkpt lat="47.511630915105343" lon="11.140245264396071">
        <ele>1732.970000000000027</ele>
        <time>2015-02-06T15:42:44Z</time>
      </trkpt>
      <trkpt lat="47.51160342246294" lon="11.140302764251828">
        <ele>1732.099999999999909</ele>
        <time>2015-02-06T15:42:45Z</time>
      </trkpt>
      <trkpt lat="47.511577438563108" lon="11.140366550534964">
        <ele>1731.700000000000045</ele>
        <time>2015-02-06T15:42:46Z</time>
      </trkpt>
      <trkpt lat="47.511553801596165" lon="11.14043821580708">
        <ele>1729.799999999999955</ele>
        <time>2015-02-06T15:42:47Z</time>
      </trkpt>
      <trkpt lat="47.511524800211191" lon="11.140501918271184">
        <ele>1729.039999999999964</ele>
        <time>2015-02-06T15:42:48Z</time>
      </trkpt>
      <trkpt lat="47.511502588167787" lon="11.140555227175355">
        <ele>1728.670000000000073</ele>
        <time>2015-02-06T15:42:49Z</time>
      </trkpt>
      <trkpt lat="47.511417763307691" lon="11.140835350379348">
        <ele>1727.529999999999973</ele>
        <time>2015-02-06T15:43:01Z</time>
      </trkpt>
      <trkpt lat="47.511393036693335" lon="11.140875667333603">
        <ele>1727.539999999999964</ele>
        <time>2015-02-06T15:43:14Z</time>
      </trkpt>
      <trkpt lat="47.511382726952434" lon="11.14086477085948">
        <ele>1726.799999999999955</ele>
        <time>2015-02-06T15:43:27Z</time>
      </trkpt>
      <trkpt lat="47.511375434696674" lon="11.140876254066825">
        <ele>1727.279999999999973</ele>
        <time>2015-02-06T15:43:44Z</time>
      </trkpt>
      <trkpt lat="47.511357245966792" lon="11.140920845791698">
        <ele>1727.220000000000027</ele>
        <time>2015-02-06T15:43:56Z</time>
      </trkpt>
      <trkpt lat="47.511352468281984" lon="11.140939369797707">
        <ele>1727.8900000000001</ele>
        <time>2015-02-06T15:44:12Z</time>
      </trkpt>
      <trkpt lat="47.511348109692335" lon="11.140943560749292">
        <ele>1727.569999999999936</ele>
        <time>2015-02-06T15:44:27Z</time>
      </trkpt>
      <trkpt lat="47.511354144662619" lon="11.140954876318574">
        <ele>1728.769999999999982</ele>
        <time>2015-02-06T15:44:44Z</time>
      </trkpt>
      <trkpt lat="47.511335285380483" lon="11.141024278476834">
        <ele>1729.420000000000073</ele>
        <time>2015-02-06T15:44:56Z</time>
      </trkpt>
      <trkpt lat="47.511303769424558" lon="11.141090160235763">
        <ele>1731</ele>
        <time>2015-02-06T15:45:08Z</time>
      </trkpt>
      <trkpt lat="47.511287340894341" lon="11.141135673969984">
        <ele>1731.920000000000073</ele>
        <time>2015-02-06T15:45:19Z</time>
      </trkpt>
      <trkpt lat="47.511270828545094" lon="11.141140786930919">
        <ele>1732.240000000000009</ele>
        <time>2015-02-06T15:45:27Z</time>
      </trkpt>
      <trkpt lat="47.51125406473875" lon="11.141180600970984">
        <ele>1733.259999999999991</ele>
        <time>2015-02-06T15:45:37Z</time>
      </trkpt>
      <trkpt lat="47.511224560439587" lon="11.141218235716224">
        <ele>1732.759999999999991</ele>
        <time>2015-02-06T15:45:51Z</time>
      </trkpt>
      <trkpt lat="47.511191787198186" lon="11.141286548227072">
        <ele>1734.210000000000036</ele>
        <time>2015-02-06T15:46:07Z</time>
      </trkpt>
      <trkpt lat="47.511165551841259" lon="11.141331642866135">
        <ele>1734.880000000000109</ele>
        <time>2015-02-06T15:46:20Z</time>
      </trkpt>
      <trkpt lat="47.511127581819892" lon="11.141399284824729">
        <ele>1736.099999999999909</ele>
        <time>2015-02-06T15:46:36Z</time>
      </trkpt>
      <trkpt lat="47.511094892397523" lon="11.141442116349936">
        <ele>1736.880000000000109</ele>
        <time>2015-02-06T15:46:51Z</time>
      </trkpt>
      <trkpt lat="47.511063879355788" lon="11.141485618427396">
        <ele>1737.829999999999927</ele>
        <time>2015-02-06T15:47:05Z</time>
      </trkpt>
      <trkpt lat="47.511033285409212" lon="11.141517134383321">
        <ele>1738.75</ele>
        <time>2015-02-06T15:47:22Z</time>
      </trkpt>
      <trkpt lat="47.511007720604539" lon="11.141533479094505">
        <ele>1738.400000000000091</ele>
        <time>2015-02-06T15:47:27Z</time>
      </trkpt>
      <trkpt lat="47.51094133593142" lon="11.141585698351264">
        <ele>1738.730000000000018</ele>
        <time>2015-02-06T15:47:42Z</time>
      </trkpt>
      <trkpt lat="47.510945191606879" lon="11.141594247892499">
        <ele>1739.650000000000091</ele>
        <time>2015-02-06T15:47:59Z</time>
      </trkpt>
      <trkpt lat="47.510949466377497" lon="11.141597852110863">
        <ele>1737.8900000000001</ele>
        <time>2015-02-06T15:48:02Z</time>
      </trkpt>
      <trkpt lat="47.51094426959753" lon="11.141578992828727">
        <ele>1737.779999999999973</ele>
        <time>2015-02-06T15:48:33Z</time>
      </trkpt>
      <trkpt lat="47.510935720056295" lon="11.1416011210531">
        <ele>1737.930000000000064</ele>
        <time>2015-02-06T15:49:01Z</time>
      </trkpt>
      <trkpt lat="47.510929768905044" lon="11.141604389995337">
        <ele>1738.420000000000073</ele>
        <time>2015-02-06T15:49:30Z</time>
      </trkpt>
      <trkpt lat="47.510926248505712" lon="11.141600450500846">
        <ele>1738.1099999999999</ele>
        <time>2015-02-06T15:50:09Z</time>
      </trkpt>
      <trkpt lat="47.51092566177249" lon="11.141623668372631">
        <ele>1737.960000000000036</ele>
        <time>2015-02-06T15:51:06Z</time>
      </trkpt>
      <trkpt lat="47.510926248505712" lon="11.141625680029392">
        <ele>1738.259999999999991</ele>
        <time>2015-02-06T15:52:03Z</time>
      </trkpt>
      <trkpt lat="47.510926835238934" lon="11.141629032790661">
        <ele>1737.160000000000082</ele>
        <time>2015-02-06T15:52:28Z</time>
      </trkpt>
      <trkpt lat="47.510931277647614" lon="11.141624925658107">
        <ele>1737.809999999999945</ele>
        <time>2015-02-06T15:53:14Z</time>
      </trkpt>
      <trkpt lat="47.510934295132756" lon="11.141608748584986">
        <ele>1739.630000000000109</ele>
        <time>2015-02-06T15:53:46Z</time>
      </trkpt>
      <trkpt lat="47.510934127494693" lon="11.141604389995337">
        <ele>1738.210000000000036</ele>
        <time>2015-02-06T15:53:54Z</time>
      </trkpt>
      <trkpt lat="47.510901521891356" lon="11.141615957021713">
        <ele>1739.319999999999936</ele>
        <time>2015-02-06T15:54:12Z</time>
      </trkpt>
      <trkpt lat="47.510871347039938" lon="11.141634481027722">
        <ele>1740.079999999999927</ele>
        <time>2015-02-06T15:54:25Z</time>
      </trkpt>
      <trkpt lat="47.510832455009222" lon="11.141656525433064">
        <ele>1741.029999999999973</ele>
        <time>2015-02-06T15:54:30Z</time>
      </trkpt>
      <trkpt lat="47.510751485824585" lon="11.141729280352592">
        <ele>1742.75</ele>
        <time>2015-02-06T15:54:47Z</time>
      </trkpt>
      <trkpt lat="47.510690800845623" lon="11.141754509881139">
        <ele>1745.589999999999918</ele>
        <time>2015-02-06T15:55:08Z</time>
      </trkpt>
      <trkpt lat="47.510583261027932" lon="11.141826342791319">
        <ele>1748.680000000000064</ele>
        <time>2015-02-06T15:55:21Z</time>
      </trkpt>
      <trkpt lat="47.51049667596817" lon="11.141894739121199">
        <ele>1751.700000000000045</ele>
        <time>2015-02-06T15:55:36Z</time>
      </trkpt>
      <trkpt lat="47.510387459769845" lon="11.141978977248073">
        <ele>1754.880000000000109</ele>
        <time>2015-02-06T15:55:50Z</time>
      </trkpt>
      <trkpt lat="47.510254690423608" lon="11.142067657783628">
        <ele>1758.069999999999936</ele>
        <time>2015-02-06T15:56:07Z</time>
      </trkpt>
      <trkpt lat="47.51013214699924" lon="11.142150554805994">
        <ele>1760.829999999999927</ele>
        <time>2015-02-06T15:56:23Z</time>
      </trkpt>
      <trkpt lat="47.510021757334471" lon="11.142247281968594">
        <ele>1764</ele>
        <time>2015-02-06T15:56:38Z</time>
      </trkpt>
      <trkpt lat="47.509906087070704" lon="11.142344595864415">
        <ele>1765.740000000000009</ele>
        <time>2015-02-06T15:56:53Z</time>
      </trkpt>
      <trkpt lat="47.509780107066035" lon="11.142440568655729">
        <ele>1768.910000000000082</ele>
        <time>2015-02-06T15:57:10Z</time>
      </trkpt>
      <trkpt lat="47.509651025757194" lon="11.142551461234689">
        <ele>1769.700000000000045</ele>
        <time>2015-02-06T15:57:28Z</time>
      </trkpt>
      <trkpt lat="47.509566033259034" lon="11.142608961090446">
        <ele>1772.720000000000027</ele>
        <time>2015-02-06T15:57:39Z</time>
      </trkpt>
      <trkpt lat="47.509434437379241" lon="11.142688589170575">
        <ele>1775.940000000000055</ele>
        <time>2015-02-06T15:57:56Z</time>
      </trkpt>
      <trkpt lat="47.509305439889431" lon="11.142766792327166">
        <ele>1778.1099999999999</ele>
        <time>2015-02-06T15:58:12Z</time>
      </trkpt>
      <trkpt lat="47.509221872314811" lon="11.142799397930503">
        <ele>1779.3900000000001</ele>
        <time>2015-02-06T15:58:25Z</time>
      </trkpt>
      <trkpt lat="47.509097987785935" lon="11.14285203628242">
        <ele>1782.539999999999964</ele>
        <time>2015-02-06T15:58:39Z</time>
      </trkpt>
      <trkpt lat="47.508995141834021" lon="11.142935687676072">
        <ele>1783.529999999999973</ele>
        <time>2015-02-06T15:58:54Z</time>
      </trkpt>
      <trkpt lat="47.508986759930849" lon="11.142945494502783">
        <ele>1783.920000000000073</ele>
        <time>2015-02-06T15:58:55Z</time>
      </trkpt>
      <trkpt lat="47.508977120742202" lon="11.142953457310796">
        <ele>1784.150000000000091</ele>
        <time>2015-02-06T15:58:56Z</time>
      </trkpt>
      <trkpt lat="47.508832784369588" lon="11.143102068454027">
        <ele>1784.519999999999982</ele>
        <time>2015-02-06T15:59:14Z</time>
      </trkpt>
      <trkpt lat="47.508752066642046" lon="11.143098883330822">
        <ele>1785.299999999999955</ele>
        <time>2015-02-06T15:59:30Z</time>
      </trkpt>
      <trkpt lat="47.508717365562916" lon="11.143061332404613">
        <ele>1784.369999999999891</ele>
        <time>2015-02-06T15:59:46Z</time>
      </trkpt>
      <trkpt lat="47.508726082742214" lon="11.143078682944179">
        <ele>1784.039999999999964</ele>
        <time>2015-02-06T16:00:29Z</time>
      </trkpt>
      <trkpt lat="47.508718706667423" lon="11.143085556104779">
        <ele>1783.539999999999964</ele>
        <time>2015-02-06T16:00:58Z</time>
      </trkpt>
      <trkpt lat="47.50871803611517" lon="11.143075916916132">
        <ele>1784.880000000000109</ele>
        <time>2015-02-06T16:01:39Z</time>
      </trkpt>
      <trkpt lat="47.508662380278111" lon="11.14309536293149">
        <ele>1784.220000000000027</ele>
        <time>2015-02-06T16:02:06Z</time>
      </trkpt>
      <trkpt lat="47.508633127436042" lon="11.143098715692759">
        <ele>1784.759999999999991</ele>
        <time>2015-02-06T16:02:09Z</time>
      </trkpt>
      <trkpt lat="47.508621476590633" lon="11.143098967149854">
        <ele>1784.289999999999964</ele>
        <time>2015-02-06T16:02:10Z</time>
      </trkpt>
      <trkpt lat="47.50860957428813" lon="11.143099134787917">
        <ele>1783.5</ele>
        <time>2015-02-06T16:02:11Z</time>
      </trkpt>
      <trkpt lat="47.508598091080785" lon="11.143098548054695">
        <ele>1784.259999999999991</ele>
        <time>2015-02-06T16:02:12Z</time>
      </trkpt>
      <trkpt lat="47.508586691692472" lon="11.143100811168551">
        <ele>1783.160000000000082</ele>
        <time>2015-02-06T16:02:13Z</time>
      </trkpt>
      <trkpt lat="47.508522151038051" lon="11.143118580803275">
        <ele>1781.730000000000018</ele>
        <time>2015-02-06T16:02:19Z</time>
      </trkpt>
      <trkpt lat="47.508477056398988" lon="11.14313492551446">
        <ele>1780.900000000000091</ele>
        <time>2015-02-06T16:02:24Z</time>
      </trkpt>
      <trkpt lat="47.508464232087135" lon="11.143139032647014">
        <ele>1781.349999999999909</ele>
        <time>2015-02-06T16:02:25Z</time>
      </trkpt>
      <trkpt lat="47.508451407775283" lon="11.143142385408282">
        <ele>1781.1400000000001</ele>
        <time>2015-02-06T16:02:26Z</time>
      </trkpt>
      <trkpt lat="47.508440343663096" lon="11.143147246912122">
        <ele>1780.809999999999945</ele>
        <time>2015-02-06T16:02:27Z</time>
      </trkpt>
      <trkpt lat="47.508425256237388" lon="11.143165351822972">
        <ele>1780.809999999999945</ele>
        <time>2015-02-06T16:02:29Z</time>
      </trkpt>
      <trkpt lat="47.508372869342566" lon="11.143244057893753">
        <ele>1780.980000000000018</ele>
        <time>2015-02-06T16:02:41Z</time>
      </trkpt>
      <trkpt lat="47.5083779823035" lon="11.143247075378895">
        <ele>1780.460000000000036</ele>
        <time>2015-02-06T16:02:56Z</time>
      </trkpt>
      <trkpt lat="47.508378066122532" lon="11.143255541101098">
        <ele>1780.099999999999909</ele>
        <time>2015-02-06T16:03:31Z</time>
      </trkpt>
      <trkpt lat="47.508365157991648" lon="11.143256798386574">
        <ele>1781.069999999999936</ele>
        <time>2015-02-06T16:03:57Z</time>
      </trkpt>
      <trkpt lat="47.508321991190314" lon="11.143308682367206">
        <ele>1781.029999999999973</ele>
        <time>2015-02-06T16:04:03Z</time>
      </trkpt>
      <trkpt lat="47.50831444747746" lon="11.143320081755519">
        <ele>1780.980000000000018</ele>
        <time>2015-02-06T16:04:04Z</time>
      </trkpt>
      <trkpt lat="47.508305143564939" lon="11.143331313505769">
        <ele>1781.25</ele>
        <time>2015-02-06T16:04:05Z</time>
      </trkpt>
      <trkpt lat="47.508295336738229" lon="11.143341539427638">
        <ele>1781.009999999999991</ele>
        <time>2015-02-06T16:04:06Z</time>
      </trkpt>
      <trkpt lat="47.508283853530884" lon="11.143352603539824">
        <ele>1780.829999999999927</ele>
        <time>2015-02-06T16:04:07Z</time>
      </trkpt>
      <trkpt lat="47.508273459970951" lon="11.143363248556852">
        <ele>1781.210000000000036</ele>
        <time>2015-02-06T16:04:08Z</time>
      </trkpt>
      <trkpt lat="47.508263736963272" lon="11.143371379002929">
        <ele>1780.200000000000045</ele>
        <time>2015-02-06T16:04:09Z</time>
      </trkpt>
      <trkpt lat="47.50825384631753" lon="11.143378252163529">
        <ele>1780.180000000000064</ele>
        <time>2015-02-06T16:04:10Z</time>
      </trkpt>
      <trkpt lat="47.508219312876463" lon="11.143392082303762">
        <ele>1779.8900000000001</ele>
        <time>2015-02-06T16:04:25Z</time>
      </trkpt>
      <trkpt lat="47.508218390867114" lon="11.143402643501759">
        <ele>1778.119999999999891</ele>
        <time>2015-02-06T16:04:41Z</time>
      </trkpt>
      <trkpt lat="47.508193915709853" lon="11.143413037061691">
        <ele>1778.069999999999936</ele>
        <time>2015-02-06T16:05:19Z</time>
      </trkpt>
      <trkpt lat="47.508189389482141" lon="11.14341932348907">
        <ele>1778.25</ele>
        <time>2015-02-06T16:05:54Z</time>
      </trkpt>
      <trkpt lat="47.508185366168618" lon="11.143425945192575">
        <ele>1778.1400000000001</ele>
        <time>2015-02-06T16:06:46Z</time>
      </trkpt>
      <trkpt lat="47.508182181045413" lon="11.143433069810271">
        <ele>1778.309999999999945</ele>
        <time>2015-02-06T16:07:29Z</time>
      </trkpt>
      <trkpt lat="47.508187210187316" lon="11.143420580774546">
        <ele>1778.1099999999999</ele>
        <time>2015-02-06T16:07:57Z</time>
      </trkpt>
      <trkpt lat="47.508196011185646" lon="11.143408846110106">
        <ele>1777.450000000000045</ele>
        <time>2015-02-06T16:08:21Z</time>
      </trkpt>
      <trkpt lat="47.508203890174627" lon="11.143401637673378">
        <ele>1779.960000000000036</ele>
        <time>2015-02-06T16:08:45Z</time>
      </trkpt>
      <trkpt lat="47.508200537413359" lon="11.143402140587568">
        <ele>1779.509999999999991</ele>
        <time>2015-02-06T16:09:01Z</time>
      </trkpt>
      <trkpt lat="47.508205398917198" lon="11.143412115052342">
        <ele>1779.670000000000073</ele>
        <time>2015-02-06T16:09:20Z</time>
      </trkpt>
      <trkpt lat="47.508211936801672" lon="11.143398871645331">
        <ele>1780.099999999999909</ele>
        <time>2015-02-06T16:09:36Z</time>
      </trkpt>
      <trkpt lat="47.508218223229051" lon="11.143399961292744">
        <ele>1779.519999999999982</ele>
        <time>2015-02-06T16:10:10Z</time>
      </trkpt>
      <trkpt lat="47.508215121924877" lon="11.143394596874714">
        <ele>1780.029999999999973</ele>
        <time>2015-02-06T16:10:24Z</time>
      </trkpt>
      <trkpt lat="47.508211685344577" lon="11.143402559682727">
        <ele>1779.289999999999964</ele>
        <time>2015-02-06T16:10:41Z</time>
      </trkpt>
      <trkpt lat="47.508209506049752" lon="11.143403565511107">
        <ele>1779.079999999999927</ele>
        <time>2015-02-06T16:10:57Z</time>
      </trkpt>
      <trkpt lat="47.508192742243409" lon="11.143389735370874">
        <ele>1778.470000000000027</ele>
        <time>2015-02-06T16:11:10Z</time>
      </trkpt>
      <trkpt lat="47.508178744465113" lon="11.143383616581559">
        <ele>1778.839999999999918</ele>
        <time>2015-02-06T16:11:11Z</time>
      </trkpt>
      <trkpt lat="47.508161310106516" lon="11.14337682723999">
        <ele>1777.880000000000109</ele>
        <time>2015-02-06T16:11:12Z</time>
      </trkpt>
      <trkpt lat="47.508138343691826" lon="11.143378922715783">
        <ele>1777.259999999999991</ele>
        <time>2015-02-06T16:11:13Z</time>
      </trkpt>
      <trkpt lat="47.508109509944916" lon="11.143389819189906">
        <ele>1777.180000000000064</ele>
        <time>2015-02-06T16:11:14Z</time>
      </trkpt>
      <trkpt lat="47.508074222132564" lon="11.143406918272376">
        <ele>1776.720000000000027</ele>
        <time>2015-02-06T16:11:15Z</time>
      </trkpt>
      <trkpt lat="47.508043963462114" lon="11.143434327095747">
        <ele>1775.480000000000018</ele>
        <time>2015-02-06T16:11:16Z</time>
      </trkpt>
      <trkpt lat="47.508022589609027" lon="11.143464837223291">
        <ele>1775.970000000000027</ele>
        <time>2015-02-06T16:11:17Z</time>
      </trkpt>
      <trkpt lat="47.507931394502521" lon="11.143657704815269">
        <ele>1773.819999999999936</ele>
        <time>2015-02-06T16:11:28Z</time>
      </trkpt>
      <trkpt lat="47.507923096418381" lon="11.143708331510425">
        <ele>1772.980000000000018</ele>
        <time>2015-02-06T16:11:37Z</time>
      </trkpt>
      <trkpt lat="47.507917899638414" lon="11.143746469169855">
        <ele>1773.059999999999945</ele>
        <time>2015-02-06T16:11:39Z</time>
      </trkpt>
      <trkpt lat="47.507918905466795" lon="11.143765496090055">
        <ele>1773.009999999999991</ele>
        <time>2015-02-06T16:11:40Z</time>
      </trkpt>
      <trkpt lat="47.507911697030067" lon="11.143803633749485">
        <ele>1772.480000000000018</ele>
        <time>2015-02-06T16:11:43Z</time>
      </trkpt>
      <trkpt lat="47.507909685373306" lon="11.143906731158495">
        <ele>1771.160000000000082</ele>
        <time>2015-02-06T16:11:51Z</time>
      </trkpt>
      <trkpt lat="47.507913121953607" lon="11.143981833010912">
        <ele>1770.8900000000001</ele>
        <time>2015-02-06T16:11:54Z</time>
      </trkpt>
      <trkpt lat="47.507907506078482" lon="11.144080571830273">
        <ele>1768.470000000000027</ele>
        <time>2015-02-06T16:11:57Z</time>
      </trkpt>
      <trkpt lat="47.507890071719885" lon="11.144088702276349">
        <ele>1767.059999999999945</ele>
        <time>2015-02-06T16:11:58Z</time>
      </trkpt>
      <trkpt lat="47.50785662792623" lon="11.144097922369838">
        <ele>1765.480000000000018</ele>
        <time>2015-02-06T16:12:00Z</time>
      </trkpt>
      <trkpt lat="47.507842881605029" lon="11.144132204353809">
        <ele>1763.819999999999936</ele>
        <time>2015-02-06T16:12:01Z</time>
      </trkpt>
      <trkpt lat="47.507837936282158" lon="11.144160367548466">
        <ele>1763.339999999999918</ele>
        <time>2015-02-06T16:12:02Z</time>
      </trkpt>
      <trkpt lat="47.507834583520889" lon="11.144188614562154">
        <ele>1763.210000000000036</ele>
        <time>2015-02-06T16:12:03Z</time>
      </trkpt>
      <trkpt lat="47.507822094485164" lon="11.144221220165491">
        <ele>1760.930000000000064</ele>
        <time>2015-02-06T16:12:04Z</time>
      </trkpt>
      <trkpt lat="47.507798122242093" lon="11.144234798848629">
        <ele>1758.539999999999964</ele>
        <time>2015-02-06T16:12:05Z</time>
      </trkpt>
      <trkpt lat="47.507776999846101" lon="11.144231026992202">
        <ele>1758.5</ele>
        <time>2015-02-06T16:12:07Z</time>
      </trkpt>
      <trkpt lat="47.507754033431411" lon="11.144260112196207">
        <ele>1757.700000000000045</ele>
        <time>2015-02-06T16:12:09Z</time>
      </trkpt>
      <trkpt lat="47.507756296545267" lon="11.144298920407891">
        <ele>1756.950000000000045</ele>
        <time>2015-02-06T16:12:10Z</time>
      </trkpt>
      <trkpt lat="47.507763588801026" lon="11.144334711134434">
        <ele>1756.460000000000036</ele>
        <time>2015-02-06T16:12:11Z</time>
      </trkpt>
      <trkpt lat="47.507754536345601" lon="11.14436773583293">
        <ele>1755.339999999999918</ele>
        <time>2015-02-06T16:12:12Z</time>
      </trkpt>
      <trkpt lat="47.507732324302197" lon="11.144398581236601">
        <ele>1754.75</ele>
        <time>2015-02-06T16:12:13Z</time>
      </trkpt>
      <trkpt lat="47.507708603516221" lon="11.144481310620904">
        <ele>1752.039999999999964</ele>
        <time>2015-02-06T16:12:15Z</time>
      </trkpt>
      <trkpt lat="47.507688486948609" lon="11.144505199044943">
        <ele>1750.309999999999945</ele>
        <time>2015-02-06T16:12:16Z</time>
      </trkpt>
      <trkpt lat="47.507664933800697" lon="11.144519280642271">
        <ele>1749.6099999999999</ele>
        <time>2015-02-06T16:12:17Z</time>
      </trkpt>
      <trkpt lat="47.507642386481166" lon="11.144549287855625">
        <ele>1749.910000000000082</ele>
        <time>2015-02-06T16:12:18Z</time>
      </trkpt>
      <trkpt lat="47.507614558562636" lon="11.144570913165808">
        <ele>1748.509999999999991</ele>
        <time>2015-02-06T16:12:19Z</time>
      </trkpt>
      <trkpt lat="47.507588323205709" lon="11.144591029733419">
        <ele>1747.660000000000082</ele>
        <time>2015-02-06T16:12:20Z</time>
      </trkpt>
      <trkpt lat="47.50757222995162" lon="11.144630508497357">
        <ele>1747.529999999999973</ele>
        <time>2015-02-06T16:12:21Z</time>
      </trkpt>
      <trkpt lat="47.507554879412055" lon="11.144667221233249">
        <ele>1747.410000000000082</ele>
        <time>2015-02-06T16:12:22Z</time>
      </trkpt>
      <trkpt lat="47.507532080635428" lon="11.144692618399858">
        <ele>1746.089999999999918</ele>
        <time>2015-02-06T16:12:23Z</time>
      </trkpt>
      <trkpt lat="47.507510958239436" lon="11.144716674461961">
        <ele>1746.599999999999909</ele>
        <time>2015-02-06T16:12:24Z</time>
      </trkpt>
      <trkpt lat="47.507496541365981" lon="11.144750621169806">
        <ele>1746.559999999999945</ele>
        <time>2015-02-06T16:12:25Z</time>
      </trkpt>
      <trkpt lat="47.507487488910556" lon="11.144782556220889">
        <ele>1745.569999999999936</ele>
        <time>2015-02-06T16:12:26Z</time>
      </trkpt>
      <trkpt lat="47.507476424798369" lon="11.144810300320387">
        <ele>1745.619999999999891</ele>
        <time>2015-02-06T16:12:27Z</time>
      </trkpt>
      <trkpt lat="47.507466031238437" lon="11.144832680001855">
        <ele>1746.369999999999891</ele>
        <time>2015-02-06T16:12:28Z</time>
      </trkpt>
      <trkpt lat="47.507447171956301" lon="11.144874840974808">
        <ele>1745.680000000000064</ele>
        <time>2015-02-06T16:12:40Z</time>
      </trkpt>
      <trkpt lat="47.507413644343615" lon="11.144860172644258">
        <ele>1745.450000000000045</ele>
        <time>2015-02-06T16:12:49Z</time>
      </trkpt>
      <trkpt lat="47.507401742041111" lon="11.144855646416545">
        <ele>1745.210000000000036</ele>
        <time>2015-02-06T16:12:50Z</time>
      </trkpt>
      <trkpt lat="47.507386738434434" lon="11.144850868731737">
        <ele>1745.019999999999982</ele>
        <time>2015-02-06T16:12:51Z</time>
      </trkpt>
      <trkpt lat="47.507368884980679" lon="11.144852796569467">
        <ele>1744.670000000000073</ele>
        <time>2015-02-06T16:12:52Z</time>
      </trkpt>
      <trkpt lat="47.507353629916906" lon="11.14486369304359">
        <ele>1744.900000000000091</ele>
        <time>2015-02-06T16:12:53Z</time>
      </trkpt>
      <trkpt lat="47.50734063796699" lon="11.14488230086863">
        <ele>1744.509999999999991</ele>
        <time>2015-02-06T16:12:54Z</time>
      </trkpt>
      <trkpt lat="47.507241144776344" lon="11.145016076043248">
        <ele>1742.119999999999891</ele>
        <time>2015-02-06T16:12:59Z</time>
      </trkpt>
      <trkpt lat="47.507213987410069" lon="11.145061338320374">
        <ele>1741.509999999999991</ele>
        <time>2015-02-06T16:13:00Z</time>
      </trkpt>
      <trkpt lat="47.507187500596046" lon="11.145113306120038">
        <ele>1741.349999999999909</ele>
        <time>2015-02-06T16:13:01Z</time>
      </trkpt>
      <trkpt lat="47.507035788148642" lon="11.145403990522027">
        <ele>1737.430000000000064</ele>
        <time>2015-02-06T16:13:06Z</time>
      </trkpt>
      <trkpt lat="47.507004607468843" lon="11.145467609167099">
        <ele>1737.019999999999982</ele>
        <time>2015-02-06T16:13:07Z</time>
      </trkpt>
      <trkpt lat="47.506987592205405" lon="11.145511949434876">
        <ele>1735.539999999999964</ele>
        <time>2015-02-06T16:13:08Z</time>
      </trkpt>
      <trkpt lat="47.506983820348978" lon="11.145522762089968">
        <ele>1734.920000000000073</ele>
        <time>2015-02-06T16:13:17Z</time>
      </trkpt>
      <trkpt lat="47.506976360455155" lon="11.145534412935376">
        <ele>1734.490000000000009</ele>
        <time>2015-02-06T16:13:18Z</time>
      </trkpt>
      <trkpt lat="47.506935205310583" lon="11.145607586950064">
        <ele>1734.130000000000109</ele>
        <time>2015-02-06T16:13:21Z</time>
      </trkpt>
      <trkpt lat="47.506711576133966" lon="11.146034644916654">
        <ele>1730.490000000000009</ele>
        <time>2015-02-06T16:13:29Z</time>
      </trkpt>
      <trkpt lat="47.506602192297578" lon="11.146216616034508">
        <ele>1728.230000000000018</ele>
        <time>2015-02-06T16:13:32Z</time>
      </trkpt>
      <trkpt lat="47.50643614679575" lon="11.14644443616271">
        <ele>1724.799999999999955</ele>
        <time>2015-02-06T16:13:36Z</time>
      </trkpt>
      <trkpt lat="47.506226263940334" lon="11.146721625700593">
        <ele>1721.759999999999991</ele>
        <time>2015-02-06T16:13:41Z</time>
      </trkpt>
      <trkpt lat="47.506058290600777" lon="11.146938465535641">
        <ele>1718.430000000000064</ele>
        <time>2015-02-06T16:13:45Z</time>
      </trkpt>
      <trkpt lat="47.505938932299614" lon="11.147121358662844">
        <ele>1716.740000000000009</ele>
        <time>2015-02-06T16:13:48Z</time>
      </trkpt>
      <trkpt lat="47.50590599142015" lon="11.14719302393496">
        <ele>1715.690000000000055</ele>
        <time>2015-02-06T16:13:49Z</time>
      </trkpt>
      <trkpt lat="47.505879001691937" lon="11.147267203778028">
        <ele>1715.269999999999982</ele>
        <time>2015-02-06T16:13:50Z</time>
      </trkpt>
      <trkpt lat="47.505698204040527" lon="11.147904563695192">
        <ele>1711.200000000000045</ele>
        <time>2015-02-06T16:14:01Z</time>
      </trkpt>
      <trkpt lat="47.505678925663233" lon="11.147965164855123">
        <ele>1711.210000000000036</ele>
        <time>2015-02-06T16:14:02Z</time>
      </trkpt>
      <trkpt lat="47.505583539605141" lon="11.148279067128897">
        <ele>1708.539999999999964</ele>
        <time>2015-02-06T16:14:07Z</time>
      </trkpt>
      <trkpt lat="47.505503073334694" lon="11.148548210039735">
        <ele>1705.490000000000009</ele>
        <time>2015-02-06T16:14:11Z</time>
      </trkpt>
      <trkpt lat="47.505463678389788" lon="11.148681398481131">
        <ele>1704.730000000000018</ele>
        <time>2015-02-06T16:14:13Z</time>
      </trkpt>
      <trkpt lat="47.505428390577435" lon="11.148813245818019">
        <ele>1703.599999999999909</ele>
        <time>2015-02-06T16:14:15Z</time>
      </trkpt>
      <trkpt lat="47.505392013117671" lon="11.14893838763237">
        <ele>1702.559999999999945</ele>
        <time>2015-02-06T16:14:17Z</time>
      </trkpt>
      <trkpt lat="47.505333004519343" lon="11.14943434484303">
        <ele>1700.5</ele>
        <time>2015-02-06T16:14:28Z</time>
      </trkpt>
      <trkpt lat="47.505335183814168" lon="11.149464519694448">
        <ele>1700.230000000000018</ele>
        <time>2015-02-06T16:14:29Z</time>
      </trkpt>
      <trkpt lat="47.505388241261244" lon="11.149813709780574">
        <ele>1696.8599999999999</ele>
        <time>2015-02-06T16:14:38Z</time>
      </trkpt>
      <trkpt lat="47.505415817722678" lon="11.150196259841323">
        <ele>1693.380000000000109</ele>
        <time>2015-02-06T16:14:46Z</time>
      </trkpt>
      <trkpt lat="47.505411459133029" lon="11.150392647832632">
        <ele>1691.400000000000091</ele>
        <time>2015-02-06T16:14:50Z</time>
      </trkpt>
      <trkpt lat="47.505417997017503" lon="11.150441262871027">
        <ele>1690.119999999999891</ele>
        <time>2015-02-06T16:14:51Z</time>
      </trkpt>
      <trkpt lat="47.505416236817837" lon="11.150530781596899">
        <ele>1688.019999999999982</ele>
        <time>2015-02-06T16:14:53Z</time>
      </trkpt>
      <trkpt lat="47.505388827994466" lon="11.150569841265678">
        <ele>1686.819999999999936</ele>
        <time>2015-02-06T16:14:54Z</time>
      </trkpt>
      <trkpt lat="47.505368376150727" lon="11.150616779923439">
        <ele>1685.400000000000091</ele>
        <time>2015-02-06T16:14:55Z</time>
      </trkpt>
      <trkpt lat="47.505367789417505" lon="11.150682577863336">
        <ele>1684.8599999999999</ele>
        <time>2015-02-06T16:14:56Z</time>
      </trkpt>
      <trkpt lat="47.505360664799809" lon="11.150748375803232">
        <ele>1683.299999999999955</ele>
        <time>2015-02-06T16:14:57Z</time>
      </trkpt>
      <trkpt lat="47.505337279289961" lon="11.150808557868004">
        <ele>1681.269999999999982</ele>
        <time>2015-02-06T16:14:58Z</time>
      </trkpt>
      <trkpt lat="47.505318755283952" lon="11.150874104350805">
        <ele>1680.769999999999982</ele>
        <time>2015-02-06T16:14:59Z</time>
      </trkpt>
      <trkpt lat="47.505309619009495" lon="11.150946356356144">
        <ele>1679.730000000000018</ele>
        <time>2015-02-06T16:15:00Z</time>
      </trkpt>
      <trkpt lat="47.505287239328027" lon="11.151013830676675">
        <ele>1678.519999999999982</ele>
        <time>2015-02-06T16:15:01Z</time>
      </trkpt>
      <trkpt lat="47.505262596532702" lon="11.151083735749125">
        <ele>1677.690000000000055</ele>
        <time>2015-02-06T16:15:02Z</time>
      </trkpt>
      <trkpt lat="47.505250694230199" lon="11.151157580316067">
        <ele>1676.329999999999927</ele>
        <time>2015-02-06T16:15:03Z</time>
      </trkpt>
      <trkpt lat="47.5052351038903" lon="11.151222120970488">
        <ele>1674.049999999999955</ele>
        <time>2015-02-06T16:15:04Z</time>
      </trkpt>
      <trkpt lat="47.505211718380451" lon="11.151278363540769">
        <ele>1674.039999999999964</ele>
        <time>2015-02-06T16:15:05Z</time>
      </trkpt>
      <trkpt lat="47.505202665925026" lon="11.151335863396525">
        <ele>1672.980000000000018</ele>
        <time>2015-02-06T16:15:06Z</time>
      </trkpt>
      <trkpt lat="47.505195206031203" lon="11.151393111795187">
        <ele>1672.660000000000082</ele>
        <time>2015-02-06T16:15:07Z</time>
      </trkpt>
      <trkpt lat="47.505172407254577" lon="11.151446923613548">
        <ele>1671.339999999999918</ele>
        <time>2015-02-06T16:15:08Z</time>
      </trkpt>
      <trkpt lat="47.505149189382792" lon="11.151509704068303">
        <ele>1670.519999999999982</ele>
        <time>2015-02-06T16:15:09Z</time>
      </trkpt>
      <trkpt lat="47.505139717832208" lon="11.15158824250102">
        <ele>1670.210000000000036</ele>
        <time>2015-02-06T16:15:10Z</time>
      </trkpt>
      <trkpt lat="47.505132257938385" lon="11.151670720428228">
        <ele>1668.299999999999955</ele>
        <time>2015-02-06T16:15:11Z</time>
      </trkpt>
      <trkpt lat="47.505120355635881" lon="11.15175043232739">
        <ele>1667.920000000000073</ele>
        <time>2015-02-06T16:15:12Z</time>
      </trkpt>
      <trkpt lat="47.505101580172777" lon="11.151888985186815">
        <ele>1666.8900000000001</ele>
        <time>2015-02-06T16:15:14Z</time>
      </trkpt>
      <trkpt lat="47.50506704673171" lon="11.152470437809825">
        <ele>1663.8900000000001</ele>
        <time>2015-02-06T16:15:25Z</time>
      </trkpt>
      <trkpt lat="47.505067633464932" lon="11.152698760852218">
        <ele>1663.299999999999955</ele>
        <time>2015-02-06T16:15:37Z</time>
      </trkpt>
      <trkpt lat="47.505066627636552" lon="11.153064044192433">
        <ele>1663.319999999999936</ele>
        <time>2015-02-06T16:15:52Z</time>
      </trkpt>
      <trkpt lat="47.505047349259257" lon="11.153375264257193">
        <ele>1661.039999999999964</ele>
        <time>2015-02-06T16:16:00Z</time>
      </trkpt>
      <trkpt lat="47.505005020648241" lon="11.153724789619446">
        <ele>1658.559999999999945</ele>
        <time>2015-02-06T16:16:08Z</time>
      </trkpt>
      <trkpt lat="47.504937462508678" lon="11.154177915304899">
        <ele>1655.950000000000045</ele>
        <time>2015-02-06T16:16:16Z</time>
      </trkpt>
      <trkpt lat="47.504923716187477" lon="11.154519142583013">
        <ele>1653.259999999999991</ele>
        <time>2015-02-06T16:16:20Z</time>
      </trkpt>
      <trkpt lat="47.504935702309012" lon="11.154600949957967">
        <ele>1653.089999999999918</ele>
        <time>2015-02-06T16:16:21Z</time>
      </trkpt>
      <trkpt lat="47.50495464541018" lon="11.154677057638764">
        <ele>1652.980000000000018</ele>
        <time>2015-02-06T16:16:22Z</time>
      </trkpt>
      <trkpt lat="47.505009463056922" lon="11.154902363196015">
        <ele>1650.420000000000073</ele>
        <time>2015-02-06T16:16:25Z</time>
      </trkpt>
      <trkpt lat="47.505037626251578" lon="11.15497000515461">
        <ele>1649.1400000000001</ele>
        <time>2015-02-06T16:16:26Z</time>
      </trkpt>
      <trkpt lat="47.505071992054582" lon="11.155032366514206">
        <ele>1648</ele>
        <time>2015-02-06T16:16:27Z</time>
      </trkpt>
      <trkpt lat="47.505128402262926" lon="11.15515767596662">
        <ele>1646.470000000000027</ele>
        <time>2015-02-06T16:16:29Z</time>
      </trkpt>
      <trkpt lat="47.505164528265595" lon="11.155218444764614">
        <ele>1644.900000000000091</ele>
        <time>2015-02-06T16:16:30Z</time>
      </trkpt>
      <trkpt lat="47.505197133868933" lon="11.155287008732557">
        <ele>1644.630000000000109</ele>
        <time>2015-02-06T16:16:31Z</time>
      </trkpt>
      <trkpt lat="47.505226554349065" lon="11.155357751995325">
        <ele>1643.160000000000082</ele>
        <time>2015-02-06T16:16:32Z</time>
      </trkpt>
      <trkpt lat="47.505250778049231" lon="11.155428998172283">
        <ele>1642.549999999999955</ele>
        <time>2015-02-06T16:16:33Z</time>
      </trkpt>
      <trkpt lat="47.505270726978779" lon="11.155500998720527">
        <ele>1641.420000000000073</ele>
        <time>2015-02-06T16:16:34Z</time>
      </trkpt>
      <trkpt lat="47.505288328975439" lon="11.155578531324863">
        <ele>1641.1400000000001</ele>
        <time>2015-02-06T16:16:35Z</time>
      </trkpt>
      <trkpt lat="47.505348762497306" lon="11.155871395021677">
        <ele>1638.960000000000036</ele>
        <time>2015-02-06T16:16:39Z</time>
      </trkpt>
      <trkpt lat="47.505361838266253" lon="11.155984634533525">
        <ele>1637.700000000000045</ele>
        <time>2015-02-06T16:16:41Z</time>
      </trkpt>
      <trkpt lat="47.505372818559408" lon="11.156256627291441">
        <ele>1635.339999999999918</ele>
        <time>2015-02-06T16:16:47Z</time>
      </trkpt>
      <trkpt lat="47.505372483283281" lon="11.156344721093774">
        <ele>1633.869999999999891</ele>
        <time>2015-02-06T16:16:50Z</time>
      </trkpt>
      <trkpt lat="47.505408441647887" lon="11.156351426616311">
        <ele>1633.720000000000027</ele>
        <time>2015-02-06T16:16:55Z</time>
      </trkpt>
      <trkpt lat="47.50545596703887" lon="11.156305829063058">
        <ele>1631.720000000000027</ele>
        <time>2015-02-06T16:16:57Z</time>
      </trkpt>
      <trkpt lat="47.505538109689951" lon="11.156288059428334">
        <ele>1627.779999999999973</ele>
        <time>2015-02-06T16:16:59Z</time>
      </trkpt>
      <trkpt lat="47.505583539605141" lon="11.156255789101124">
        <ele>1625.839999999999918</ele>
        <time>2015-02-06T16:17:00Z</time>
      </trkpt>
      <trkpt lat="47.505636932328343" lon="11.156250508502126">
        <ele>1623.869999999999891</ele>
        <time>2015-02-06T16:17:01Z</time>
      </trkpt>
      <trkpt lat="47.505683787167072" lon="11.156229386106133">
        <ele>1622.819999999999936</ele>
        <time>2015-02-06T16:17:02Z</time>
      </trkpt>
      <trkpt lat="47.50572519376874" lon="11.15619208663702">
        <ele>1621.079999999999927</ele>
        <time>2015-02-06T16:17:03Z</time>
      </trkpt>
      <trkpt lat="47.505773138254881" lon="11.156182447448373">
        <ele>1620.440000000000055</ele>
        <time>2015-02-06T16:17:04Z</time>
      </trkpt>
      <trkpt lat="47.505826111882925" lon="11.156168449670076">
        <ele>1616.8900000000001</ele>
        <time>2015-02-06T16:17:05Z</time>
      </trkpt>
      <trkpt lat="47.505868775770068" lon="11.156121343374252">
        <ele>1615.279999999999973</ele>
        <time>2015-02-06T16:17:06Z</time>
      </trkpt>
      <trkpt lat="47.50591236166656" lon="11.156087480485439">
        <ele>1614.490000000000009</ele>
        <time>2015-02-06T16:17:07Z</time>
      </trkpt>
      <trkpt lat="47.505968268960714" lon="11.156075075268745">
        <ele>1612.740000000000009</ele>
        <time>2015-02-06T16:17:08Z</time>
      </trkpt>
      <trkpt lat="47.506013279780746" lon="11.156035261228681">
        <ele>1610.420000000000073</ele>
        <time>2015-02-06T16:17:09Z</time>
      </trkpt>
      <trkpt lat="47.506044460460544" lon="11.155980778858066">
        <ele>1610.210000000000036</ele>
        <time>2015-02-06T16:17:10Z</time>
      </trkpt>
      <trkpt lat="47.506079748272896" lon="11.155958566814661">
        <ele>1607.3900000000001</ele>
        <time>2015-02-06T16:17:11Z</time>
      </trkpt>
      <trkpt lat="47.506154682487249" lon="11.155996369197965">
        <ele>1603.539999999999964</ele>
        <time>2015-02-06T16:17:13Z</time>
      </trkpt>
      <trkpt lat="47.506178319454193" lon="11.155981197953224">
        <ele>1601.950000000000045</ele>
        <time>2015-02-06T16:17:14Z</time>
      </trkpt>
      <trkpt lat="47.506179492920637" lon="11.155967954546213">
        <ele>1601.130000000000109</ele>
        <time>2015-02-06T16:17:16Z</time>
      </trkpt>
      <trkpt lat="47.506190054118633" lon="11.155957812443376">
        <ele>1601.990000000000009</ele>
        <time>2015-02-06T16:17:27Z</time>
      </trkpt>
      <trkpt lat="47.506205812096596" lon="11.155936606228352">
        <ele>1601.089999999999918</ele>
        <time>2015-02-06T16:17:28Z</time>
      </trkpt>
      <trkpt lat="47.506240094080567" lon="11.155878603458405">
        <ele>1600.3900000000001</ele>
        <time>2015-02-06T16:17:30Z</time>
      </trkpt>
      <trkpt lat="47.506269095465541" lon="11.155869970098138">
        <ele>1598.660000000000082</ele>
        <time>2015-02-06T16:17:31Z</time>
      </trkpt>
      <trkpt lat="47.506297761574388" lon="11.155890505760908">
        <ele>1597.019999999999982</ele>
        <time>2015-02-06T16:17:32Z</time>
      </trkpt>
      <trkpt lat="47.506326930597425" lon="11.155908023938537">
        <ele>1596.339999999999918</ele>
        <time>2015-02-06T16:17:33Z</time>
      </trkpt>
      <trkpt lat="47.506354339420795" lon="11.155889080837369">
        <ele>1594.529999999999973</ele>
        <time>2015-02-06T16:17:34Z</time>
      </trkpt>
      <trkpt lat="47.506381664425135" lon="11.155849099159241">
        <ele>1591.869999999999891</ele>
        <time>2015-02-06T16:17:35Z</time>
      </trkpt>
      <trkpt lat="47.506415611132979" lon="11.155847003683448">
        <ele>1590.6099999999999</ele>
        <time>2015-02-06T16:17:36Z</time>
      </trkpt>
      <trkpt lat="47.506451485678554" lon="11.155864521861076">
        <ele>1589.900000000000091</ele>
        <time>2015-02-06T16:17:37Z</time>
      </trkpt>
      <trkpt lat="47.506482163444161" lon="11.155847338959575">
        <ele>1587.160000000000082</ele>
        <time>2015-02-06T16:17:38Z</time>
      </trkpt>
      <trkpt lat="47.506518289446831" lon="11.15581875666976">
        <ele>1585.910000000000082</ele>
        <time>2015-02-06T16:17:39Z</time>
      </trkpt>
      <trkpt lat="47.506590289995074" lon="11.15586519241333">
        <ele>1581.759999999999991</ele>
        <time>2015-02-06T16:17:41Z</time>
      </trkpt>
      <trkpt lat="47.506616525352001" lon="11.155881453305483">
        <ele>1579.3599999999999</ele>
        <time>2015-02-06T16:17:42Z</time>
      </trkpt>
      <trkpt lat="47.50664577819407" lon="11.155862510204315">
        <ele>1579.3900000000001</ele>
        <time>2015-02-06T16:17:43Z</time>
      </trkpt>
      <trkpt lat="47.506677294149995" lon="11.155867371708155">
        <ele>1576.6400000000001</ele>
        <time>2015-02-06T16:17:44Z</time>
      </trkpt>
      <trkpt lat="47.506709732115269" lon="11.155877178534865">
        <ele>1576.319999999999936</ele>
        <time>2015-02-06T16:17:45Z</time>
      </trkpt>
      <trkpt lat="47.506739320233464" lon="11.155860582366586">
        <ele>1574.190000000000055</ele>
        <time>2015-02-06T16:17:46Z</time>
      </trkpt>
      <trkpt lat="47.506772428750992" lon="11.155849266797304">
        <ele>1572.980000000000018</ele>
        <time>2015-02-06T16:17:47Z</time>
      </trkpt>
      <trkpt lat="47.506805621087551" lon="11.155881872400641">
        <ele>1570.619999999999891</ele>
        <time>2015-02-06T16:17:48Z</time>
      </trkpt>
      <trkpt lat="47.506827749311924" lon="11.155926631763577">
        <ele>1570.039999999999964</ele>
        <time>2015-02-06T16:17:49Z</time>
      </trkpt>
      <trkpt lat="47.506874185055494" lon="11.155908443033695">
        <ele>1567.210000000000036</ele>
        <time>2015-02-06T16:17:51Z</time>
      </trkpt>
      <trkpt lat="47.50690620392561" lon="11.15590869449079">
        <ele>1565.210000000000036</ele>
        <time>2015-02-06T16:17:52Z</time>
      </trkpt>
      <trkpt lat="47.506931517273188" lon="11.155943730846047">
        <ele>1564.049999999999955</ele>
        <time>2015-02-06T16:17:53Z</time>
      </trkpt>
      <trkpt lat="47.506954902783036" lon="11.155991842970252">
        <ele>1563.440000000000055</ele>
        <time>2015-02-06T16:17:54Z</time>
      </trkpt>
      <trkpt lat="47.506992034614086" lon="11.156025035306811">
        <ele>1560.599999999999909</ele>
        <time>2015-02-06T16:17:55Z</time>
      </trkpt>
      <trkpt lat="47.507032519206405" lon="11.156017994508147">
        <ele>1558.880000000000109</ele>
        <time>2015-02-06T16:17:56Z</time>
      </trkpt>
      <trkpt lat="47.507071914151311" lon="11.156004834920168">
        <ele>1555.549999999999955</ele>
        <time>2015-02-06T16:17:57Z</time>
      </trkpt>
      <trkpt lat="47.507106447592378" lon="11.156026879325509">
        <ele>1554.779999999999973</ele>
        <time>2015-02-06T16:17:58Z</time>
      </trkpt>
      <trkpt lat="47.507136706262827" lon="11.156049342826009">
        <ele>1553.069999999999936</ele>
        <time>2015-02-06T16:17:59Z</time>
      </trkpt>
      <trkpt lat="47.507166042923927" lon="11.15603375248611">
        <ele>1550.910000000000082</ele>
        <time>2015-02-06T16:18:00Z</time>
      </trkpt>
      <trkpt lat="47.507195379585028" lon="11.156013887375593">
        <ele>1549.769999999999982</ele>
        <time>2015-02-06T16:18:01Z</time>
      </trkpt>
      <trkpt lat="47.507266122847795" lon="11.156051438301802">
        <ele>1547.009999999999991</ele>
        <time>2015-02-06T16:18:03Z</time>
      </trkpt>
      <trkpt lat="47.507293447852135" lon="11.156046995893121">
        <ele>1545.789999999999964</ele>
        <time>2015-02-06T16:18:04Z</time>
      </trkpt>
      <trkpt lat="47.507318928837776" lon="11.156037943437696">
        <ele>1544.849999999999909</ele>
        <time>2015-02-06T16:18:05Z</time>
      </trkpt>
      <trkpt lat="47.507343236356974" lon="11.156060323119164">
        <ele>1543.480000000000018</ele>
        <time>2015-02-06T16:18:06Z</time>
      </trkpt>
      <trkpt lat="47.50736502930522" lon="11.15608504973352">
        <ele>1542.650000000000091</ele>
        <time>2015-02-06T16:18:07Z</time>
      </trkpt>
      <trkpt lat="47.5073919352144" lon="11.156077003106475">
        <ele>1540.990000000000009</ele>
        <time>2015-02-06T16:18:08Z</time>
      </trkpt>
      <trkpt lat="47.50742806121707" lon="11.156057137995958">
        <ele>1540.029999999999973</ele>
        <time>2015-02-06T16:18:09Z</time>
      </trkpt>
      <trkpt lat="47.507460583001375" lon="11.156063675880432">
        <ele>1537.869999999999891</ele>
        <time>2015-02-06T16:18:10Z</time>
      </trkpt>
      <trkpt lat="47.507478604093194" lon="11.156091503798962">
        <ele>1535.819999999999936</ele>
        <time>2015-02-06T16:18:11Z</time>
      </trkpt>
      <trkpt lat="47.507491847500205" lon="11.156121008098125">
        <ele>1535.450000000000045</ele>
        <time>2015-02-06T16:18:12Z</time>
      </trkpt>
      <trkpt lat="47.507501067593694" lon="11.15613978356123">
        <ele>1534.799999999999955</ele>
        <time>2015-02-06T16:18:19Z</time>
      </trkpt>
      <trkpt lat="47.507548090070486" lon="11.156178591772914">
        <ele>1531.220000000000027</ele>
        <time>2015-02-06T16:18:22Z</time>
      </trkpt>
      <trkpt lat="47.507567703723907" lon="11.156143806874752">
        <ele>1531.039999999999964</ele>
        <time>2015-02-06T16:18:23Z</time>
      </trkpt>
      <trkpt lat="47.507596956565976" lon="11.156123019754887">
        <ele>1530.079999999999927</ele>
        <time>2015-02-06T16:18:24Z</time>
      </trkpt>
      <trkpt lat="47.507625622674823" lon="11.15614078938961">
        <ele>1527.430000000000064</ele>
        <time>2015-02-06T16:18:25Z</time>
      </trkpt>
      <trkpt lat="47.507640710100532" lon="11.15617691539228">
        <ele>1525.990000000000009</ele>
        <time>2015-02-06T16:18:26Z</time>
      </trkpt>
      <trkpt lat="47.507659317925572" lon="11.156204324215651">
        <ele>1524.8900000000001</ele>
        <time>2015-02-06T16:18:27Z</time>
      </trkpt>
      <trkpt lat="47.507682451978326" lon="11.156191918998957">
        <ele>1523.720000000000027</ele>
        <time>2015-02-06T16:18:28Z</time>
      </trkpt>
      <trkpt lat="47.507702233269811" lon="11.156160403043032">
        <ele>1522.269999999999982</ele>
        <time>2015-02-06T16:18:29Z</time>
      </trkpt>
      <trkpt lat="47.507727798074484" lon="11.156153613701463">
        <ele>1520.539999999999964</ele>
        <time>2015-02-06T16:18:30Z</time>
      </trkpt>
      <trkpt lat="47.507760236039758" lon="11.156171383336186">
        <ele>1519.700000000000045</ele>
        <time>2015-02-06T16:18:31Z</time>
      </trkpt>
      <trkpt lat="47.50778085552156" lon="11.15617255680263">
        <ele>1517.130000000000109</ele>
        <time>2015-02-06T16:18:32Z</time>
      </trkpt>
      <trkpt lat="47.507792590186" lon="11.156158139929175">
        <ele>1516.490000000000009</ele>
        <time>2015-02-06T16:18:33Z</time>
      </trkpt>
      <trkpt lat="47.507804157212377" lon="11.156134167686105">
        <ele>1516.5</ele>
        <time>2015-02-06T16:18:43Z</time>
      </trkpt>
      <trkpt lat="47.50783215276897" lon="11.156100304797292">
        <ele>1514.950000000000045</ele>
        <time>2015-02-06T16:18:45Z</time>
      </trkpt>
      <trkpt lat="47.507856208831072" lon="11.156104244291782">
        <ele>1514.690000000000055</ele>
        <time>2015-02-06T16:18:46Z</time>
      </trkpt>
      <trkpt lat="47.507878420874476" lon="11.156098460778594">
        <ele>1512.8900000000001</ele>
        <time>2015-02-06T16:18:47Z</time>
      </trkpt>
      <trkpt lat="47.507892586290836" lon="11.156074656173587">
        <ele>1511.920000000000073</ele>
        <time>2015-02-06T16:18:48Z</time>
      </trkpt>
      <trkpt lat="47.507911110296845" lon="11.156056467443705">
        <ele>1511.150000000000091</ele>
        <time>2015-02-06T16:18:49Z</time>
      </trkpt>
      <trkpt lat="47.507965676486492" lon="11.156102232635021">
        <ele>1507.480000000000018</ele>
        <time>2015-02-06T16:18:52Z</time>
      </trkpt>
      <trkpt lat="47.508049244061112" lon="11.156111201271415">
        <ele>1502.660000000000082</ele>
        <time>2015-02-06T16:18:55Z</time>
      </trkpt>
      <trkpt lat="47.508098445832729" lon="11.156127881258726">
        <ele>1498.009999999999991</ele>
        <time>2015-02-06T16:18:57Z</time>
      </trkpt>
      <trkpt lat="47.508121496066451" lon="11.156096868216991">
        <ele>1498.299999999999955</ele>
        <time>2015-02-06T16:18:58Z</time>
      </trkpt>
      <trkpt lat="47.508162651211023" lon="11.156105333939195">
        <ele>1494.700000000000045</ele>
        <time>2015-02-06T16:19:00Z</time>
      </trkpt>
      <trkpt lat="47.50826021656394" lon="11.156093683093786">
        <ele>1490.259999999999991</ele>
        <time>2015-02-06T16:19:04Z</time>
      </trkpt>
      <trkpt lat="47.508296929299831" lon="11.15612025372684">
        <ele>1488.150000000000091</ele>
        <time>2015-02-06T16:19:05Z</time>
      </trkpt>
      <trkpt lat="47.508325930684805" lon="11.156137436628342">
        <ele>1486.5</ele>
        <time>2015-02-06T16:19:06Z</time>
      </trkpt>
      <trkpt lat="47.508352417498827" lon="11.15612511523068">
        <ele>1486.039999999999964</ele>
        <time>2015-02-06T16:19:07Z</time>
      </trkpt>
      <trkpt lat="47.50837697647512" lon="11.15614028647542">
        <ele>1484.619999999999891</ele>
        <time>2015-02-06T16:19:08Z</time>
      </trkpt>
      <trkpt lat="47.508393991738558" lon="11.156184794381261">
        <ele>1484.349999999999909</ele>
        <time>2015-02-06T16:19:09Z</time>
      </trkpt>
      <trkpt lat="47.508415784686804" lon="11.156208598986268">
        <ele>1483.029999999999973</ele>
        <time>2015-02-06T16:19:10Z</time>
      </trkpt>
      <trkpt lat="47.508449396118522" lon="11.156208347529173">
        <ele>1480.700000000000045</ele>
        <time>2015-02-06T16:19:11Z</time>
      </trkpt>
      <trkpt lat="47.508481414988637" lon="11.156235923990607">
        <ele>1479.730000000000018</ele>
        <time>2015-02-06T16:19:12Z</time>
      </trkpt>
      <trkpt lat="47.508508572354913" lon="11.156255872920156">
        <ele>1477.740000000000009</ele>
        <time>2015-02-06T16:19:13Z</time>
      </trkpt>
      <trkpt lat="47.508537909016013" lon="11.156248413026333">
        <ele>1477.059999999999945</ele>
        <time>2015-02-06T16:19:14Z</time>
      </trkpt>
      <trkpt lat="47.508566742762923" lon="11.156262075528502">
        <ele>1475.059999999999945</ele>
        <time>2015-02-06T16:19:15Z</time>
      </trkpt>
      <trkpt lat="47.508590463548899" lon="11.156283533200622">
        <ele>1473.8599999999999</ele>
        <time>2015-02-06T16:19:16Z</time>
      </trkpt>
      <trkpt lat="47.508612591773272" lon="11.156276240944862">
        <ele>1472.25</ele>
        <time>2015-02-06T16:19:17Z</time>
      </trkpt>
      <trkpt lat="47.508642012253404" lon="11.156251011416316">
        <ele>1471.3900000000001</ele>
        <time>2015-02-06T16:19:18Z</time>
      </trkpt>
      <trkpt lat="47.508675204589963" lon="11.156255956739187">
        <ele>1469.039999999999964</ele>
        <time>2015-02-06T16:19:19Z</time>
      </trkpt>
      <trkpt lat="47.508729351684451" lon="11.15628881379962">
        <ele>1466.799999999999955</ele>
        <time>2015-02-06T16:19:21Z</time>
      </trkpt>
      <trkpt lat="47.508758436888456" lon="11.156278755515814">
        <ele>1466.170000000000073</ele>
        <time>2015-02-06T16:19:22Z</time>
      </trkpt>
      <trkpt lat="47.508805291727185" lon="11.156328292563558">
        <ele>1462.6400000000001</ele>
        <time>2015-02-06T16:19:24Z</time>
      </trkpt>
      <trkpt lat="47.508803028613329" lon="11.156360981985927">
        <ele>1462.019999999999982</ele>
        <time>2015-02-06T16:19:26Z</time>
      </trkpt>
      <trkpt lat="47.508828341960907" lon="11.156391156837344">
        <ele>1461.789999999999964</ele>
        <time>2015-02-06T16:19:30Z</time>
      </trkpt>
      <trkpt lat="47.508879890665412" lon="11.156430300325155">
        <ele>1460.579999999999927</ele>
        <time>2015-02-06T16:19:32Z</time>
      </trkpt>
      <trkpt lat="47.508922554552555" lon="11.1564608104527">
        <ele>1458.740000000000009</ele>
        <time>2015-02-06T16:19:33Z</time>
      </trkpt>
      <trkpt lat="47.508951472118497" lon="11.156513281166553">
        <ele>1457.430000000000064</ele>
        <time>2015-02-06T16:19:34Z</time>
      </trkpt>
      <trkpt lat="47.508964547887444" lon="11.156571451574564">
        <ele>1456.809999999999945</ele>
        <time>2015-02-06T16:19:35Z</time>
      </trkpt>
      <trkpt lat="47.5089824013412" lon="11.156626688316464">
        <ele>1456.6400000000001</ele>
        <time>2015-02-06T16:19:36Z</time>
      </trkpt>
      <trkpt lat="47.50901659950614" lon="11.156666586175561">
        <ele>1454.829999999999927</ele>
        <time>2015-02-06T16:19:37Z</time>
      </trkpt>
      <trkpt lat="47.509057000279427" lon="11.156684020534158">
        <ele>1454</ele>
        <time>2015-02-06T16:19:38Z</time>
      </trkpt>
      <trkpt lat="47.509088348597288" lon="11.156713860109448">
        <ele>1452.490000000000009</ele>
        <time>2015-02-06T16:19:39Z</time>
      </trkpt>
      <trkpt lat="47.509092791005969" lon="11.15675107575953">
        <ele>1450.900000000000091</ele>
        <time>2015-02-06T16:19:40Z</time>
      </trkpt>
      <trkpt lat="47.509084492921829" lon="11.156773120164871">
        <ele>1450.670000000000073</ele>
        <time>2015-02-06T16:19:41Z</time>
      </trkpt>
      <trkpt lat="47.509084073826671" lon="11.156794242560863">
        <ele>1450.240000000000009</ele>
        <time>2015-02-06T16:19:42Z</time>
      </trkpt>
      <trkpt lat="47.509103855118155" lon="11.157014686614275">
        <ele>1446.990000000000009</ele>
        <time>2015-02-06T16:19:47Z</time>
      </trkpt>
      <trkpt lat="47.509087678045034" lon="11.157082580029964">
        <ele>1443.980000000000018</ele>
        <time>2015-02-06T16:19:49Z</time>
      </trkpt>
      <trkpt lat="47.509083235636353" lon="11.157084172591567">
        <ele>1443.829999999999927</ele>
        <time>2015-02-06T16:19:50Z</time>
      </trkpt>
      <trkpt lat="47.50909379683435" lon="11.157091129571199">
        <ele>1443.569999999999936</ele>
        <time>2015-02-06T16:19:53Z</time>
      </trkpt>
      <trkpt lat="47.509140986949205" lon="11.157196322456002">
        <ele>1440.25</ele>
        <time>2015-02-06T16:19:57Z</time>
      </trkpt>
      <trkpt lat="47.509165043011308" lon="11.157334875315428">
        <ele>1435.980000000000018</ele>
        <time>2015-02-06T16:20:01Z</time>
      </trkpt>
      <trkpt lat="47.509184908121824" lon="11.157329929992557">
        <ele>1435.720000000000027</ele>
        <time>2015-02-06T16:20:02Z</time>
      </trkpt>
      <trkpt lat="47.509238217025995" lon="11.15735792554915">
        <ele>1432.089999999999918</ele>
        <time>2015-02-06T16:20:05Z</time>
      </trkpt>
      <trkpt lat="47.509223632514477" lon="11.157402601093054">
        <ele>1430.799999999999955</ele>
        <time>2015-02-06T16:20:07Z</time>
      </trkpt>
      <trkpt lat="47.509233774617314" lon="11.15747669711709">
        <ele>1429.490000000000009</ele>
        <time>2015-02-06T16:20:10Z</time>
      </trkpt>
      <trkpt lat="47.509316084906459" lon="11.157507039606571">
        <ele>1424.269999999999982</ele>
        <time>2015-02-06T16:20:13Z</time>
      </trkpt>
      <trkpt lat="47.509362939745188" lon="11.157584404572845">
        <ele>1420.819999999999936</ele>
        <time>2015-02-06T16:20:15Z</time>
      </trkpt>
      <trkpt lat="47.509451368823647" lon="11.157644586637616">
        <ele>1417</ele>
        <time>2015-02-06T16:20:18Z</time>
      </trkpt>
      <trkpt lat="47.509577181190252" lon="11.157591613009572">
        <ele>1414.259999999999991</ele>
        <time>2015-02-06T16:20:22Z</time>
      </trkpt>
      <trkpt lat="47.509640632197261" lon="11.157530341297388">
        <ele>1412.630000000000109</ele>
        <time>2015-02-06T16:20:24Z</time>
      </trkpt>
      <trkpt lat="47.509752446785569" lon="11.15749916061759">
        <ele>1410.6400000000001</ele>
        <time>2015-02-06T16:20:27Z</time>
      </trkpt>
      <trkpt lat="47.509824363514781" lon="11.15750159136951">
        <ele>1407.8900000000001</ele>
        <time>2015-02-06T16:20:29Z</time>
      </trkpt>
      <trkpt lat="47.509852861985564" lon="11.157475020736456">
        <ele>1407.630000000000109</ele>
        <time>2015-02-06T16:20:30Z</time>
      </trkpt>
      <trkpt lat="47.509881947189569" lon="11.15745272487402">
        <ele>1407.210000000000036</ele>
        <time>2015-02-06T16:20:31Z</time>
      </trkpt>
      <trkpt lat="47.509950594976544" lon="11.157475020736456">
        <ele>1405.160000000000082</ele>
        <time>2015-02-06T16:20:33Z</time>
      </trkpt>
      <trkpt lat="47.510018991306424" lon="11.157437218353152">
        <ele>1402.980000000000018</ele>
        <time>2015-02-06T16:20:35Z</time>
      </trkpt>
      <trkpt lat="47.51011798158288" lon="11.157474517822266">
        <ele>1399.230000000000018</ele>
        <time>2015-02-06T16:20:38Z</time>
      </trkpt>
      <trkpt lat="47.510185539722443" lon="11.157417772337794">
        <ele>1395.809999999999945</ele>
        <time>2015-02-06T16:20:41Z</time>
      </trkpt>
      <trkpt lat="47.510188892483711" lon="11.157412240281701">
        <ele>1395.809999999999945</ele>
        <time>2015-02-06T16:20:42Z</time>
      </trkpt>
      <trkpt lat="47.510188641026616" lon="11.157428417354822">
        <ele>1396.380000000000109</ele>
        <time>2015-02-06T16:20:55Z</time>
      </trkpt>
      <trkpt lat="47.510269526392221" lon="11.15746202878654">
        <ele>1393.430000000000064</ele>
        <time>2015-02-06T16:21:00Z</time>
      </trkpt>
      <trkpt lat="47.510367762297392" lon="11.157477367669344">
        <ele>1388.849999999999909</ele>
        <time>2015-02-06T16:21:04Z</time>
      </trkpt>
      <trkpt lat="47.510393159464002" lon="11.157466052100062">
        <ele>1387.589999999999918</ele>
        <time>2015-02-06T16:21:05Z</time>
      </trkpt>
      <trkpt lat="47.510421322658658" lon="11.157484324648976">
        <ele>1385.319999999999936</ele>
        <time>2015-02-06T16:21:06Z</time>
      </trkpt>
      <trkpt lat="47.510452168062329" lon="11.157515505328774">
        <ele>1384.779999999999973</ele>
        <time>2015-02-06T16:21:07Z</time>
      </trkpt>
      <trkpt lat="47.510476810857654" lon="11.157509721815586">
        <ele>1381.549999999999955</ele>
        <time>2015-02-06T16:21:08Z</time>
      </trkpt>
      <trkpt lat="47.510504219681025" lon="11.15748449228704">
        <ele>1380.849999999999909</ele>
        <time>2015-02-06T16:21:09Z</time>
      </trkpt>
      <trkpt lat="47.510535567998886" lon="11.157488096505404">
        <ele>1380.240000000000009</ele>
        <time>2015-02-06T16:21:10Z</time>
      </trkpt>
      <trkpt lat="47.51056021079421" lon="11.157521037384868">
        <ele>1375.950000000000045</ele>
        <time>2015-02-06T16:21:11Z</time>
      </trkpt>
      <trkpt lat="47.510594911873341" lon="11.157529503107071">
        <ele>1374.579999999999927</ele>
        <time>2015-02-06T16:21:12Z</time>
      </trkpt>
      <trkpt lat="47.510629864409566" lon="11.157535538077354">
        <ele>1371.3599999999999</ele>
        <time>2015-02-06T16:21:13Z</time>
      </trkpt>
      <trkpt lat="47.510681245476007" lon="11.1576315946877">
        <ele>1369.619999999999891</ele>
        <time>2015-02-06T16:21:16Z</time>
      </trkpt>
      <trkpt lat="47.510708989575505" lon="11.157617932185531">
        <ele>1368.720000000000027</ele>
        <time>2015-02-06T16:21:17Z</time>
      </trkpt>
      <trkpt lat="47.510744109749794" lon="11.157610807567835">
        <ele>1367.069999999999936</ele>
        <time>2015-02-06T16:21:18Z</time>
      </trkpt>
      <trkpt lat="47.510838657617569" lon="11.157643496990204">
        <ele>1363.799999999999955</ele>
        <time>2015-02-06T16:21:21Z</time>
      </trkpt>
      <trkpt lat="47.510921135544777" lon="11.157702002674341">
        <ele>1360.650000000000091</ele>
        <time>2015-02-06T16:21:24Z</time>
      </trkpt>
      <trkpt lat="47.510993806645274" lon="11.157731339335442">
        <ele>1356.75</ele>
        <time>2015-02-06T16:21:27Z</time>
      </trkpt>
      <trkpt lat="47.511038230732083" lon="11.157711977139115">
        <ele>1355.460000000000036</ele>
        <time>2015-02-06T16:21:29Z</time>
      </trkpt>
      <trkpt lat="47.51108206808567" lon="11.157752126455307">
        <ele>1351.960000000000036</ele>
        <time>2015-02-06T16:21:31Z</time>
      </trkpt>
      <trkpt lat="47.511174436658621" lon="11.157778110355139">
        <ele>1345.740000000000009</ele>
        <time>2015-02-06T16:21:35Z</time>
      </trkpt>
      <trkpt lat="47.511225482448936" lon="11.157775763422251">
        <ele>1341.160000000000082</ele>
        <time>2015-02-06T16:21:37Z</time>
      </trkpt>
      <trkpt lat="47.511278875172138" lon="11.157839130610228">
        <ele>1338.549999999999955</ele>
        <time>2015-02-06T16:21:40Z</time>
      </trkpt>
      <trkpt lat="47.511351965367794" lon="11.157832928001881">
        <ele>1334.680000000000064</ele>
        <time>2015-02-06T16:21:44Z</time>
      </trkpt>
      <trkpt lat="47.511415500193834" lon="11.157784229144454">
        <ele>1329.779999999999973</ele>
        <time>2015-02-06T16:21:47Z</time>
      </trkpt>
      <trkpt lat="47.511475430801511" lon="11.157821360975504">
        <ele>1327.529999999999973</ele>
        <time>2015-02-06T16:21:49Z</time>
      </trkpt>
      <trkpt lat="47.511510970070958" lon="11.157798562198877">
        <ele>1325.779999999999973</ele>
        <time>2015-02-06T16:21:50Z</time>
      </trkpt>
      <trkpt lat="47.511539049446583" lon="11.157761765643954">
        <ele>1324.839999999999918</ele>
        <time>2015-02-06T16:21:51Z</time>
      </trkpt>
      <trkpt lat="47.511570230126381" lon="11.157739805057645">
        <ele>1324.210000000000036</ele>
        <time>2015-02-06T16:21:52Z</time>
      </trkpt>
      <trkpt lat="47.511590681970119" lon="11.157748941332102">
        <ele>1321.410000000000082</ele>
        <time>2015-02-06T16:21:53Z</time>
      </trkpt>
      <trkpt lat="47.511590933427215" lon="11.157762017101049">
        <ele>1321.549999999999955</ele>
        <time>2015-02-06T16:21:54Z</time>
      </trkpt>
      <trkpt lat="47.511607445776463" lon="11.157784229144454">
        <ele>1322.079999999999927</ele>
        <time>2015-02-06T16:22:07Z</time>
      </trkpt>
      <trkpt lat="47.511626891791821" lon="11.157809374853969">
        <ele>1321.440000000000055</ele>
        <time>2015-02-06T16:22:08Z</time>
      </trkpt>
      <trkpt lat="47.511659665033221" lon="11.157822534441948">
        <ele>1320.6099999999999</ele>
        <time>2015-02-06T16:22:09Z</time>
      </trkpt>
      <trkpt lat="47.511695455759764" lon="11.15781188942492">
        <ele>1319.660000000000082</ele>
        <time>2015-02-06T16:22:10Z</time>
      </trkpt>
      <trkpt lat="47.511726720258594" lon="11.157822702080011">
        <ele>1318.069999999999936</ele>
        <time>2015-02-06T16:22:11Z</time>
      </trkpt>
      <trkpt lat="47.511789752170444" lon="11.157857486978173">
        <ele>1316.410000000000082</ele>
        <time>2015-02-06T16:22:13Z</time>
      </trkpt>
      <trkpt lat="47.511822441592813" lon="11.157881878316402">
        <ele>1314.400000000000091</ele>
        <time>2015-02-06T16:22:14Z</time>
      </trkpt>
      <trkpt lat="47.5118921790272" lon="11.157921105623245">
        <ele>1311.450000000000045</ele>
        <time>2015-02-06T16:22:16Z</time>
      </trkpt>
      <trkpt lat="47.511935429647565" lon="11.1579545494169">
        <ele>1309.700000000000045</ele>
        <time>2015-02-06T16:22:17Z</time>
      </trkpt>
      <trkpt lat="47.51197624951601" lon="11.157973576337099">
        <ele>1307.099999999999909</ele>
        <time>2015-02-06T16:22:18Z</time>
      </trkpt>
      <trkpt lat="47.512015644460917" lon="11.157990340143442">
        <ele>1306.529999999999973</ele>
        <time>2015-02-06T16:22:19Z</time>
      </trkpt>
      <trkpt lat="47.512052273377776" lon="11.158005762845278">
        <ele>1304.670000000000073</ele>
        <time>2015-02-06T16:22:20Z</time>
      </trkpt>
      <trkpt lat="47.512093931436539" lon="11.158006265759468">
        <ele>1303.079999999999927</ele>
        <time>2015-02-06T16:22:21Z</time>
      </trkpt>
      <trkpt lat="47.512136846780777" lon="11.158034512773156">
        <ele>1300.430000000000064</ele>
        <time>2015-02-06T16:22:22Z</time>
      </trkpt>
      <trkpt lat="47.5121736433357" lon="11.158065022900701">
        <ele>1298.059999999999945</ele>
        <time>2015-02-06T16:22:23Z</time>
      </trkpt>
      <trkpt lat="47.512308089062572" lon="11.158179854974151">
        <ele>1292.400000000000091</ele>
        <time>2015-02-06T16:22:27Z</time>
      </trkpt>
      <trkpt lat="47.512373887002468" lon="11.158268367871642">
        <ele>1288.869999999999891</ele>
        <time>2015-02-06T16:22:29Z</time>
      </trkpt>
      <trkpt lat="47.512415377423167" lon="11.158295525237918">
        <ele>1286.880000000000109</ele>
        <time>2015-02-06T16:22:30Z</time>
      </trkpt>
      <trkpt lat="47.512489389628172" lon="11.158370459452271">
        <ele>1282.599999999999909</ele>
        <time>2015-02-06T16:22:32Z</time>
      </trkpt>
      <trkpt lat="47.512570442631841" lon="11.158442795276642">
        <ele>1278.329999999999927</ele>
        <time>2015-02-06T16:22:34Z</time>
      </trkpt>
      <trkpt lat="47.512602964416146" lon="11.158511023968458">
        <ele>1277.720000000000027</ele>
        <time>2015-02-06T16:22:35Z</time>
      </trkpt>
      <trkpt lat="47.512650825083256" lon="11.158569864928722">
        <ele>1276.069999999999936</ele>
        <time>2015-02-06T16:22:36Z</time>
      </trkpt>
      <trkpt lat="47.51271846704185" lon="11.158609511330724">
        <ele>1274.549999999999955</ele>
        <time>2015-02-06T16:22:37Z</time>
      </trkpt>
      <trkpt lat="47.512804800644517" lon="11.158636249601841">
        <ele>1272.480000000000018</ele>
        <time>2015-02-06T16:22:38Z</time>
      </trkpt>
      <trkpt lat="47.512903958559036" lon="11.158649073913693">
        <ele>1270.220000000000027</ele>
        <time>2015-02-06T16:22:39Z</time>
      </trkpt>
      <trkpt lat="47.512999260798097" lon="11.158660389482975">
        <ele>1268.700000000000045</ele>
        <time>2015-02-06T16:22:40Z</time>
      </trkpt>
      <trkpt lat="47.513087438419461" lon="11.158679416403174">
        <ele>1267.369999999999891</ele>
        <time>2015-02-06T16:22:41Z</time>
      </trkpt>
      <trkpt lat="47.513170670717955" lon="11.158703388646245">
        <ele>1267.519999999999982</ele>
        <time>2015-02-06T16:22:42Z</time>
      </trkpt>
      <trkpt lat="47.513434868305922" lon="11.158759463578463">
        <ele>1264.509999999999991</ele>
        <time>2015-02-06T16:22:45Z</time>
      </trkpt>
      <trkpt lat="47.513522375375032" lon="11.158756110817194">
        <ele>1263.559999999999945</ele>
        <time>2015-02-06T16:22:46Z</time>
      </trkpt>
      <trkpt lat="47.51391171477735" lon="11.158680841326714">
        <ele>1260.470000000000027</ele>
        <time>2015-02-06T16:22:51Z</time>
      </trkpt>
      <trkpt lat="47.51421807333827" lon="11.158658629283309">
        <ele>1257.180000000000064</ele>
        <time>2015-02-06T16:22:55Z</time>
      </trkpt>
      <trkpt lat="47.514287056401372" lon="11.158663490787148">
        <ele>1257.049999999999955</ele>
        <time>2015-02-06T16:22:56Z</time>
      </trkpt>
      <trkpt lat="47.514569945633411" lon="11.158606158569455">
        <ele>1255.8599999999999</ele>
        <time>2015-02-06T16:23:04Z</time>
      </trkpt>
      <trkpt lat="47.514878232032061" lon="11.158366603776813">
        <ele>1254.160000000000082</ele>
        <time>2015-02-06T16:23:15Z</time>
      </trkpt>
      <trkpt lat="47.515221973881125" lon="11.15805571898818">
        <ele>1252.950000000000045</ele>
        <time>2015-02-06T16:23:28Z</time>
      </trkpt>
      <trkpt lat="47.515364633873105" lon="11.157830413430929">
        <ele>1251.789999999999964</ele>
        <time>2015-02-06T16:23:37Z</time>
      </trkpt>
      <trkpt lat="47.515489021316171" lon="11.157646346837282">
        <ele>1251.730000000000018</ele>
        <time>2015-02-06T16:23:47Z</time>
      </trkpt>
      <trkpt lat="47.515666047111154" lon="11.15739069879055">
        <ele>1251.069999999999936</ele>
        <time>2015-02-06T16:24:01Z</time>
      </trkpt>
      <trkpt lat="47.515835696831346" lon="11.157165979966521">
        <ele>1250.190000000000055</ele>
        <time>2015-02-06T16:24:17Z</time>
      </trkpt>
      <trkpt lat="47.515938961878419" lon="11.157013764604926">
        <ele>1249.039999999999964</ele>
        <time>2015-02-06T16:24:28Z</time>
      </trkpt>
      <trkpt lat="47.516007944941521" lon="11.156919971108437">
        <ele>1248.579999999999927</ele>
        <time>2015-02-06T16:24:33Z</time>
      </trkpt>
      <trkpt lat="47.516233334317803" lon="11.156622916460037">
        <ele>1248.490000000000009</ele>
        <time>2015-02-06T16:24:49Z</time>
      </trkpt>
      <trkpt lat="47.516534915193915" lon="11.156224189326167">
        <ele>1246.279999999999973</ele>
        <time>2015-02-06T16:25:07Z</time>
      </trkpt>
      <trkpt lat="47.516767932102084" lon="11.155905928462744">
        <ele>1244.779999999999973</ele>
        <time>2015-02-06T16:25:23Z</time>
      </trkpt>
      <trkpt lat="47.516803722828627" lon="11.155852619558573">
        <ele>1245.400000000000091</ele>
        <time>2015-02-06T16:25:36Z</time>
      </trkpt>
      <trkpt lat="47.516800286248326" lon="11.155856810510159">
        <ele>1244.549999999999955</ele>
        <time>2015-02-06T16:25:50Z</time>
      </trkpt>
      <trkpt lat="47.516806907951832" lon="11.155854295939207">
        <ele>1245.509999999999991</ele>
        <time>2015-02-06T16:26:04Z</time>
      </trkpt>
      <trkpt lat="47.516817301511765" lon="11.155811464414001">
        <ele>1244.529999999999973</ele>
        <time>2015-02-06T16:26:15Z</time>
      </trkpt>
      <trkpt lat="47.516808500513434" lon="11.155742229893804">
        <ele>1245.150000000000091</ele>
        <time>2015-02-06T16:26:21Z</time>
      </trkpt>
      <trkpt lat="47.516811098903418" lon="11.155699985101819">
        <ele>1245.079999999999927</ele>
        <time>2015-02-06T16:26:23Z</time>
      </trkpt>
      <trkpt lat="47.516813026741147" lon="11.155679281800985">
        <ele>1244.789999999999964</ele>
        <time>2015-02-06T16:26:24Z</time>
      </trkpt>
      <trkpt lat="47.516815457493067" lon="11.155653046444058">
        <ele>1245.410000000000082</ele>
        <time>2015-02-06T16:26:25Z</time>
      </trkpt>
      <trkpt lat="47.516869017854333" lon="11.155360769480467">
        <ele>1244.309999999999945</ele>
        <time>2015-02-06T16:26:35Z</time>
      </trkpt>
      <trkpt lat="47.516902629286051" lon="11.155259935185313">
        <ele>1243.950000000000045</ele>
        <time>2015-02-06T16:26:39Z</time>
      </trkpt>
      <trkpt lat="47.517115781083703" lon="11.154536828398705">
        <ele>1243.460000000000036</ele>
        <time>2015-02-06T16:27:00Z</time>
      </trkpt>
      <trkpt lat="47.517289705574512" lon="11.153804501518607">
        <ele>1241.8900000000001</ele>
        <time>2015-02-06T16:27:20Z</time>
      </trkpt>
      <trkpt lat="47.517442088574171" lon="11.153321033343673">
        <ele>1241.400000000000091</ele>
        <time>2015-02-06T16:27:34Z</time>
      </trkpt>
      <trkpt lat="47.517478633671999" lon="11.153245009481907">
        <ele>1241.450000000000045</ele>
        <time>2015-02-06T16:27:36Z</time>
      </trkpt>
      <trkpt lat="47.517486596480012" lon="11.15320804528892">
        <ele>1241.450000000000045</ele>
        <time>2015-02-06T16:27:37Z</time>
      </trkpt>
      <trkpt lat="47.517496990039945" lon="11.153169656172395">
        <ele>1241.1099999999999</ele>
        <time>2015-02-06T16:27:38Z</time>
      </trkpt>
      <trkpt lat="47.517506293952465" lon="11.153129674494267">
        <ele>1240.980000000000018</ele>
        <time>2015-02-06T16:27:39Z</time>
      </trkpt>
      <trkpt lat="47.517513586208224" lon="11.153091201558709">
        <ele>1241.220000000000027</ele>
        <time>2015-02-06T16:27:40Z</time>
      </trkpt>
      <trkpt lat="47.517520962283015" lon="11.153053902089596">
        <ele>1241.029999999999973</ele>
        <time>2015-02-06T16:27:41Z</time>
      </trkpt>
      <trkpt lat="47.517523309215903" lon="11.15301794372499">
        <ele>1240.759999999999991</ele>
        <time>2015-02-06T16:27:42Z</time>
      </trkpt>
      <trkpt lat="47.517523476853967" lon="11.152979470789433">
        <ele>1240.980000000000018</ele>
        <time>2015-02-06T16:27:43Z</time>
      </trkpt>
      <trkpt lat="47.517527500167489" lon="11.152941081672907">
        <ele>1240.670000000000073</ele>
        <time>2015-02-06T16:27:44Z</time>
      </trkpt>
      <trkpt lat="47.517530433833599" lon="11.152905374765396">
        <ele>1240.559999999999945</ele>
        <time>2015-02-06T16:27:45Z</time>
      </trkpt>
      <trkpt lat="47.517531858757138" lon="11.152870422229171">
        <ele>1240.759999999999991</ele>
        <time>2015-02-06T16:27:46Z</time>
      </trkpt>
      <trkpt lat="47.51748944632709" lon="11.15235879085958">
        <ele>1239.579999999999927</ele>
        <time>2015-02-06T16:28:01Z</time>
      </trkpt>
      <trkpt lat="47.517467569559813" lon="11.152106327936053">
        <ele>1240.6400000000001</ele>
        <time>2015-02-06T16:28:16Z</time>
      </trkpt>
      <trkpt lat="47.517497409135103" lon="11.151830060407519">
        <ele>1240.650000000000091</ele>
        <time>2015-02-06T16:28:26Z</time>
      </trkpt>
      <trkpt lat="47.517540995031595" lon="11.151747750118375">
        <ele>1240.690000000000055</ele>
        <time>2015-02-06T16:28:36Z</time>
      </trkpt>
      <trkpt lat="47.517598075792193" lon="11.151683628559113">
        <ele>1240.740000000000009</ele>
        <time>2015-02-06T16:28:44Z</time>
      </trkpt>
      <trkpt lat="47.517609475180507" lon="11.151671474799514">
        <ele>1241.319999999999936</ele>
        <time>2015-02-06T16:28:45Z</time>
      </trkpt>
      <trkpt lat="47.517618192359805" lon="11.151660578325391">
        <ele>1241.25</ele>
        <time>2015-02-06T16:28:46Z</time>
      </trkpt>
      <trkpt lat="47.51767560839653" lon="11.151551362127066">
        <ele>1241.549999999999955</ele>
        <time>2015-02-06T16:28:59Z</time>
      </trkpt>
      <trkpt lat="47.517693713307381" lon="11.151527306064963">
        <ele>1242.119999999999891</ele>
        <time>2015-02-06T16:29:01Z</time>
      </trkpt>
      <trkpt lat="47.517702095210552" lon="11.151513727381825">
        <ele>1242.519999999999982</ele>
        <time>2015-02-06T16:29:02Z</time>
      </trkpt>
      <trkpt lat="47.517775017768145" lon="11.15140937268734">
        <ele>1242.470000000000027</ele>
        <time>2015-02-06T16:29:15Z</time>
      </trkpt>
      <trkpt lat="47.517851376906037" lon="11.151313483715057">
        <ele>1242.910000000000082</ele>
        <time>2015-02-06T16:29:30Z</time>
      </trkpt>
      <trkpt lat="47.517925975844264" lon="11.151223881170154">
        <ele>1243.8900000000001</ele>
        <time>2015-02-06T16:29:42Z</time>
      </trkpt>
      <trkpt lat="47.517979284748435" lon="11.151113072410226">
        <ele>1243.730000000000018</ele>
        <time>2015-02-06T16:29:54Z</time>
      </trkpt>
      <trkpt lat="47.517984816804528" lon="11.151097733527422">
        <ele>1244.779999999999973</ele>
        <time>2015-02-06T16:29:55Z</time>
      </trkpt>
      <trkpt lat="47.518077436834574" lon="11.150846611708403">
        <ele>1245.1099999999999</ele>
        <time>2015-02-06T16:30:12Z</time>
      </trkpt>
      <trkpt lat="47.518076431006193" lon="11.15046096034348">
        <ele>1244.079999999999927</ele>
        <time>2015-02-06T16:30:29Z</time>
      </trkpt>
      <trkpt lat="47.518023708835244" lon="11.149916891008615">
        <ele>1241.569999999999936</ele>
        <time>2015-02-06T16:30:45Z</time>
      </trkpt>
      <trkpt lat="47.518023792654276" lon="11.149927284568548">
        <ele>1242.160000000000082</ele>
        <time>2015-02-06T16:31:01Z</time>
      </trkpt>
      <trkpt lat="47.518018428236246" lon="11.149878166615963">
        <ele>1242.740000000000009</ele>
        <time>2015-02-06T16:31:14Z</time>
      </trkpt>
      <trkpt lat="47.51801859587431" lon="11.149859055876732">
        <ele>1242.809999999999945</ele>
        <time>2015-02-06T16:31:15Z</time>
      </trkpt>
      <trkpt lat="47.518018009141088" lon="11.149840280413628">
        <ele>1242.799999999999955</ele>
        <time>2015-02-06T16:31:16Z</time>
      </trkpt>
      <trkpt lat="47.51801717095077" lon="11.149821672588587">
        <ele>1242.599999999999909</ele>
        <time>2015-02-06T16:31:17Z</time>
      </trkpt>
      <trkpt lat="47.51801616512239" lon="11.149803064763546">
        <ele>1243.099999999999909</ele>
        <time>2015-02-06T16:31:18Z</time>
      </trkpt>
      <trkpt lat="47.518015159294009" lon="11.149785630404949">
        <ele>1242.849999999999909</ele>
        <time>2015-02-06T16:31:19Z</time>
      </trkpt>
      <trkpt lat="47.518017841503024" lon="11.149751683697104">
        <ele>1242.880000000000109</ele>
        <time>2015-02-06T16:31:21Z</time>
      </trkpt>
      <trkpt lat="47.518023960292339" lon="11.149734500795603">
        <ele>1243.1400000000001</ele>
        <time>2015-02-06T16:31:22Z</time>
      </trkpt>
      <trkpt lat="47.518080957233906" lon="11.149447504431009">
        <ele>1244.980000000000018</ele>
        <time>2015-02-06T16:31:40Z</time>
      </trkpt>
      <trkpt lat="47.518090596422553" lon="11.149337366223335">
        <ele>1246.089999999999918</ele>
        <time>2015-02-06T16:31:47Z</time>
      </trkpt>
      <trkpt lat="47.518113479018211" lon="11.148992953822017">
        <ele>1248.190000000000055</ele>
        <time>2015-02-06T16:32:09Z</time>
      </trkpt>
      <trkpt lat="47.518188580870628" lon="11.148778963834047">
        <ele>1251.230000000000018</ele>
        <time>2015-02-06T16:32:27Z</time>
      </trkpt>
      <trkpt lat="47.518334174528718" lon="11.148589113727212">
        <ele>1253.920000000000073</ele>
        <time>2015-02-06T16:32:44Z</time>
      </trkpt>
      <trkpt lat="47.518474655225873" lon="11.148354252800345">
        <ele>1254.539999999999964</ele>
        <time>2015-02-06T16:33:03Z</time>
      </trkpt>
      <trkpt lat="47.51848672516644" lon="11.148325251415372">
        <ele>1254.3900000000001</ele>
        <time>2015-02-06T16:33:15Z</time>
      </trkpt>
      <trkpt lat="47.518509104847908" lon="11.148279150947928">
        <ele>1255.089999999999918</ele>
        <time>2015-02-06T16:33:18Z</time>
      </trkpt>
      <trkpt lat="47.51851555891335" lon="11.148265236988664">
        <ele>1254.519999999999982</ele>
        <time>2015-02-06T16:33:19Z</time>
      </trkpt>
      <trkpt lat="47.518523773178458" lon="11.148251825943589">
        <ele>1254.579999999999927</ele>
        <time>2015-02-06T16:33:20Z</time>
      </trkpt>
      <trkpt lat="47.518533831462264" lon="11.148237660527229">
        <ele>1255</ele>
        <time>2015-02-06T16:33:21Z</time>
      </trkpt>
      <trkpt lat="47.518543135374784" lon="11.148221651092172">
        <ele>1254.660000000000082</ele>
        <time>2015-02-06T16:33:22Z</time>
      </trkpt>
      <trkpt lat="47.51869535073638" lon="11.147997938096523">
        <ele>1256.549999999999955</ele>
        <time>2015-02-06T16:33:39Z</time>
      </trkpt>
      <trkpt lat="47.51877254806459" lon="11.147733991965652">
        <ele>1258.809999999999945</ele>
        <time>2015-02-06T16:33:56Z</time>
      </trkpt>
      <trkpt lat="47.518783109262586" lon="11.147581525146961">
        <ele>1260.130000000000109</ele>
        <time>2015-02-06T16:34:05Z</time>
      </trkpt>
      <trkpt lat="47.518784031271935" lon="11.147571131587029">
        <ele>1260.950000000000045</ele>
        <time>2015-02-06T16:34:06Z</time>
      </trkpt>
      <trkpt lat="47.518788808956742" lon="11.147553948685527">
        <ele>1261</ele>
        <time>2015-02-06T16:34:07Z</time>
      </trkpt>
      <trkpt lat="47.518794257193804" lon="11.147536681964993">
        <ele>1260.809999999999945</ele>
        <time>2015-02-06T16:34:08Z</time>
      </trkpt>
      <trkpt lat="47.518799789249897" lon="11.147517822682858">
        <ele>1260.6400000000001</ele>
        <time>2015-02-06T16:34:09Z</time>
      </trkpt>
      <trkpt lat="47.518804231658578" lon="11.147499717772007">
        <ele>1261.200000000000045</ele>
        <time>2015-02-06T16:34:10Z</time>
      </trkpt>
      <trkpt lat="47.518907580524683" lon="11.147227305918932">
        <ele>1261.740000000000009</ele>
        <time>2015-02-06T16:34:28Z</time>
      </trkpt>
      <trkpt lat="47.518937168642879" lon="11.146896220743656">
        <ele>1262.569999999999936</ele>
        <time>2015-02-06T16:34:47Z</time>
      </trkpt>
      <trkpt lat="47.518936917185783" lon="11.146891862154007">
        <ele>1263.5</ele>
        <time>2015-02-06T16:34:55Z</time>
      </trkpt>
      <trkpt lat="47.518945382907987" lon="11.146858669817448">
        <ele>1263.369999999999891</ele>
        <time>2015-02-06T16:35:14Z</time>
      </trkpt>
      <trkpt lat="47.518953513354063" lon="11.146801086142659">
        <ele>1262.910000000000082</ele>
        <time>2015-02-06T16:35:32Z</time>
      </trkpt>
      <trkpt lat="47.518951585516334" lon="11.146764038130641">
        <ele>1263.329999999999927</ele>
        <time>2015-02-06T16:35:34Z</time>
      </trkpt>
      <trkpt lat="47.518949154764414" lon="11.146746352314949">
        <ele>1262.789999999999964</ele>
        <time>2015-02-06T16:35:35Z</time>
      </trkpt>
      <trkpt lat="47.518943957984447" lon="11.146687176078558">
        <ele>1264.460000000000036</ele>
        <time>2015-02-06T16:35:40Z</time>
      </trkpt>
      <trkpt lat="47.518975138664246" lon="11.146516436710954">
        <ele>1264.309999999999945</ele>
        <time>2015-02-06T16:35:57Z</time>
      </trkpt>
      <trkpt lat="47.518984526395798" lon="11.146467989310622">
        <ele>1264.349999999999909</ele>
        <time>2015-02-06T16:36:00Z</time>
      </trkpt>
      <trkpt lat="47.518982766196132" lon="11.146448291838169">
        <ele>1264.759999999999991</ele>
        <time>2015-02-06T16:36:01Z</time>
      </trkpt>
      <trkpt lat="47.518985196948051" lon="11.146427085623145">
        <ele>1264.269999999999982</ele>
        <time>2015-02-06T16:36:02Z</time>
      </trkpt>
      <trkpt lat="47.518989974632859" lon="11.146406969055533">
        <ele>1264.019999999999982</ele>
        <time>2015-02-06T16:36:03Z</time>
      </trkpt>
      <trkpt lat="47.51899391412735" lon="11.146386517211795">
        <ele>1264.190000000000055</ele>
        <time>2015-02-06T16:36:04Z</time>
      </trkpt>
      <trkpt lat="47.518996177241206" lon="11.146361120045185">
        <ele>1263.730000000000018</ele>
        <time>2015-02-06T16:36:05Z</time>
      </trkpt>
      <trkpt lat="47.51899927854538" lon="11.146332286298275">
        <ele>1264.319999999999936</ele>
        <time>2015-02-06T16:36:06Z</time>
      </trkpt>
      <trkpt lat="47.519019562751055" lon="11.146169928833842">
        <ele>1264.349999999999909</ele>
        <time>2015-02-06T16:36:17Z</time>
      </trkpt>
      <trkpt lat="47.519028950482607" lon="11.146170347929001">
        <ele>1264.369999999999891</ele>
        <time>2015-02-06T16:36:32Z</time>
      </trkpt>
      <trkpt lat="47.519039511680603" lon="11.146136820316315">
        <ele>1264.279999999999973</ele>
        <time>2015-02-06T16:36:40Z</time>
      </trkpt>
      <trkpt lat="47.519042361527681" lon="11.146099688485265">
        <ele>1264.059999999999945</ele>
        <time>2015-02-06T16:36:42Z</time>
      </trkpt>
      <trkpt lat="47.51904521137476" lon="11.146079991012812">
        <ele>1264.289999999999964</ele>
        <time>2015-02-06T16:36:43Z</time>
      </trkpt>
      <trkpt lat="47.519050156697631" lon="11.145938588306308">
        <ele>1264.079999999999927</ele>
        <time>2015-02-06T16:36:50Z</time>
      </trkpt>
      <trkpt lat="47.519045630469918" lon="11.145908078178763">
        <ele>1263.980000000000018</ele>
        <time>2015-02-06T16:36:52Z</time>
      </trkpt>
      <trkpt lat="47.519051665440202" lon="11.145868012681603">
        <ele>1264.019999999999982</ele>
        <time>2015-02-06T16:36:54Z</time>
      </trkpt>
      <trkpt lat="47.519045881927013" lon="11.145852170884609">
        <ele>1263.799999999999955</ele>
        <time>2015-02-06T16:36:55Z</time>
      </trkpt>
      <trkpt lat="47.519037919119" lon="11.14583314396441">
        <ele>1264.029999999999973</ele>
        <time>2015-02-06T16:36:56Z</time>
      </trkpt>
      <trkpt lat="47.519028196111321" lon="11.145813949406147">
        <ele>1264.009999999999991</ele>
        <time>2015-02-06T16:36:57Z</time>
      </trkpt>
      <trkpt lat="47.519019646570086" lon="11.145793832838535">
        <ele>1263.839999999999918</ele>
        <time>2015-02-06T16:36:58Z</time>
      </trkpt>
      <trkpt lat="47.519016209989786" lon="11.145773464813828">
        <ele>1264.130000000000109</ele>
        <time>2015-02-06T16:36:59Z</time>
      </trkpt>
      <trkpt lat="47.51901738345623" lon="11.14575544372201">
        <ele>1263.920000000000073</ele>
        <time>2015-02-06T16:37:00Z</time>
      </trkpt>
      <trkpt lat="47.519019227474928" lon="11.14573541097343">
        <ele>1264.099999999999909</ele>
        <time>2015-02-06T16:37:01Z</time>
      </trkpt>
      <trkpt lat="47.519026519730687" lon="11.145715042948723">
        <ele>1264.119999999999891</ele>
        <time>2015-02-06T16:37:02Z</time>
      </trkpt>
      <trkpt lat="47.519034817814827" lon="11.145695010200143">
        <ele>1264.069999999999936</ele>
        <time>2015-02-06T16:37:03Z</time>
      </trkpt>
      <trkpt lat="47.519036829471588" lon="11.14568067714572">
        <ele>1264.039999999999964</ele>
        <time>2015-02-06T16:37:04Z</time>
      </trkpt>
      <trkpt lat="47.519033811986446" lon="11.145661314949393">
        <ele>1264.3900000000001</ele>
        <time>2015-02-06T16:37:05Z</time>
      </trkpt>
      <trkpt lat="47.519030878320336" lon="11.145640276372433">
        <ele>1264.220000000000027</ele>
        <time>2015-02-06T16:37:06Z</time>
      </trkpt>
      <trkpt lat="47.519032806158066" lon="11.145618231967092">
        <ele>1264.190000000000055</ele>
        <time>2015-02-06T16:37:07Z</time>
      </trkpt>
      <trkpt lat="47.519037500023842" lon="11.145596271380782">
        <ele>1263.869999999999891</ele>
        <time>2015-02-06T16:37:08Z</time>
      </trkpt>
      <trkpt lat="47.519055437296629" lon="11.145466016605496">
        <ele>1264.6099999999999</ele>
        <time>2015-02-06T16:37:16Z</time>
      </trkpt>
      <trkpt lat="47.519051749259233" lon="11.145448079332709">
        <ele>1264.529999999999973</ele>
        <time>2015-02-06T16:37:17Z</time>
      </trkpt>
      <trkpt lat="47.519048899412155" lon="11.145431734621525">
        <ele>1264.190000000000055</ele>
        <time>2015-02-06T16:37:18Z</time>
      </trkpt>
      <trkpt lat="47.519035739824176" lon="11.14538261666894">
        <ele>1264.630000000000109</ele>
        <time>2015-02-06T16:37:21Z</time>
      </trkpt>
      <trkpt lat="47.519037583842874" lon="11.145365685224533">
        <ele>1264.420000000000073</ele>
        <time>2015-02-06T16:37:22Z</time>
      </trkpt>
      <trkpt lat="47.519041020423174" lon="11.145345820114017">
        <ele>1264.460000000000036</ele>
        <time>2015-02-06T16:37:23Z</time>
      </trkpt>
      <trkpt lat="47.519039511680603" lon="11.145327128469944">
        <ele>1264.470000000000027</ele>
        <time>2015-02-06T16:37:24Z</time>
      </trkpt>
      <trkpt lat="47.519033225253224" lon="11.145311119034886">
        <ele>1264.690000000000055</ele>
        <time>2015-02-06T16:37:25Z</time>
      </trkpt>
      <trkpt lat="47.519029034301639" lon="11.145293517038226">
        <ele>1264.619999999999891</ele>
        <time>2015-02-06T16:37:26Z</time>
      </trkpt>
      <trkpt lat="47.519031297415495" lon="11.145274238660932">
        <ele>1264.3599999999999</ele>
        <time>2015-02-06T16:37:27Z</time>
      </trkpt>
      <trkpt lat="47.519035153090954" lon="11.145253954455256">
        <ele>1264.420000000000073</ele>
        <time>2015-02-06T16:37:28Z</time>
      </trkpt>
      <trkpt lat="47.519037164747715" lon="11.145233334973454">
        <ele>1264.869999999999891</ele>
        <time>2015-02-06T16:37:29Z</time>
      </trkpt>
      <trkpt lat="47.519035823643208" lon="11.145215649157763">
        <ele>1264.420000000000073</ele>
        <time>2015-02-06T16:37:30Z</time>
      </trkpt>
      <trkpt lat="47.519033895805478" lon="11.145198801532388">
        <ele>1264.680000000000064</ele>
        <time>2015-02-06T16:37:31Z</time>
      </trkpt>
      <trkpt lat="47.519038170576096" lon="11.145180277526379">
        <ele>1264.920000000000073</ele>
        <time>2015-02-06T16:37:32Z</time>
      </trkpt>
      <trkpt lat="47.519044708460569" lon="11.145167956128716">
        <ele>1264.8900000000001</ele>
        <time>2015-02-06T16:37:33Z</time>
      </trkpt>
      <trkpt lat="47.519098520278931" lon="11.145029654726386">
        <ele>1266.420000000000073</ele>
        <time>2015-02-06T16:37:44Z</time>
      </trkpt>
      <trkpt lat="47.519231289625168" lon="11.144916918128729">
        <ele>1267.509999999999991</ele>
        <time>2015-02-06T16:37:57Z</time>
      </trkpt>
      <trkpt lat="47.519367327913642" lon="11.144813066348433">
        <ele>1268.630000000000109</ele>
        <time>2015-02-06T16:38:09Z</time>
      </trkpt>
      <trkpt lat="47.519370848312974" lon="11.144799906760454">
        <ele>1268.910000000000082</ele>
        <time>2015-02-06T16:38:10Z</time>
      </trkpt>
      <trkpt lat="47.519374452531338" lon="11.144785908982158">
        <ele>1269.210000000000036</ele>
        <time>2015-02-06T16:38:11Z</time>
      </trkpt>
      <trkpt lat="47.519382499158382" lon="11.144772581756115">
        <ele>1268.930000000000064</ele>
        <time>2015-02-06T16:38:12Z</time>
      </trkpt>
      <trkpt lat="47.519394485279918" lon="11.144761936739087">
        <ele>1269</ele>
        <time>2015-02-06T16:38:13Z</time>
      </trkpt>
      <trkpt lat="47.519494062289596" lon="11.144606284797192">
        <ele>1269.75</ele>
        <time>2015-02-06T16:38:25Z</time>
      </trkpt>
      <trkpt lat="47.51950697042048" lon="11.14458030089736">
        <ele>1269.670000000000073</ele>
        <time>2015-02-06T16:38:27Z</time>
      </trkpt>
      <trkpt lat="47.519519710913301" lon="11.144571918994188">
        <ele>1269.960000000000036</ele>
        <time>2015-02-06T16:38:28Z</time>
      </trkpt>
      <trkpt lat="47.519528176635504" lon="11.14456077106297">
        <ele>1269.680000000000064</ele>
        <time>2015-02-06T16:38:29Z</time>
      </trkpt>
      <trkpt lat="47.519659101963043" lon="11.144360862672329">
        <ele>1270.539999999999964</ele>
        <time>2015-02-06T16:38:45Z</time>
      </trkpt>
      <trkpt lat="47.519697155803442" lon="11.144309062510729">
        <ele>1270.069999999999936</ele>
        <time>2015-02-06T16:38:49Z</time>
      </trkpt>
      <trkpt lat="47.519713332876563" lon="11.144270589575171">
        <ele>1269.900000000000091</ele>
        <time>2015-02-06T16:38:52Z</time>
      </trkpt>
      <trkpt lat="47.519724648445845" lon="11.144264722242951">
        <ele>1269.369999999999891</ele>
        <time>2015-02-06T16:38:53Z</time>
      </trkpt>
      <trkpt lat="47.519715428352356" lon="11.144228428602219">
        <ele>1269.990000000000009</ele>
        <time>2015-02-06T16:39:04Z</time>
      </trkpt>
      <trkpt lat="47.519757086411119" lon="11.144228931516409">
        <ele>1270.25</ele>
        <time>2015-02-06T16:39:18Z</time>
      </trkpt>
      <trkpt lat="47.519760355353355" lon="11.144215269014239">
        <ele>1270.589999999999918</ele>
        <time>2015-02-06T16:39:36Z</time>
      </trkpt>
      <trkpt lat="47.51975079998374" lon="11.144212167710066">
        <ele>1270.289999999999964</ele>
        <time>2015-02-06T16:39:59Z</time>
      </trkpt>
      <trkpt lat="47.519741244614124" lon="11.144217448309064">
        <ele>1270.599999999999909</ele>
        <time>2015-02-06T16:40:17Z</time>
      </trkpt>
      <trkpt lat="47.51973956823349" lon="11.144226081669331">
        <ele>1270.740000000000009</ele>
        <time>2015-02-06T16:40:38Z</time>
      </trkpt>
      <trkpt lat="47.519760020077229" lon="11.144218202680349">
        <ele>1271.25</ele>
        <time>2015-02-06T16:40:58Z</time>
      </trkpt>
      <trkpt lat="47.519762702286243" lon="11.144214179366827">
        <ele>1271.089999999999918</ele>
        <time>2015-02-06T16:41:18Z</time>
      </trkpt>
      <trkpt lat="47.519767060875893" lon="11.144213424995542">
        <ele>1271.079999999999927</ele>
        <time>2015-02-06T16:41:32Z</time>
      </trkpt>
      <trkpt lat="47.519810060039163" lon="11.144225327298045">
        <ele>1271.589999999999918</ele>
        <time>2015-02-06T16:41:50Z</time>
      </trkpt>
      <trkpt lat="47.519790697842836" lon="11.144236559048295">
        <ele>1271.779999999999973</ele>
        <time>2015-02-06T16:42:05Z</time>
      </trkpt>
      <trkpt lat="47.519785081967711" lon="11.144233206287026">
        <ele>1272.130000000000109</ele>
        <time>2015-02-06T16:42:26Z</time>
      </trkpt>
      <trkpt lat="47.519794050604105" lon="11.144203282892704">
        <ele>1271.869999999999891</ele>
        <time>2015-02-06T16:42:38Z</time>
      </trkpt>
      <trkpt lat="47.519802348688245" lon="11.144186267629266">
        <ele>1271.789999999999964</ele>
        <time>2015-02-06T16:42:39Z</time>
      </trkpt>
      <trkpt lat="47.51980897039175" lon="11.144164223223925">
        <ele>1271.700000000000045</ele>
        <time>2015-02-06T16:42:40Z</time>
      </trkpt>
      <trkpt lat="47.519813580438495" lon="11.144138909876347">
        <ele>1271.809999999999945</ele>
        <time>2015-02-06T16:42:41Z</time>
      </trkpt>
      <trkpt lat="47.519816095009446" lon="11.144110830500722">
        <ele>1271.3599999999999</ele>
        <time>2015-02-06T16:42:42Z</time>
      </trkpt>
      <trkpt lat="47.519817519932985" lon="11.144080320373178">
        <ele>1271.599999999999909</ele>
        <time>2015-02-06T16:42:43Z</time>
      </trkpt>
      <trkpt lat="47.519817603752017" lon="11.14404670894146">
        <ele>1271.849999999999909</ele>
        <time>2015-02-06T16:42:44Z</time>
      </trkpt>
      <trkpt lat="47.519817603752017" lon="11.144008571282029">
        <ele>1271.240000000000009</ele>
        <time>2015-02-06T16:42:45Z</time>
      </trkpt>
      <trkpt lat="47.519937213510275" lon="11.143426448106766">
        <ele>1268.930000000000064</ele>
        <time>2015-02-06T16:42:58Z</time>
      </trkpt>
      <trkpt lat="47.520012902095914" lon="11.143021769821644">
        <ele>1266.869999999999891</ele>
        <time>2015-02-06T16:43:05Z</time>
      </trkpt>
      <trkpt lat="47.520031509920955" lon="11.142947841435671">
        <ele>1266.119999999999891</ele>
        <time>2015-02-06T16:43:06Z</time>
      </trkpt>
      <trkpt lat="47.520057577639818" lon="11.142881289124489">
        <ele>1265.369999999999891</ele>
        <time>2015-02-06T16:43:07Z</time>
      </trkpt>
      <trkpt lat="47.520084315910935" lon="11.142816161736846">
        <ele>1264.990000000000009</ele>
        <time>2015-02-06T16:43:08Z</time>
      </trkpt>
      <trkpt lat="47.52014122903347" lon="11.142606530338526">
        <ele>1263.670000000000073</ele>
        <time>2015-02-06T16:43:11Z</time>
      </trkpt>
      <trkpt lat="47.520152376964688" lon="11.142444675788283">
        <ele>1262.1099999999999</ele>
        <time>2015-02-06T16:43:13Z</time>
      </trkpt>
      <trkpt lat="47.520157992839813" lon="11.142279468476772">
        <ele>1260.660000000000082</ele>
        <time>2015-02-06T16:43:15Z</time>
      </trkpt>
      <trkpt lat="47.52016419544816" lon="11.142194308340549">
        <ele>1259.970000000000027</ele>
        <time>2015-02-06T16:43:16Z</time>
      </trkpt>
      <trkpt lat="47.520173834636807" lon="11.142108477652073">
        <ele>1259.410000000000082</ele>
        <time>2015-02-06T16:43:17Z</time>
      </trkpt>
      <trkpt lat="47.520187245681882" lon="11.142025915905833">
        <ele>1259.130000000000109</ele>
        <time>2015-02-06T16:43:18Z</time>
      </trkpt>
      <trkpt lat="47.5202433206141" lon="11.141692232340574">
        <ele>1255.849999999999909</ele>
        <time>2015-02-06T16:43:22Z</time>
      </trkpt>
      <trkpt lat="47.520259162411094" lon="11.141610005870461">
        <ele>1255.730000000000018</ele>
        <time>2015-02-06T16:43:23Z</time>
      </trkpt>
      <trkpt lat="47.52027852460742" lon="11.141536748036742">
        <ele>1255.170000000000073</ele>
        <time>2015-02-06T16:43:24Z</time>
      </trkpt>
      <trkpt lat="47.520298892632127" lon="11.14147312939167">
        <ele>1255.3900000000001</ele>
        <time>2015-02-06T16:43:25Z</time>
      </trkpt>
      <trkpt lat="47.520416490733624" lon="11.141042970120907">
        <ele>1253.400000000000091</ele>
        <time>2015-02-06T16:43:34Z</time>
      </trkpt>
      <trkpt lat="47.520429147407413" lon="11.14095957018435">
        <ele>1252.6400000000001</ele>
        <time>2015-02-06T16:43:35Z</time>
      </trkpt>
      <trkpt lat="47.520446162670851" lon="11.140867117792368">
        <ele>1251.630000000000109</ele>
        <time>2015-02-06T16:43:36Z</time>
      </trkpt>
      <trkpt lat="47.52045881934464" lon="11.140768295153975">
        <ele>1250.700000000000045</ele>
        <time>2015-02-06T16:43:37Z</time>
      </trkpt>
      <trkpt lat="47.520471978932619" lon="11.140663269907236">
        <ele>1249.220000000000027</ele>
        <time>2015-02-06T16:43:38Z</time>
      </trkpt>
      <trkpt lat="47.520493185147643" lon="11.140560759231448">
        <ele>1248.450000000000045</ele>
        <time>2015-02-06T16:43:39Z</time>
      </trkpt>
      <trkpt lat="47.520517911761999" lon="11.140463026240468">
        <ele>1247.740000000000009</ele>
        <time>2015-02-06T16:43:40Z</time>
      </trkpt>
      <trkpt lat="47.520608436316252" lon="11.140123391523957">
        <ele>1245.349999999999909</ele>
        <time>2015-02-06T16:43:44Z</time>
      </trkpt>
      <trkpt lat="47.520630396902561" lon="11.140043679624796">
        <ele>1244.589999999999918</ele>
        <time>2015-02-06T16:43:45Z</time>
      </trkpt>
      <trkpt lat="47.520656632259488" lon="11.139962710440159">
        <ele>1243.950000000000045</ele>
        <time>2015-02-06T16:43:46Z</time>
      </trkpt>
      <trkpt lat="47.520685885101557" lon="11.139875538647175">
        <ele>1243.039999999999964</ele>
        <time>2015-02-06T16:43:47Z</time>
      </trkpt>
      <trkpt lat="47.52071438357234" lon="11.139781828969717">
        <ele>1242.569999999999936</ele>
        <time>2015-02-06T16:43:48Z</time>
      </trkpt>
      <trkpt lat="47.520858971402049" lon="11.139260390773416">
        <ele>1239.079999999999927</ele>
        <time>2015-02-06T16:43:54Z</time>
      </trkpt>
      <trkpt lat="47.520916890352964" lon="11.138600399717689">
        <ele>1236.869999999999891</ele>
        <time>2015-02-06T16:44:05Z</time>
      </trkpt>
      <trkpt lat="47.521049994975328" lon="11.137977875769138">
        <ele>1233.650000000000091</ele>
        <time>2015-02-06T16:44:17Z</time>
      </trkpt>
      <trkpt lat="47.521061562001705" lon="11.137907300144434">
        <ele>1233.900000000000091</ele>
        <time>2015-02-06T16:44:18Z</time>
      </trkpt>
      <trkpt lat="47.521068016067147" lon="11.137829683721066">
        <ele>1233.369999999999891</ele>
        <time>2015-02-06T16:44:19Z</time>
      </trkpt>
      <trkpt lat="47.521066339686513" lon="11.137754917144775">
        <ele>1232.150000000000091</ele>
        <time>2015-02-06T16:44:20Z</time>
      </trkpt>
      <trkpt lat="47.521061226725578" lon="11.137679228559136">
        <ele>1231.269999999999982</ele>
        <time>2015-02-06T16:44:21Z</time>
      </trkpt>
      <trkpt lat="47.521064579486847" lon="11.137601444497705">
        <ele>1231.240000000000009</ele>
        <time>2015-02-06T16:44:22Z</time>
      </trkpt>
      <trkpt lat="47.521077236160636" lon="11.137523325160146">
        <ele>1230.190000000000055</ele>
        <time>2015-02-06T16:44:23Z</time>
      </trkpt>
      <trkpt lat="47.521084444597363" lon="11.137444786727428">
        <ele>1229.519999999999982</ele>
        <time>2015-02-06T16:44:24Z</time>
      </trkpt>
      <trkpt lat="47.521092994138598" lon="11.137364404276013">
        <ele>1228.440000000000055</ele>
        <time>2015-02-06T16:44:25Z</time>
      </trkpt>
      <trkpt lat="47.521103890612721" lon="11.137281842529774">
        <ele>1227.589999999999918</ele>
        <time>2015-02-06T16:44:26Z</time>
      </trkpt>
      <trkpt lat="47.521108584478498" lon="11.137199196964502">
        <ele>1226.660000000000082</ele>
        <time>2015-02-06T16:44:27Z</time>
      </trkpt>
      <trkpt lat="47.52112191170454" lon="11.137117724865675">
        <ele>1225.779999999999973</ele>
        <time>2015-02-06T16:44:28Z</time>
      </trkpt>
      <trkpt lat="47.521131634712219" lon="11.137033151462674">
        <ele>1224.1099999999999</ele>
        <time>2015-02-06T16:44:29Z</time>
      </trkpt>
      <trkpt lat="47.521116463467479" lon="11.136797619983554">
        <ele>1220.25</ele>
        <time>2015-02-06T16:44:32Z</time>
      </trkpt>
      <trkpt lat="47.521096765995026" lon="11.136748418211937">
        <ele>1219.980000000000018</ele>
        <time>2015-02-06T16:44:33Z</time>
      </trkpt>
      <trkpt lat="47.521084444597363" lon="11.136695276945829">
        <ele>1219.049999999999955</ele>
        <time>2015-02-06T16:44:34Z</time>
      </trkpt>
      <trkpt lat="47.521068938076496" lon="11.136638866737485">
        <ele>1217.690000000000055</ele>
        <time>2015-02-06T16:44:35Z</time>
      </trkpt>
      <trkpt lat="47.521047480404377" lon="11.13658145070076">
        <ele>1217.130000000000109</ele>
        <time>2015-02-06T16:44:36Z</time>
      </trkpt>
      <trkpt lat="47.521023005247116" lon="11.136535685509443">
        <ele>1215.049999999999955</ele>
        <time>2015-02-06T16:44:37Z</time>
      </trkpt>
      <trkpt lat="47.521013114601374" lon="11.136513724923134">
        <ele>1215.710000000000036</ele>
        <time>2015-02-06T16:44:38Z</time>
      </trkpt>
      <trkpt lat="47.521014790982008" lon="11.136476676911116">
        <ele>1214.369999999999891</ele>
        <time>2015-02-06T16:44:44Z</time>
      </trkpt>
      <trkpt lat="47.521007247269154" lon="11.136445412412286">
        <ele>1214.700000000000045</ele>
        <time>2015-02-06T16:44:45Z</time>
      </trkpt>
      <trkpt lat="47.520999033004045" lon="11.136403419077396">
        <ele>1214.009999999999991</ele>
        <time>2015-02-06T16:44:46Z</time>
      </trkpt>
      <trkpt lat="47.520975479856133" lon="11.136235194280744">
        <ele>1211.730000000000018</ele>
        <time>2015-02-06T16:44:49Z</time>
      </trkpt>
      <trkpt lat="47.520976820960641" lon="11.136115165427327">
        <ele>1208.349999999999909</ele>
        <time>2015-02-06T16:44:51Z</time>
      </trkpt>
      <trkpt lat="47.520975396037102" lon="11.136071579530835">
        <ele>1207.8599999999999</ele>
        <time>2015-02-06T16:44:52Z</time>
      </trkpt>
      <trkpt lat="47.520986460149288" lon="11.136017683893442">
        <ele>1207.269999999999982</ele>
        <time>2015-02-06T16:44:53Z</time>
      </trkpt>
      <trkpt lat="47.520989058539271" lon="11.135956831276417">
        <ele>1205.130000000000109</ele>
        <time>2015-02-06T16:44:54Z</time>
      </trkpt>
      <trkpt lat="47.520985454320908" lon="11.13589346408844">
        <ele>1204.75</ele>
        <time>2015-02-06T16:44:55Z</time>
      </trkpt>
      <trkpt lat="47.520983777940273" lon="11.135826073586941">
        <ele>1203.309999999999945</ele>
        <time>2015-02-06T16:44:56Z</time>
      </trkpt>
      <trkpt lat="47.520978497341275" lon="11.135755917057395">
        <ele>1202.329999999999927</ele>
        <time>2015-02-06T16:44:57Z</time>
      </trkpt>
      <trkpt lat="47.520984699949622" lon="11.135700680315495">
        <ele>1199.470000000000027</ele>
        <time>2015-02-06T16:44:58Z</time>
      </trkpt>
      <trkpt lat="47.520999200642109" lon="11.135675450786948">
        <ele>1199.539999999999964</ele>
        <time>2015-02-06T16:44:59Z</time>
      </trkpt>
      <trkpt lat="47.521007834002376" lon="11.135655166581273">
        <ele>1199.349999999999909</ele>
        <time>2015-02-06T16:45:00Z</time>
      </trkpt>
      <trkpt lat="47.521007834002376" lon="11.13562474027276">
        <ele>1198.619999999999891</ele>
        <time>2015-02-06T16:45:01Z</time>
      </trkpt>
      <trkpt lat="47.520997859537601" lon="11.135590542107821">
        <ele>1198.269999999999982</ele>
        <time>2015-02-06T16:45:02Z</time>
      </trkpt>
      <trkpt lat="47.52098361030221" lon="11.135548716410995">
        <ele>1198.119999999999891</ele>
        <time>2015-02-06T16:45:03Z</time>
      </trkpt>
      <trkpt lat="47.520973719656467" lon="11.135492976754904">
        <ele>1196.710000000000036</ele>
        <time>2015-02-06T16:45:04Z</time>
      </trkpt>
      <trkpt lat="47.520974976941943" lon="11.135426927357912">
        <ele>1195.589999999999918</ele>
        <time>2015-02-06T16:45:05Z</time>
      </trkpt>
      <trkpt lat="47.520973468199372" lon="11.135356519371271">
        <ele>1195.1099999999999</ele>
        <time>2015-02-06T16:45:06Z</time>
      </trkpt>
      <trkpt lat="47.520978413522243" lon="11.135287033393979">
        <ele>1193.630000000000109</ele>
        <time>2015-02-06T16:45:07Z</time>
      </trkpt>
      <trkpt lat="47.520981766283512" lon="11.135218804702163">
        <ele>1193.039999999999964</ele>
        <time>2015-02-06T16:45:08Z</time>
      </trkpt>
      <trkpt lat="47.520981011912227" lon="11.135152922943234">
        <ele>1192.809999999999945</ele>
        <time>2015-02-06T16:45:09Z</time>
      </trkpt>
      <trkpt lat="47.520984951406717" lon="11.135087376460433">
        <ele>1191.900000000000091</ele>
        <time>2015-02-06T16:45:10Z</time>
      </trkpt>
      <trkpt lat="47.520983945578337" lon="11.13502467982471">
        <ele>1190.660000000000082</ele>
        <time>2015-02-06T16:45:11Z</time>
      </trkpt>
      <trkpt lat="47.520977910608053" lon="11.134959971532226">
        <ele>1190.069999999999936</ele>
        <time>2015-02-06T16:45:12Z</time>
      </trkpt>
      <trkpt lat="47.520977072417736" lon="11.134887635707855">
        <ele>1188.940000000000055</ele>
        <time>2015-02-06T16:45:13Z</time>
      </trkpt>
      <trkpt lat="47.520967097952962" lon="11.134818317368627">
        <ele>1188.880000000000109</ele>
        <time>2015-02-06T16:45:14Z</time>
      </trkpt>
      <trkpt lat="47.520957626402378" lon="11.134745059534907">
        <ele>1187.549999999999955</ele>
        <time>2015-02-06T16:45:15Z</time>
      </trkpt>
      <trkpt lat="47.520937509834766" lon="11.13459418527782">
        <ele>1183.789999999999964</ele>
        <time>2015-02-06T16:45:17Z</time>
      </trkpt>
      <trkpt lat="47.520924434065819" lon="11.134523022919893">
        <ele>1182.720000000000027</ele>
        <time>2015-02-06T16:45:18Z</time>
      </trkpt>
      <trkpt lat="47.520914040505886" lon="11.134453453123569">
        <ele>1181.460000000000036</ele>
        <time>2015-02-06T16:45:19Z</time>
      </trkpt>
      <trkpt lat="47.520905071869493" lon="11.134385140612721">
        <ele>1181.1099999999999</ele>
        <time>2015-02-06T16:45:20Z</time>
      </trkpt>
      <trkpt lat="47.520904317498207" lon="11.134317750111222">
        <ele>1179.720000000000027</ele>
        <time>2015-02-06T16:45:21Z</time>
      </trkpt>
      <trkpt lat="47.52089861780405" lon="11.134273745119572">
        <ele>1179.220000000000027</ele>
        <time>2015-02-06T16:45:26Z</time>
      </trkpt>
      <trkpt lat="47.52089518122375" lon="11.134259328246117">
        <ele>1178.099999999999909</ele>
        <time>2015-02-06T16:45:28Z</time>
      </trkpt>
      <trkpt lat="47.520891660824418" lon="11.134236864745617">
        <ele>1177.75</ele>
        <time>2015-02-06T16:45:29Z</time>
      </trkpt>
      <trkpt lat="47.520887888967991" lon="11.134202163666487">
        <ele>1178.009999999999991</ele>
        <time>2015-02-06T16:45:30Z</time>
      </trkpt>
      <trkpt lat="47.520880764350295" lon="11.134158913046122">
        <ele>1177.430000000000064</ele>
        <time>2015-02-06T16:45:31Z</time>
      </trkpt>
      <trkpt lat="47.52087565138936" lon="11.134107280522585">
        <ele>1176.720000000000027</ele>
        <time>2015-02-06T16:45:32Z</time>
      </trkpt>
      <trkpt lat="47.520867018029094" lon="11.134047517552972">
        <ele>1177.089999999999918</ele>
        <time>2015-02-06T16:45:33Z</time>
      </trkpt>
      <trkpt lat="47.520853439345956" lon="11.133979707956314">
        <ele>1175.569999999999936</ele>
        <time>2015-02-06T16:45:34Z</time>
      </trkpt>
      <trkpt lat="47.520844722166657" lon="11.13390184007585">
        <ele>1175.180000000000064</ele>
        <time>2015-02-06T16:45:35Z</time>
      </trkpt>
      <trkpt lat="47.520842961966991" lon="11.133813997730613">
        <ele>1174.730000000000018</ele>
        <time>2015-02-06T16:45:36Z</time>
      </trkpt>
      <trkpt lat="47.520835753530264" lon="11.133723305538297">
        <ele>1174.519999999999982</ele>
        <time>2015-02-06T16:45:37Z</time>
      </trkpt>
      <trkpt lat="47.5208287127316" lon="11.133639318868518">
        <ele>1173.490000000000009</ele>
        <time>2015-02-06T16:45:38Z</time>
      </trkpt>
      <trkpt lat="47.520837681367993" lon="11.133565222844481">
        <ele>1171.130000000000109</ele>
        <time>2015-02-06T16:45:39Z</time>
      </trkpt>
      <trkpt lat="47.520848326385021" lon="11.133502190932631">
        <ele>1169.539999999999964</ele>
        <time>2015-02-06T16:45:40Z</time>
      </trkpt>
      <trkpt lat="47.520834999158978" lon="11.133449217304587">
        <ele>1169.329999999999927</ele>
        <time>2015-02-06T16:45:41Z</time>
      </trkpt>
      <trkpt lat="47.520825108513236" lon="11.133393896743655">
        <ele>1168.039999999999964</ele>
        <time>2015-02-06T16:45:42Z</time>
      </trkpt>
      <trkpt lat="47.520836088806391" lon="11.133333379402757">
        <ele>1166.990000000000009</ele>
        <time>2015-02-06T16:45:43Z</time>
      </trkpt>
      <trkpt lat="47.520837932825089" lon="11.133275125175714">
        <ele>1166.089999999999918</ele>
        <time>2015-02-06T16:45:44Z</time>
      </trkpt>
      <trkpt lat="47.520822593942285" lon="11.133221229538321">
        <ele>1164.630000000000109</ele>
        <time>2015-02-06T16:45:45Z</time>
      </trkpt>
      <trkpt lat="47.52081555314362" lon="11.133164903149009">
        <ele>1164.299999999999955</ele>
        <time>2015-02-06T16:45:46Z</time>
      </trkpt>
      <trkpt lat="47.520823767408729" lon="11.133102374151349">
        <ele>1163.240000000000009</ele>
        <time>2015-02-06T16:45:47Z</time>
      </trkpt>
      <trkpt lat="47.520821839570999" lon="11.133040431886911">
        <ele>1162.160000000000082</ele>
        <time>2015-02-06T16:45:48Z</time>
      </trkpt>
      <trkpt lat="47.520817732438445" lon="11.132981758564711">
        <ele>1160.700000000000045</ele>
        <time>2015-02-06T16:45:49Z</time>
      </trkpt>
      <trkpt lat="47.520826701074839" lon="11.132920319214463">
        <ele>1160.289999999999964</ele>
        <time>2015-02-06T16:45:50Z</time>
      </trkpt>
      <trkpt lat="47.520827874541283" lon="11.132858712226152">
        <ele>1158.710000000000036</ele>
        <time>2015-02-06T16:45:51Z</time>
      </trkpt>
      <trkpt lat="47.520831814035773" lon="11.132801044732332">
        <ele>1158.1099999999999</ele>
        <time>2015-02-06T16:45:52Z</time>
      </trkpt>
      <trkpt lat="47.520842710509896" lon="11.132741114124656">
        <ele>1157.539999999999964</ele>
        <time>2015-02-06T16:45:53Z</time>
      </trkpt>
      <trkpt lat="47.520839441567659" lon="11.132677579298615">
        <ele>1155.759999999999991</ele>
        <time>2015-02-06T16:45:54Z</time>
      </trkpt>
      <trkpt lat="47.520838184282184" lon="11.132609266787767">
        <ele>1155.990000000000009</ele>
        <time>2015-02-06T16:45:55Z</time>
      </trkpt>
      <trkpt lat="47.520834496244788" lon="11.132538774982095">
        <ele>1154.569999999999936</ele>
        <time>2015-02-06T16:45:56Z</time>
      </trkpt>
      <trkpt lat="47.520817816257477" lon="11.132477587088943">
        <ele>1153.700000000000045</ele>
        <time>2015-02-06T16:45:57Z</time>
      </trkpt>
      <trkpt lat="47.520809769630432" lon="11.132418578490615">
        <ele>1152.450000000000045</ele>
        <time>2015-02-06T16:45:58Z</time>
      </trkpt>
      <trkpt lat="47.520811697468162" lon="11.132354540750384">
        <ele>1151.920000000000073</ele>
        <time>2015-02-06T16:45:59Z</time>
      </trkpt>
      <trkpt lat="47.520802896469831" lon="11.13229913637042">
        <ele>1150.680000000000064</ele>
        <time>2015-02-06T16:46:00Z</time>
      </trkpt>
      <trkpt lat="47.520782612264156" lon="11.132259657606483">
        <ele>1150.019999999999982</ele>
        <time>2015-02-06T16:46:01Z</time>
      </trkpt>
      <trkpt lat="47.520764172077179" lon="11.132228225469589">
        <ele>1150.069999999999936</ele>
        <time>2015-02-06T16:46:02Z</time>
      </trkpt>
      <trkpt lat="47.520747408270836" lon="11.132196877151728">
        <ele>1149.670000000000073</ele>
        <time>2015-02-06T16:46:03Z</time>
      </trkpt>
      <trkpt lat="47.52073734998703" lon="11.132161505520344">
        <ele>1149.829999999999927</ele>
        <time>2015-02-06T16:46:04Z</time>
      </trkpt>
      <trkpt lat="47.520752102136612" lon="11.132122613489628">
        <ele>1148.8900000000001</ele>
        <time>2015-02-06T16:46:05Z</time>
      </trkpt>
      <trkpt lat="47.520761908963323" lon="11.132075423374772">
        <ele>1146.740000000000009</ele>
        <time>2015-02-06T16:46:06Z</time>
      </trkpt>
      <trkpt lat="47.520751347765326" lon="11.132025215774775">
        <ele>1146.630000000000109</ele>
        <time>2015-02-06T16:46:07Z</time>
      </trkpt>
      <trkpt lat="47.520742127671838" lon="11.13197467289865">
        <ele>1144.650000000000091</ele>
        <time>2015-02-06T16:46:08Z</time>
      </trkpt>
      <trkpt lat="47.520756963640451" lon="11.131932931020856">
        <ele>1142.970000000000027</ele>
        <time>2015-02-06T16:46:09Z</time>
      </trkpt>
      <trkpt lat="47.520790239796042" lon="11.131907450035214">
        <ele>1141.849999999999909</ele>
        <time>2015-02-06T16:46:10Z</time>
      </trkpt>
      <trkpt lat="47.52080918289721" lon="11.131873251870275">
        <ele>1140.6099999999999</ele>
        <time>2015-02-06T16:46:11Z</time>
      </trkpt>
      <trkpt lat="47.520802058279514" lon="11.131830252707005">
        <ele>1139.869999999999891</ele>
        <time>2015-02-06T16:46:12Z</time>
      </trkpt>
      <trkpt lat="47.520786551758647" lon="11.131791779771447">
        <ele>1139.869999999999891</ele>
        <time>2015-02-06T16:46:13Z</time>
      </trkpt>
      <trkpt lat="47.520779091864824" lon="11.131751462817192">
        <ele>1137.680000000000064</ele>
        <time>2015-02-06T16:46:14Z</time>
      </trkpt>
      <trkpt lat="47.520785378292203" lon="11.131705194711685">
        <ele>1136.539999999999964</ele>
        <time>2015-02-06T16:46:15Z</time>
      </trkpt>
      <trkpt lat="47.520786467939615" lon="11.131666218861938">
        <ele>1136.279999999999973</ele>
        <time>2015-02-06T16:46:16Z</time>
      </trkpt>
      <trkpt lat="47.520775739103556" lon="11.131628667935729">
        <ele>1135.119999999999891</ele>
        <time>2015-02-06T16:46:17Z</time>
      </trkpt>
      <trkpt lat="47.520762998610735" lon="11.131577538326383">
        <ele>1134.579999999999927</ele>
        <time>2015-02-06T16:46:18Z</time>
      </trkpt>
      <trkpt lat="47.520737098529935" lon="11.131521128118038">
        <ele>1133.3900000000001</ele>
        <time>2015-02-06T16:46:19Z</time>
      </trkpt>
      <trkpt lat="47.520701056346297" lon="11.131458766758442">
        <ele>1132.059999999999945</ele>
        <time>2015-02-06T16:46:20Z</time>
      </trkpt>
      <trkpt lat="47.520676497370005" lon="11.131392633542418">
        <ele>1130.680000000000064</ele>
        <time>2015-02-06T16:46:21Z</time>
      </trkpt>
      <trkpt lat="47.520673228427768" lon="11.131346113979816">
        <ele>1128.279999999999973</ele>
        <time>2015-02-06T16:46:22Z</time>
      </trkpt>
      <trkpt lat="47.520677838474512" lon="11.131329601630569">
        <ele>1128.380000000000109</ele>
        <time>2015-02-06T16:46:23Z</time>
      </trkpt>
      <trkpt lat="47.520676078274846" lon="11.131304875016212">
        <ele>1127.849999999999909</ele>
        <time>2015-02-06T16:46:29Z</time>
      </trkpt>
      <trkpt lat="47.520657638087869" lon="11.131251901388168">
        <ele>1127.849999999999909</ele>
        <time>2015-02-06T16:46:31Z</time>
      </trkpt>
      <trkpt lat="47.520644897595048" lon="11.13123681396246">
        <ele>1127.910000000000082</ele>
        <time>2015-02-06T16:46:32Z</time>
      </trkpt>
      <trkpt lat="47.520600808784366" lon="11.131201442331076">
        <ele>1126.869999999999891</ele>
        <time>2015-02-06T16:46:38Z</time>
      </trkpt>
      <trkpt lat="47.520587230101228" lon="11.131196161732078">
        <ele>1127.170000000000073</ele>
        <time>2015-02-06T16:46:39Z</time>
      </trkpt>
      <trkpt lat="47.520549930632114" lon="11.131173446774483">
        <ele>1125.8599999999999</ele>
        <time>2015-02-06T16:46:41Z</time>
      </trkpt>
      <trkpt lat="47.520529562607408" lon="11.131141679361463">
        <ele>1126.519999999999982</ele>
        <time>2015-02-06T16:46:42Z</time>
      </trkpt>
      <trkpt lat="47.520508356392384" lon="11.131127262488008">
        <ele>1125.150000000000091</ele>
        <time>2015-02-06T16:46:43Z</time>
      </trkpt>
      <trkpt lat="47.520491927862167" lon="11.131131453439593">
        <ele>1124.980000000000018</ele>
        <time>2015-02-06T16:46:44Z</time>
      </trkpt>
      <trkpt lat="47.520469799637794" lon="11.131134387105703">
        <ele>1124.430000000000064</ele>
        <time>2015-02-06T16:46:45Z</time>
      </trkpt>
      <trkpt lat="47.520438032224774" lon="11.131118545308709">
        <ele>1124.309999999999945</ele>
        <time>2015-02-06T16:46:46Z</time>
      </trkpt>
      <trkpt lat="47.520407270640135" lon="11.131077893078327">
        <ele>1123.6099999999999</ele>
        <time>2015-02-06T16:46:47Z</time>
      </trkpt>
      <trkpt lat="47.520397715270519" lon="11.131025422364473">
        <ele>1121.619999999999891</ele>
        <time>2015-02-06T16:46:48Z</time>
      </trkpt>
      <trkpt lat="47.520413976162672" lon="11.130982339382172">
        <ele>1120.059999999999945</ele>
        <time>2015-02-06T16:46:49Z</time>
      </trkpt>
      <trkpt lat="47.520445743575692" lon="11.130945207551122">
        <ele>1119.460000000000036</ele>
        <time>2015-02-06T16:46:50Z</time>
      </trkpt>
      <trkpt lat="47.520489329472184" lon="11.130915703251958">
        <ele>1117.720000000000027</ele>
        <time>2015-02-06T16:46:51Z</time>
      </trkpt>
      <trkpt lat="47.520536351948977" lon="11.130893994122744">
        <ele>1116.700000000000045</ele>
        <time>2015-02-06T16:46:52Z</time>
      </trkpt>
      <trkpt lat="47.520584296435118" lon="11.130873626098037">
        <ele>1114.789999999999964</ele>
        <time>2015-02-06T16:46:53Z</time>
      </trkpt>
      <trkpt lat="47.520632995292544" lon="11.130865328013897">
        <ele>1114.230000000000018</ele>
        <time>2015-02-06T16:46:54Z</time>
      </trkpt>
      <trkpt lat="47.520677084103227" lon="11.130866836756468">
        <ele>1112.210000000000036</ele>
        <time>2015-02-06T16:46:55Z</time>
      </trkpt>
      <trkpt lat="47.520716646686196" lon="11.130869686603546">
        <ele>1112</ele>
        <time>2015-02-06T16:46:56Z</time>
      </trkpt>
      <trkpt lat="47.520790072157979" lon="11.130851162597537">
        <ele>1110.819999999999936</ele>
        <time>2015-02-06T16:46:58Z</time>
      </trkpt>
      <trkpt lat="47.520823767408729" lon="11.13075845874846">
        <ele>1108.190000000000055</ele>
        <time>2015-02-06T16:47:00Z</time>
      </trkpt>
      <trkpt lat="47.520808596163988" lon="11.130715208128095">
        <ele>1107.170000000000073</ele>
        <time>2015-02-06T16:47:01Z</time>
      </trkpt>
      <trkpt lat="47.520781522616744" lon="11.130686122924089">
        <ele>1105.259999999999991</ele>
        <time>2015-02-06T16:47:02Z</time>
      </trkpt>
      <trkpt lat="47.520748833194375" lon="11.130664078518748">
        <ele>1105.210000000000036</ele>
        <time>2015-02-06T16:47:03Z</time>
      </trkpt>
      <trkpt lat="47.520712120458484" lon="11.130643710494041">
        <ele>1103.759999999999991</ele>
        <time>2015-02-06T16:47:04Z</time>
      </trkpt>
      <trkpt lat="47.52067775465548" lon="11.130626192316413">
        <ele>1103.480000000000018</ele>
        <time>2015-02-06T16:47:05Z</time>
      </trkpt>
      <trkpt lat="47.520625786855817" lon="11.130608087405562">
        <ele>1102.029999999999973</ele>
        <time>2015-02-06T16:47:08Z</time>
      </trkpt>
      <trkpt lat="47.520624445751309" lon="11.130577912554145">
        <ele>1100.920000000000073</ele>
        <time>2015-02-06T16:47:15Z</time>
      </trkpt>
      <trkpt lat="47.520612711086869" lon="11.130554024130106">
        <ele>1101.25</ele>
        <time>2015-02-06T16:47:16Z</time>
      </trkpt>
      <trkpt lat="47.52059125341475" lon="11.130528878420591">
        <ele>1100.650000000000091</ele>
        <time>2015-02-06T16:47:17Z</time>
      </trkpt>
      <trkpt lat="47.520563760772347" lon="11.130507672205567">
        <ele>1099.619999999999891</ele>
        <time>2015-02-06T16:47:18Z</time>
      </trkpt>
      <trkpt lat="47.520532328635454" lon="11.130487723276019">
        <ele>1099.319999999999936</ele>
        <time>2015-02-06T16:47:19Z</time>
      </trkpt>
      <trkpt lat="47.520502069965005" lon="11.130474815145135">
        <ele>1098.099999999999909</ele>
        <time>2015-02-06T16:47:20Z</time>
      </trkpt>
      <trkpt lat="47.52049108967185" lon="11.130467439070344">
        <ele>1096.309999999999945</ele>
        <time>2015-02-06T16:47:21Z</time>
      </trkpt>
      <trkpt lat="47.520494693890214" lon="11.130463164299726">
        <ele>1096.059999999999945</ele>
        <time>2015-02-06T16:47:22Z</time>
      </trkpt>
      <trkpt lat="47.520483210682869" lon="11.130446568131447">
        <ele>1095.8599999999999</ele>
        <time>2015-02-06T16:47:27Z</time>
      </trkpt>
      <trkpt lat="47.520460076630116" lon="11.13043793477118">
        <ele>1095.380000000000109</ele>
        <time>2015-02-06T16:47:28Z</time>
      </trkpt>
      <trkpt lat="47.520428309217095" lon="11.130416225641966">
        <ele>1093.470000000000027</ele>
        <time>2015-02-06T16:47:29Z</time>
      </trkpt>
      <trkpt lat="47.520410036668181" lon="11.130396109074354">
        <ele>1093.990000000000009</ele>
        <time>2015-02-06T16:47:30Z</time>
      </trkpt>
      <trkpt lat="47.520377766340971" lon="11.13038906827569">
        <ele>1091.839999999999918</ele>
        <time>2015-02-06T16:47:37Z</time>
      </trkpt>
      <trkpt lat="47.520351111888885" lon="11.130406502634287">
        <ele>1091.6099999999999</ele>
        <time>2015-02-06T16:47:38Z</time>
      </trkpt>
      <trkpt lat="47.520313896238804" lon="11.130412621423602">
        <ele>1090.599999999999909</ele>
        <time>2015-02-06T16:47:39Z</time>
      </trkpt>
      <trkpt lat="47.52027215436101" lon="11.130422176793218">
        <ele>1089.400000000000091</ele>
        <time>2015-02-06T16:47:40Z</time>
      </trkpt>
      <trkpt lat="47.520228736102581" lon="11.130424775183201">
        <ele>1088.079999999999927</ele>
        <time>2015-02-06T16:47:41Z</time>
      </trkpt>
      <trkpt lat="47.520187413319945" lon="11.130422847345471">
        <ele>1086.5</ele>
        <time>2015-02-06T16:47:42Z</time>
      </trkpt>
      <trkpt lat="47.520145587623119" lon="11.130429804325104">
        <ele>1085.849999999999909</ele>
        <time>2015-02-06T16:47:43Z</time>
      </trkpt>
      <trkpt lat="47.520102504640818" lon="11.130418656393886">
        <ele>1084.680000000000064</ele>
        <time>2015-02-06T16:47:44Z</time>
      </trkpt>
      <trkpt lat="47.520060678943992" lon="11.13040667027235">
        <ele>1083.470000000000027</ele>
        <time>2015-02-06T16:47:45Z</time>
      </trkpt>
      <trkpt lat="47.520018517971039" lon="11.130406921729445">
        <ele>1082.430000000000064</ele>
        <time>2015-02-06T16:47:46Z</time>
      </trkpt>
      <trkpt lat="47.519972082227468" lon="11.130398288369179">
        <ele>1081.650000000000091</ele>
        <time>2015-02-06T16:47:47Z</time>
      </trkpt>
      <trkpt lat="47.519919276237488" lon="11.130390325561166">
        <ele>1080.039999999999964</ele>
        <time>2015-02-06T16:47:48Z</time>
      </trkpt>
      <trkpt lat="47.519861944019794" lon="11.130373980849981">
        <ele>1079.400000000000091</ele>
        <time>2015-02-06T16:47:49Z</time>
      </trkpt>
      <trkpt lat="47.519804527983069" lon="11.130355205386877">
        <ele>1078.589999999999918</ele>
        <time>2015-02-06T16:47:50Z</time>
      </trkpt>
      <trkpt lat="47.519750213250518" lon="11.130335759371519">
        <ele>1077.269999999999982</ele>
        <time>2015-02-06T16:47:51Z</time>
      </trkpt>
      <trkpt lat="47.519695982336998" lon="11.130306841805577">
        <ele>1076.1099999999999</ele>
        <time>2015-02-06T16:47:52Z</time>
      </trkpt>
      <trkpt lat="47.519522225484252" lon="11.130242133513093">
        <ele>1072.819999999999936</ele>
        <time>2015-02-06T16:47:55Z</time>
      </trkpt>
      <trkpt lat="47.51940194517374" lon="11.130210785195231">
        <ele>1070.809999999999945</ele>
        <time>2015-02-06T16:47:57Z</time>
      </trkpt>
      <trkpt lat="47.519347546622157" lon="11.130193350836635">
        <ele>1069.650000000000091</ele>
        <time>2015-02-06T16:47:58Z</time>
      </trkpt>
      <trkpt lat="47.519295997917652" lon="11.130178850144148">
        <ele>1068.8599999999999</ele>
        <time>2015-02-06T16:47:59Z</time>
      </trkpt>
      <trkpt lat="47.519247215241194" lon="11.130159739404917">
        <ele>1067.3599999999999</ele>
        <time>2015-02-06T16:48:00Z</time>
      </trkpt>
      <trkpt lat="47.519203210249543" lon="11.130137946456671">
        <ele>1066.849999999999909</ele>
        <time>2015-02-06T16:48:01Z</time>
      </trkpt>
      <trkpt lat="47.519159456714988" lon="11.130122859030962">
        <ele>1065.920000000000073</ele>
        <time>2015-02-06T16:48:02Z</time>
      </trkpt>
      <trkpt lat="47.519114278256893" lon="11.130100646987557">
        <ele>1064.819999999999936</ele>
        <time>2015-02-06T16:48:03Z</time>
      </trkpt>
      <trkpt lat="47.519066836684942" lon="11.130080781877041">
        <ele>1064.480000000000018</ele>
        <time>2015-02-06T16:48:04Z</time>
      </trkpt>
      <trkpt lat="47.519019395112991" lon="11.130056474357843">
        <ele>1063.849999999999909</ele>
        <time>2015-02-06T16:48:05Z</time>
      </trkpt>
      <trkpt lat="47.518976144492626" lon="11.130011631175876">
        <ele>1062.900000000000091</ele>
        <time>2015-02-06T16:48:06Z</time>
      </trkpt>
      <trkpt lat="47.518927697092295" lon="11.129976008087397">
        <ele>1061.289999999999964</ele>
        <time>2015-02-06T16:48:07Z</time>
      </trkpt>
      <trkpt lat="47.518883356824517" lon="11.129937702789903">
        <ele>1059.519999999999982</ele>
        <time>2015-02-06T16:48:08Z</time>
      </trkpt>
      <trkpt lat="47.518842117860913" lon="11.129892524331808">
        <ele>1058.940000000000055</ele>
        <time>2015-02-06T16:48:09Z</time>
      </trkpt>
      <trkpt lat="47.518801297992468" lon="11.129862181842327">
        <ele>1057.480000000000018</ele>
        <time>2015-02-06T16:48:10Z</time>
      </trkpt>
      <trkpt lat="47.51875838264823" lon="11.129830330610275">
        <ele>1057.029999999999973</ele>
        <time>2015-02-06T16:48:11Z</time>
      </trkpt>
      <trkpt lat="47.51871588639915" lon="11.129786744713783">
        <ele>1056.210000000000036</ele>
        <time>2015-02-06T16:48:12Z</time>
      </trkpt>
      <trkpt lat="47.518679760396481" lon="11.129743745550513">
        <ele>1056.380000000000109</ele>
        <time>2015-02-06T16:48:13Z</time>
      </trkpt>
      <trkpt lat="47.518644472584128" lon="11.129715330898762">
        <ele>1054.200000000000045</ele>
        <time>2015-02-06T16:48:14Z</time>
      </trkpt>
      <trkpt lat="47.518630474805832" lon="11.129705775529146">
        <ele>1053.980000000000018</ele>
        <time>2015-02-06T16:48:15Z</time>
      </trkpt>
      <trkpt lat="47.518624607473612" lon="11.129688424989581">
        <ele>1053.990000000000009</ele>
        <time>2015-02-06T16:48:23Z</time>
      </trkpt>
      <trkpt lat="47.518611699342728" lon="11.129672918468714">
        <ele>1053.599999999999909</ele>
        <time>2015-02-06T16:48:24Z</time>
      </trkpt>
      <trkpt lat="47.518593007698655" lon="11.129647186025977">
        <ele>1053.880000000000109</ele>
        <time>2015-02-06T16:48:25Z</time>
      </trkpt>
      <trkpt lat="47.518568532541394" lon="11.129615921527147">
        <ele>1053.400000000000091</ele>
        <time>2015-02-06T16:48:26Z</time>
      </trkpt>
      <trkpt lat="47.518534082919359" lon="11.129584992304444">
        <ele>1052.349999999999909</ele>
        <time>2015-02-06T16:48:27Z</time>
      </trkpt>
      <trkpt lat="47.518486389890313" lon="11.129553057253361">
        <ele>1052.170000000000073</ele>
        <time>2015-02-06T16:48:28Z</time>
      </trkpt>
      <trkpt lat="47.518432661890984" lon="11.129524977877736">
        <ele>1051.319999999999936</ele>
        <time>2015-02-06T16:48:29Z</time>
      </trkpt>
      <trkpt lat="47.518264269456267" lon="11.129449624568224">
        <ele>1049.480000000000018</ele>
        <time>2015-02-06T16:48:32Z</time>
      </trkpt>
      <trkpt lat="47.518209619447589" lon="11.129424227401614">
        <ele>1049.079999999999927</ele>
        <time>2015-02-06T16:48:33Z</time>
      </trkpt>
      <trkpt lat="47.517760181799531" lon="11.129324734210968">
        <ele>1046.25</ele>
        <time>2015-02-06T16:48:44Z</time>
      </trkpt>
      <trkpt lat="47.517649121582508" lon="11.129057686775923">
        <ele>1045.059999999999945</ele>
        <time>2015-02-06T16:48:52Z</time>
      </trkpt>
      <trkpt lat="47.517549628391862" lon="11.128588886931539">
        <ele>1043.990000000000009</ele>
        <time>2015-02-06T16:49:06Z</time>
      </trkpt>
      <trkpt lat="47.517388863489032" lon="11.128385039046407">
        <ele>1042.720000000000027</ele>
        <time>2015-02-06T16:49:13Z</time>
      </trkpt>
      <trkpt lat="47.517248969525099" lon="11.128212120383978">
        <ele>1040.180000000000064</ele>
        <time>2015-02-06T16:49:16Z</time>
      </trkpt>
      <trkpt lat="47.517126007005572" lon="11.128002656623721">
        <ele>1038.400000000000091</ele>
        <time>2015-02-06T16:49:19Z</time>
      </trkpt>
      <trkpt lat="47.517042690888047" lon="11.12778028473258">
        <ele>1037.230000000000018</ele>
        <time>2015-02-06T16:49:22Z</time>
      </trkpt>
      <trkpt lat="47.517011929303408" lon="11.127706691622734">
        <ele>1036.589999999999918</ele>
        <time>2015-02-06T16:49:23Z</time>
      </trkpt>
      <trkpt lat="47.516982760280371" lon="11.127635277807713">
        <ele>1035.619999999999891</ele>
        <time>2015-02-06T16:49:24Z</time>
      </trkpt>
      <trkpt lat="47.516954764723778" lon="11.127562019973993">
        <ele>1035.450000000000045</ele>
        <time>2015-02-06T16:49:25Z</time>
      </trkpt>
      <trkpt lat="47.51692165620625" lon="11.127491695806384">
        <ele>1034.990000000000009</ele>
        <time>2015-02-06T16:49:26Z</time>
      </trkpt>
      <trkpt lat="47.516887122765183" lon="11.127423131838441">
        <ele>1034.309999999999945</ele>
        <time>2015-02-06T16:49:27Z</time>
      </trkpt>
      <trkpt lat="47.516740104183555" lon="11.127164214849472">
        <ele>1033.170000000000073</ele>
        <time>2015-02-06T16:49:31Z</time>
      </trkpt>
      <trkpt lat="47.516703894361854" lon="11.127119120210409">
        <ele>1033.160000000000082</ele>
        <time>2015-02-06T16:49:32Z</time>
      </trkpt>
      <trkpt lat="47.516664499416947" lon="11.127086011692882">
        <ele>1033.170000000000073</ele>
        <time>2015-02-06T16:49:33Z</time>
      </trkpt>
      <trkpt lat="47.516298796981573" lon="11.126845618709922">
        <ele>1031.410000000000082</ele>
        <time>2015-02-06T16:49:44Z</time>
      </trkpt>
      <trkpt lat="47.51627566292882" lon="11.126789208501577">
        <ele>1030.869999999999891</ele>
        <time>2015-02-06T16:49:45Z</time>
      </trkpt>
      <trkpt lat="47.516260994598269" lon="11.126718381419778">
        <ele>1030.440000000000055</ele>
        <time>2015-02-06T16:49:46Z</time>
      </trkpt>
      <trkpt lat="47.516243979334831" lon="11.126554766669869">
        <ele>1029.3599999999999</ele>
        <time>2015-02-06T16:49:48Z</time>
      </trkpt>
      <trkpt lat="47.516223946586251" lon="11.126476312056184">
        <ele>1028.230000000000018</ele>
        <time>2015-02-06T16:49:49Z</time>
      </trkpt>
      <trkpt lat="47.516194693744183" lon="11.126405987888575">
        <ele>1027.6099999999999</ele>
        <time>2015-02-06T16:49:50Z</time>
      </trkpt>
      <trkpt lat="47.516165105625987" lon="11.1263442132622">
        <ele>1027.960000000000036</ele>
        <time>2015-02-06T16:49:51Z</time>
      </trkpt>
      <trkpt lat="47.516129985451698" lon="11.126290149986744">
        <ele>1027.079999999999927</ele>
        <time>2015-02-06T16:49:52Z</time>
      </trkpt>
      <trkpt lat="47.516095452010632" lon="11.126241534948349">
        <ele>1026.430000000000064</ele>
        <time>2015-02-06T16:49:53Z</time>
      </trkpt>
      <trkpt lat="47.51606703735888" lon="11.126194344833493">
        <ele>1026.210000000000036</ele>
        <time>2015-02-06T16:49:54Z</time>
      </trkpt>
      <trkpt lat="47.515862938016653" lon="11.12573241814971">
        <ele>1024.710000000000036</ele>
        <time>2015-02-06T16:50:05Z</time>
      </trkpt>
      <trkpt lat="47.515784399583936" lon="11.125122215598822">
        <ele>1022.740000000000009</ele>
        <time>2015-02-06T16:50:17Z</time>
      </trkpt>
      <trkpt lat="47.515763444826007" lon="11.1249990016222">
        <ele>1021.92999999999995</ele>
        <time>2015-02-06T16:50:19Z</time>
      </trkpt>
      <trkpt lat="47.51574793830514" lon="11.124947620555758">
        <ele>1021.779999999999973</ele>
        <time>2015-02-06T16:50:20Z</time>
      </trkpt>
      <trkpt lat="47.51572790555656" lon="11.124904034659266">
        <ele>1021.57000000000005</ele>
        <time>2015-02-06T16:50:21Z</time>
      </trkpt>
      <trkpt lat="47.515705777332187" lon="11.124864807352424">
        <ele>1021.57000000000005</ele>
        <time>2015-02-06T16:50:22Z</time>
      </trkpt>
      <trkpt lat="47.51568297855556" lon="11.124829351902008">
        <ele>1021.92999999999995</ele>
        <time>2015-02-06T16:50:23Z</time>
      </trkpt>
      <trkpt lat="47.515659760683775" lon="11.124796075746417">
        <ele>1021.019999999999982</ele>
        <time>2015-02-06T16:50:24Z</time>
      </trkpt>
      <trkpt lat="47.515564877539873" lon="11.124624414369464">
        <ele>1020.029999999999973</ele>
        <time>2015-02-06T16:50:28Z</time>
      </trkpt>
      <trkpt lat="47.515543755143881" lon="11.124569680541754">
        <ele>1020.460000000000036</ele>
        <time>2015-02-06T16:50:29Z</time>
      </trkpt>
      <trkpt lat="47.515512323006988" lon="11.124514611437917">
        <ele>1019.470000000000027</ele>
        <time>2015-02-06T16:50:30Z</time>
      </trkpt>
      <trkpt lat="47.515474101528525" lon="11.124456189572811">
        <ele>1019.450000000000045</ele>
        <time>2015-02-06T16:50:31Z</time>
      </trkpt>
      <trkpt lat="47.515429928898811" lon="11.124397264793515">
        <ele>1018.009999999999991</ele>
        <time>2015-02-06T16:50:32Z</time>
      </trkpt>
      <trkpt lat="47.515334542840719" lon="11.124286288395524">
        <ele>1016.610000000000014</ele>
        <time>2015-02-06T16:50:34Z</time>
      </trkpt>
      <trkpt lat="47.515283077955246" lon="11.124237002804875">
        <ele>1016.370000000000005</ele>
        <time>2015-02-06T16:50:35Z</time>
      </trkpt>
      <trkpt lat="47.515001194551587" lon="11.124026365578175">
        <ele>1013.230000000000018</ele>
        <time>2015-02-06T16:50:40Z</time>
      </trkpt>
      <trkpt lat="47.514717550948262" lon="11.123859565705061">
        <ele>1009.850000000000023</ele>
        <time>2015-02-06T16:50:44Z</time>
      </trkpt>
      <trkpt lat="47.514654854312539" lon="11.123811285942793">
        <ele>1009.289999999999964</ele>
        <time>2015-02-06T16:50:45Z</time>
      </trkpt>
      <trkpt lat="47.514602383598685" lon="11.123758982867002">
        <ele>1009.480000000000018</ele>
        <time>2015-02-06T16:50:46Z</time>
      </trkpt>
      <trkpt lat="47.514561144635081" lon="11.123705003410578">
        <ele>1009.129999999999995</ele>
        <time>2015-02-06T16:50:47Z</time>
      </trkpt>
      <trkpt lat="47.514525856822729" lon="11.123651526868343">
        <ele>1008.620000000000005</ele>
        <time>2015-02-06T16:50:48Z</time>
      </trkpt>
      <trkpt lat="47.51449266448617" lon="11.123594613745809">
        <ele>1007.840000000000032</ele>
        <time>2015-02-06T16:50:49Z</time>
      </trkpt>
      <trkpt lat="47.514465758576989" lon="11.123529821634293">
        <ele>1007.850000000000023</ele>
        <time>2015-02-06T16:50:50Z</time>
      </trkpt>
      <trkpt lat="47.514442373067141" lon="11.12345396541059">
        <ele>1006.740000000000009</ele>
        <time>2015-02-06T16:50:51Z</time>
      </trkpt>
      <trkpt lat="47.514417981728911" lon="11.123369224369526">
        <ele>1006.269999999999982</ele>
        <time>2015-02-06T16:50:52Z</time>
      </trkpt>
      <trkpt lat="47.51436416991055" lon="11.123178955167532">
        <ele>1003.5</ele>
        <time>2015-02-06T16:50:54Z</time>
      </trkpt>
      <trkpt lat="47.514339862391353" lon="11.123080467805266">
        <ele>1002.67999999999995</ele>
        <time>2015-02-06T16:50:55Z</time>
      </trkpt>
      <trkpt lat="47.51430993899703" lon="11.122992625460029">
        <ele>1002.389999999999986</ele>
        <time>2015-02-06T16:50:56Z</time>
      </trkpt>
      <trkpt lat="47.51428009942174" lon="11.122905621305108">
        <ele>1001.240000000000009</ele>
        <time>2015-02-06T16:50:57Z</time>
      </trkpt>
      <trkpt lat="47.5142459012568" lon="11.122835883870721">
        <ele>999.360000000000014</ele>
        <time>2015-02-06T16:50:58Z</time>
      </trkpt>
      <trkpt lat="47.51421513967216" lon="11.122776288539171">
        <ele>998.389999999999986</ele>
        <time>2015-02-06T16:50:59Z</time>
      </trkpt>
      <trkpt lat="47.514195945113897" lon="11.122709820047021">
        <ele>997.889999999999986</ele>
        <time>2015-02-06T16:51:00Z</time>
      </trkpt>
      <trkpt lat="47.514175493270159" lon="11.122659277170897">
        <ele>996.67999999999995</ele>
        <time>2015-02-06T16:51:01Z</time>
      </trkpt>
      <trkpt lat="47.514144480228424" lon="11.122621726244688">
        <ele>996.080000000000041</ele>
        <time>2015-02-06T16:51:02Z</time>
      </trkpt>
      <trkpt lat="47.514115059748292" lon="11.122571518644691">
        <ele>995.07000000000005</ele>
        <time>2015-02-06T16:51:03Z</time>
      </trkpt>
      <trkpt lat="47.514087902382016" lon="11.122512090951204">
        <ele>994.159999999999968</ele>
        <time>2015-02-06T16:51:04Z</time>
      </trkpt>
      <trkpt lat="47.514052866026759" lon="11.122467163950205">
        <ele>992.330000000000041</ele>
        <time>2015-02-06T16:51:05Z</time>
      </trkpt>
      <trkpt lat="47.51401087269187" lon="11.122422656044364">
        <ele>991.590000000000032</ele>
        <time>2015-02-06T16:51:06Z</time>
      </trkpt>
      <trkpt lat="47.513978686183691" lon="11.122361551970243">
        <ele>989.92999999999995</ele>
        <time>2015-02-06T16:51:07Z</time>
      </trkpt>
      <trkpt lat="47.513943649828434" lon="11.122316289693117">
        <ele>989</ele>
        <time>2015-02-06T16:51:08Z</time>
      </trkpt>
      <trkpt lat="47.513904506340623" lon="11.122285947203636">
        <ele>987.92999999999995</ele>
        <time>2015-02-06T16:51:09Z</time>
      </trkpt>
      <trkpt lat="47.513864608481526" lon="11.122243450954556">
        <ele>986.700000000000045</ele>
        <time>2015-02-06T16:51:10Z</time>
      </trkpt>
      <trkpt lat="47.513815574347973" lon="11.122213695198298">
        <ele>986.009999999999991</ele>
        <time>2015-02-06T16:51:11Z</time>
      </trkpt>
      <trkpt lat="47.513761343434453" lon="11.12219424918294">
        <ele>985.580000000000041</ele>
        <time>2015-02-06T16:51:12Z</time>
      </trkpt>
      <trkpt lat="47.513700239360332" lon="11.122177317738533">
        <ele>984.379999999999995</ele>
        <time>2015-02-06T16:51:13Z</time>
      </trkpt>
      <trkpt lat="47.513631675392389" lon="11.122156027704477">
        <ele>983.039999999999964</ele>
        <time>2015-02-06T16:51:14Z</time>
      </trkpt>
      <trkpt lat="47.513562189415097" lon="11.122126439586282">
        <ele>981.769999999999982</ele>
        <time>2015-02-06T16:51:15Z</time>
      </trkpt>
      <trkpt lat="47.513407627120614" lon="11.122064832597971">
        <ele>980.450000000000045</ele>
        <time>2015-02-06T16:51:17Z</time>
      </trkpt>
      <trkpt lat="47.513263206928968" lon="11.122000040486455">
        <ele>977.879999999999995</ele>
        <time>2015-02-06T16:51:19Z</time>
      </trkpt>
      <trkpt lat="47.513195984065533" lon="11.121969446539879">
        <ele>976.669999999999959</ele>
        <time>2015-02-06T16:51:20Z</time>
      </trkpt>
      <trkpt lat="47.513133957982063" lon="11.121938265860081">
        <ele>976.279999999999973</ele>
        <time>2015-02-06T16:51:21Z</time>
      </trkpt>
      <trkpt lat="47.513009402900934" lon="11.121876323595643">
        <ele>975.25</ele>
        <time>2015-02-06T16:51:23Z</time>
      </trkpt>
      <trkpt lat="47.51294712536037" lon="11.121844053268433">
        <ele>974.32000000000005</ele>
        <time>2015-02-06T16:51:24Z</time>
      </trkpt>
      <trkpt lat="47.51288803294301" lon="11.121809938922524">
        <ele>973.730000000000018</ele>
        <time>2015-02-06T16:51:25Z</time>
      </trkpt>
      <trkpt lat="47.512767584994435" lon="11.121739698573947">
        <ele>971.809999999999945</ele>
        <time>2015-02-06T16:51:27Z</time>
      </trkpt>
      <trkpt lat="47.512710252776742" lon="11.121704997494817">
        <ele>970.899999999999977</ele>
        <time>2015-02-06T16:51:28Z</time>
      </trkpt>
      <trkpt lat="47.512653926387429" lon="11.121666440740228">
        <ele>970.549999999999955</ele>
        <time>2015-02-06T16:51:29Z</time>
      </trkpt>
      <trkpt lat="47.512499950826168" lon="11.121523948386312">
        <ele>967.419999999999959</ele>
        <time>2015-02-06T16:51:32Z</time>
      </trkpt>
      <trkpt lat="47.512443959712982" lon="11.12146963365376">
        <ele>966.330000000000041</ele>
        <time>2015-02-06T16:51:33Z</time>
      </trkpt>
      <trkpt lat="47.51238520257175" lon="11.121415989473462">
        <ele>965.409999999999968</ele>
        <time>2015-02-06T16:51:34Z</time>
      </trkpt>
      <trkpt lat="47.512325439602137" lon="11.121362848207355">
        <ele>964.169999999999959</ele>
        <time>2015-02-06T16:51:35Z</time>
      </trkpt>
      <trkpt lat="47.512261150404811" lon="11.121315071359277">
        <ele>962.860000000000014</ele>
        <time>2015-02-06T16:51:36Z</time>
      </trkpt>
      <trkpt lat="47.512192670255899" lon="11.121263690292835">
        <ele>961.899999999999977</ele>
        <time>2015-02-06T16:51:37Z</time>
      </trkpt>
      <trkpt lat="47.512120418250561" lon="11.121210800483823">
        <ele>960.940000000000055</ele>
        <time>2015-02-06T16:51:38Z</time>
      </trkpt>
      <trkpt lat="47.512041460722685" lon="11.121159419417381">
        <ele>959.549999999999955</ele>
        <time>2015-02-06T16:51:39Z</time>
      </trkpt>
      <trkpt lat="47.511717500165105" lon="11.120975604280829">
        <ele>955.17999999999995</ele>
        <time>2015-02-06T16:51:43Z</time>
      </trkpt>
      <trkpt lat="47.511496217921376" lon="11.120871165767312">
        <ele>951.990000000000009</ele>
        <time>2015-02-06T16:51:46Z</time>
      </trkpt>
      <trkpt lat="47.511369986459613" lon="11.120802853256464">
        <ele>951.190000000000055</ele>
        <time>2015-02-06T16:51:48Z</time>
      </trkpt>
      <trkpt lat="47.511308463290334" lon="11.120758764445782">
        <ele>950.269999999999982</ele>
        <time>2015-02-06T16:51:49Z</time>
      </trkpt>
      <trkpt lat="47.511024232953787" lon="11.120535722002387">
        <ele>945.509999999999991</ele>
        <time>2015-02-06T16:51:53Z</time>
      </trkpt>
      <trkpt lat="47.510948376730084" lon="11.120482748374343">
        <ele>944.730000000000018</ele>
        <time>2015-02-06T16:51:54Z</time>
      </trkpt>
      <trkpt lat="47.510816864669323" lon="11.120377890765667">
        <ele>943.120000000000005</ele>
        <time>2015-02-06T16:51:56Z</time>
      </trkpt>
      <trkpt lat="47.510757185518742" lon="11.120346877723932">
        <ele>943.440000000000055</ele>
        <time>2015-02-06T16:51:57Z</time>
      </trkpt>
      <trkpt lat="47.510653920471668" lon="11.120301112532616">
        <ele>942.269999999999982</ele>
        <time>2015-02-06T16:51:59Z</time>
      </trkpt>
      <trkpt lat="47.510612765327096" lon="11.120271105319262">
        <ele>941.240000000000009</ele>
        <time>2015-02-06T16:52:00Z</time>
      </trkpt>
      <trkpt lat="47.510579824447632" lon="11.120247049257159">
        <ele>941.220000000000027</ele>
        <time>2015-02-06T16:52:01Z</time>
      </trkpt>
      <trkpt lat="47.510558618232608" lon="11.120237158611417">
        <ele>940.610000000000014</ele>
        <time>2015-02-06T16:52:02Z</time>
      </trkpt>
      <trkpt lat="47.510546548292041" lon="11.120232464745641">
        <ele>941.100000000000023</ele>
        <time>2015-02-06T16:52:03Z</time>
      </trkpt>
      <trkpt lat="47.510525677353144" lon="11.120186448097229">
        <ele>941.559999999999945</ele>
        <time>2015-02-06T16:52:21Z</time>
      </trkpt>
      <trkpt lat="47.510521318763494" lon="11.120193153619766">
        <ele>942.669999999999959</ele>
        <time>2015-02-06T16:52:44Z</time>
      </trkpt>
      <trkpt lat="47.51051670871675" lon="11.120195165276527">
        <ele>941.860000000000014</ele>
        <time>2015-02-06T16:53:05Z</time>
      </trkpt>
      <trkpt lat="47.510501034557819" lon="11.120187370106578">
        <ele>942.009999999999991</ele>
        <time>2015-02-06T16:53:24Z</time>
      </trkpt>
      <trkpt lat="47.510448144748807" lon="11.120173875242472">
        <ele>942.490000000000009</ele>
        <time>2015-02-06T16:53:32Z</time>
      </trkpt>
      <trkpt lat="47.510410761460662" lon="11.120162475854158">
        <ele>941.559999999999945</ele>
        <time>2015-02-06T16:53:34Z</time>
      </trkpt>
      <trkpt lat="47.510383017361164" lon="11.12016842700541">
        <ele>940.350000000000023</ele>
        <time>2015-02-06T16:53:35Z</time>
      </trkpt>
      <trkpt lat="47.51035301014781" lon="11.120181335136294">
        <ele>940.340000000000032</ele>
        <time>2015-02-06T16:53:36Z</time>
      </trkpt>
      <trkpt lat="47.510321661829948" lon="11.120180413126945">
        <ele>939.779999999999973</ele>
        <time>2015-02-06T16:53:37Z</time>
      </trkpt>
      <trkpt lat="47.510282015427947" lon="11.12018158659339">
        <ele>938.720000000000027</ele>
        <time>2015-02-06T16:53:38Z</time>
      </trkpt>
      <trkpt lat="47.510235328227282" lon="11.120177898555994">
        <ele>937.769999999999982</ele>
        <time>2015-02-06T16:53:39Z</time>
      </trkpt>
      <trkpt lat="47.510185874998569" lon="11.12015912309289">
        <ele>936.350000000000023</ele>
        <time>2015-02-06T16:53:40Z</time>
      </trkpt>
      <trkpt lat="47.510135667398572" lon="11.120148226618767">
        <ele>935.710000000000036</ele>
        <time>2015-02-06T16:53:41Z</time>
      </trkpt>
      <trkpt lat="47.51008914783597" lon="11.120131462812424">
        <ele>935.100000000000023</ele>
        <time>2015-02-06T16:53:42Z</time>
      </trkpt>
      <trkpt lat="47.510044807568192" lon="11.120117716491222">
        <ele>933.629999999999995</ele>
        <time>2015-02-06T16:53:43Z</time>
      </trkpt>
      <trkpt lat="47.509996946901083" lon="11.12011126242578">
        <ele>933.139999999999986</ele>
        <time>2015-02-06T16:53:44Z</time>
      </trkpt>
      <trkpt lat="47.509947577491403" lon="11.120109669864178">
        <ele>931.529999999999973</ele>
        <time>2015-02-06T16:53:45Z</time>
      </trkpt>
      <trkpt lat="47.50989368185401" lon="11.120109669864178">
        <ele>931.110000000000014</ele>
        <time>2015-02-06T16:53:46Z</time>
      </trkpt>
      <trkpt lat="47.509841546416283" lon="11.120101120322943">
        <ele>929.559999999999945</ele>
        <time>2015-02-06T16:53:47Z</time>
      </trkpt>
      <trkpt lat="47.509786561131477" lon="11.120085613802075">
        <ele>928.809999999999945</ele>
        <time>2015-02-06T16:53:48Z</time>
      </trkpt>
      <trkpt lat="47.509732497856021" lon="11.120056863874197">
        <ele>928.100000000000023</ele>
        <time>2015-02-06T16:53:49Z</time>
      </trkpt>
      <trkpt lat="47.509677764028311" lon="11.120038507506251">
        <ele>926.950000000000045</ele>
        <time>2015-02-06T16:53:50Z</time>
      </trkpt>
      <trkpt lat="47.509621772915125" lon="11.120016798377037">
        <ele>926.539999999999964</ele>
        <time>2015-02-06T16:53:51Z</time>
      </trkpt>
      <trkpt lat="47.509568631649017" lon="11.119986958801746">
        <ele>925</ele>
        <time>2015-02-06T16:53:52Z</time>
      </trkpt>
      <trkpt lat="47.509514233097434" lon="11.119961058720946">
        <ele>924.029999999999973</ele>
        <time>2015-02-06T16:53:53Z</time>
      </trkpt>
      <trkpt lat="47.509459834545851" lon="11.119943037629128">
        <ele>922.799999999999955</ele>
        <time>2015-02-06T16:53:54Z</time>
      </trkpt>
      <trkpt lat="47.509359335526824" lon="11.119923423975706">
        <ele>921.399999999999977</ele>
        <time>2015-02-06T16:53:56Z</time>
      </trkpt>
      <trkpt lat="47.509310385212302" lon="11.119898026809096">
        <ele>920.919999999999959</ele>
        <time>2015-02-06T16:53:57Z</time>
      </trkpt>
      <trkpt lat="47.50925749540329" lon="11.119871120899916">
        <ele>919.789999999999964</ele>
        <time>2015-02-06T16:53:58Z</time>
      </trkpt>
      <trkpt lat="47.509154649451375" lon="11.119812112301588">
        <ele>918.799999999999955</ele>
        <time>2015-02-06T16:54:00Z</time>
      </trkpt>
      <trkpt lat="47.509107207879424" lon="11.119779841974378">
        <ele>917.159999999999968</ele>
        <time>2015-02-06T16:54:01Z</time>
      </trkpt>
      <trkpt lat="47.509058844298124" lon="11.119746817275882">
        <ele>916.029999999999973</ele>
        <time>2015-02-06T16:54:02Z</time>
      </trkpt>
      <trkpt lat="47.509009893983603" lon="11.119702728465199">
        <ele>914.75</ele>
        <time>2015-02-06T16:54:03Z</time>
      </trkpt>
      <trkpt lat="47.508954908698797" lon="11.119663501158357">
        <ele>914.019999999999982</ele>
        <time>2015-02-06T16:54:04Z</time>
      </trkpt>
      <trkpt lat="47.508903443813324" lon="11.119621507823467">
        <ele>912.879999999999995</ele>
        <time>2015-02-06T16:54:05Z</time>
      </trkpt>
      <trkpt lat="47.508856756612659" lon="11.119580771774054">
        <ele>912.860000000000014</ele>
        <time>2015-02-06T16:54:06Z</time>
      </trkpt>
      <trkpt lat="47.508810488507152" lon="11.119551351293921">
        <ele>911.809999999999945</ele>
        <time>2015-02-06T16:54:07Z</time>
      </trkpt>
      <trkpt lat="47.508765645325184" lon="11.11952050589025">
        <ele>911.230000000000018</ele>
        <time>2015-02-06T16:54:08Z</time>
      </trkpt>
      <trkpt lat="47.508721640333533" lon="11.119477087631822">
        <ele>910.519999999999982</ele>
        <time>2015-02-06T16:54:09Z</time>
      </trkpt>
      <trkpt lat="47.508674869313836" lon="11.119435513392091">
        <ele>909.419999999999959</ele>
        <time>2015-02-06T16:54:10Z</time>
      </trkpt>
      <trkpt lat="47.508628014475107" lon="11.119392262771726">
        <ele>908.419999999999959</ele>
        <time>2015-02-06T16:54:11Z</time>
      </trkpt>
      <trkpt lat="47.508587697520852" lon="11.119332164525986">
        <ele>907.370000000000005</ele>
        <time>2015-02-06T16:54:12Z</time>
      </trkpt>
      <trkpt lat="47.508541513234377" lon="11.119283214211464">
        <ele>905.539999999999964</ele>
        <time>2015-02-06T16:54:13Z</time>
      </trkpt>
      <trkpt lat="47.508492143824697" lon="11.119243819266558">
        <ele>905.200000000000045</ele>
        <time>2015-02-06T16:54:14Z</time>
      </trkpt>
      <trkpt lat="47.508449228480458" lon="11.119199898093939">
        <ele>904.490000000000009</ele>
        <time>2015-02-06T16:54:15Z</time>
      </trkpt>
      <trkpt lat="47.508384939283133" lon="11.119163101539016">
        <ele>903.110000000000014</ele>
        <time>2015-02-06T16:54:17Z</time>
      </trkpt>
      <trkpt lat="47.50838577747345" lon="11.11913887783885">
        <ele>903.809999999999945</ele>
        <time>2015-02-06T16:54:28Z</time>
      </trkpt>
      <trkpt lat="47.508385945111513" lon="11.119125718250871">
        <ele>903.080000000000041</ele>
        <time>2015-02-06T16:54:42Z</time>
      </trkpt>
      <trkpt lat="47.508389130234718" lon="11.119136530905962">
        <ele>903.019999999999982</ele>
        <time>2015-02-06T16:55:01Z</time>
      </trkpt>
      <trkpt lat="47.50838091596961" lon="11.119132842868567">
        <ele>903.389999999999986</ele>
        <time>2015-02-06T16:55:17Z</time>
      </trkpt>
      <trkpt lat="47.508374797180295" lon="11.119128232821822">
        <ele>904.080000000000041</ele>
        <time>2015-02-06T16:55:33Z</time>
      </trkpt>
      <trkpt lat="47.508377647027373" lon="11.119117252528667">
        <ele>903.289999999999964</ele>
        <time>2015-02-06T16:55:49Z</time>
      </trkpt>
      <trkpt lat="47.508363230153918" lon="11.119129741564393">
        <ele>903.789999999999964</ele>
        <time>2015-02-06T16:56:06Z</time>
      </trkpt>
      <trkpt lat="47.508368426933885" lon="11.119130328297615">
        <ele>903.809999999999945</ele>
        <time>2015-02-06T16:56:25Z</time>
      </trkpt>
      <trkpt lat="47.508362643420696" lon="11.119137117639184">
        <ele>903.789999999999964</ele>
        <time>2015-02-06T16:56:46Z</time>
      </trkpt>
      <trkpt lat="47.508351914584637" lon="11.119176764041185">
        <ele>904.509999999999991</ele>
        <time>2015-02-06T16:57:08Z</time>
      </trkpt>
      <trkpt lat="47.508367253467441" lon="11.11916821449995">
        <ele>905.590000000000032</ele>
        <time>2015-02-06T16:57:23Z</time>
      </trkpt>
      <trkpt lat="47.508359961211681" lon="11.119148852303624">
        <ele>906.389999999999986</ele>
        <time>2015-02-06T16:57:44Z</time>
      </trkpt>
      <trkpt lat="47.50835401006043" lon="11.119129490107298">
        <ele>905.460000000000036</ele>
        <time>2015-02-06T16:57:52Z</time>
      </trkpt>
      <trkpt lat="47.508308161050081" lon="11.119052125141025">
        <ele>903.899999999999977</ele>
        <time>2015-02-06T16:57:55Z</time>
      </trkpt>
      <trkpt lat="47.508266251534224" lon="11.119020106270909">
        <ele>903.210000000000036</ele>
        <time>2015-02-06T16:57:57Z</time>
      </trkpt>
      <trkpt lat="47.508202716708183" lon="11.118980376049876">
        <ele>901.92999999999995</ele>
        <time>2015-02-06T16:58:00Z</time>
      </trkpt>
      <trkpt lat="47.508176565170288" lon="11.118969144299626">
        <ele>901.370000000000005</ele>
        <time>2015-02-06T16:58:01Z</time>
      </trkpt>
      <trkpt lat="47.508113868534565" lon="11.118851378560066">
        <ele>897.67999999999995</ele>
        <time>2015-02-06T16:58:06Z</time>
      </trkpt>
      <trkpt lat="47.508123842999339" lon="11.118733193725348">
        <ele>894.059999999999945</ele>
        <time>2015-02-06T16:58:09Z</time>
      </trkpt>
      <trkpt lat="47.508086292073131" lon="11.118665132671595">
        <ele>890.919999999999959</ele>
        <time>2015-02-06T16:58:11Z</time>
      </trkpt>
      <trkpt lat="47.508042454719543" lon="11.118503110483289">
        <ele>885.149999999999977</ele>
        <time>2015-02-06T16:58:15Z</time>
      </trkpt>
      <trkpt lat="47.508022421970963" lon="11.11840789206326">
        <ele>881.899999999999977</ele>
        <time>2015-02-06T16:58:17Z</time>
      </trkpt>
      <trkpt lat="47.507975650951266" lon="11.118263890966773">
        <ele>877.190000000000055</ele>
        <time>2015-02-06T16:58:20Z</time>
      </trkpt>
      <trkpt lat="47.507954612374306" lon="11.118220221251249">
        <ele>877.029999999999973</ele>
        <time>2015-02-06T16:58:21Z</time>
      </trkpt>
      <trkpt lat="47.507933992892504" lon="11.118170516565442">
        <ele>875.649999999999977</ele>
        <time>2015-02-06T16:58:22Z</time>
      </trkpt>
      <trkpt lat="47.507910188287497" lon="11.11811863258481">
        <ele>873.389999999999986</ele>
        <time>2015-02-06T16:58:23Z</time>
      </trkpt>
      <trkpt lat="47.507886299863458" lon="11.118059623986483">
        <ele>871.440000000000055</ele>
        <time>2015-02-06T16:58:24Z</time>
      </trkpt>
      <trkpt lat="47.507859310135245" lon="11.117995334789157">
        <ele>870.210000000000036</ele>
        <time>2015-02-06T16:58:25Z</time>
      </trkpt>
      <trkpt lat="47.507816646248102" lon="11.117951748892665">
        <ele>868.600000000000023</ele>
        <time>2015-02-06T16:58:26Z</time>
      </trkpt>
      <trkpt lat="47.507770545780659" lon="11.117919143289328">
        <ele>867.519999999999982</ele>
        <time>2015-02-06T16:58:27Z</time>
      </trkpt>
      <trkpt lat="47.507734755054116" lon="11.117872120812535">
        <ele>867.110000000000014</ele>
        <time>2015-02-06T16:58:28Z</time>
      </trkpt>
      <trkpt lat="47.507706927135587" lon="11.117825685068965">
        <ele>866.190000000000055</ele>
        <time>2015-02-06T16:58:29Z</time>
      </trkpt>
      <trkpt lat="47.507678093388677" lon="11.117797354236245">
        <ele>865</ele>
        <time>2015-02-06T16:58:30Z</time>
      </trkpt>
      <trkpt lat="47.507646074518561" lon="11.117775226011872">
        <ele>864.360000000000014</ele>
        <time>2015-02-06T16:58:31Z</time>
      </trkpt>
      <trkpt lat="47.507611373439431" lon="11.117746140807867">
        <ele>863.399999999999977</ele>
        <time>2015-02-06T16:58:32Z</time>
      </trkpt>
      <trkpt lat="47.507571307942271" lon="11.117704985663295">
        <ele>863.539999999999964</ele>
        <time>2015-02-06T16:58:33Z</time>
      </trkpt>
      <trkpt lat="47.507461337372661" lon="11.117584286257625">
        <ele>860.470000000000027</ele>
        <time>2015-02-06T16:58:35Z</time>
      </trkpt>
      <trkpt lat="47.507334938272834" lon="11.117446655407548">
        <ele>857.960000000000036</ele>
        <time>2015-02-06T16:58:37Z</time>
      </trkpt>
      <trkpt lat="47.507269894704223" lon="11.117391334846616">
        <ele>857.710000000000036</ele>
        <time>2015-02-06T16:58:38Z</time>
      </trkpt>
      <trkpt lat="47.507209545001388" lon="11.117331823334098">
        <ele>856.720000000000027</ele>
        <time>2015-02-06T16:58:39Z</time>
      </trkpt>
      <trkpt lat="47.506891032680869" lon="11.116918511688709">
        <ele>854.120000000000005</ele>
        <time>2015-02-06T16:58:46Z</time>
      </trkpt>
      <trkpt lat="47.506827581673861" lon="11.116814073175192">
        <ele>853.080000000000041</ele>
        <time>2015-02-06T16:58:48Z</time>
      </trkpt>
      <trkpt lat="47.506792545318604" lon="11.116768140345812">
        <ele>852.539999999999964</ele>
        <time>2015-02-06T16:58:49Z</time>
      </trkpt>
      <trkpt lat="47.506751306355" lon="11.11672799102962">
        <ele>851.57000000000005</ele>
        <time>2015-02-06T16:58:50Z</time>
      </trkpt>
      <trkpt lat="47.506713587790728" lon="11.116666551679373">
        <ele>849.960000000000036</ele>
        <time>2015-02-06T16:58:51Z</time>
      </trkpt>
      <trkpt lat="47.5066839158535" lon="11.116581223905087">
        <ele>848.799999999999955</ele>
        <time>2015-02-06T16:58:52Z</time>
      </trkpt>
      <trkpt lat="47.506650723516941" lon="11.116496901959181">
        <ele>847.039999999999964</ele>
        <time>2015-02-06T16:58:53Z</time>
      </trkpt>
      <trkpt lat="47.506616692990065" lon="11.116414340212941">
        <ele>846.690000000000055</ele>
        <time>2015-02-06T16:58:54Z</time>
      </trkpt>
      <trkpt lat="47.506547123193741" lon="11.116246366873384">
        <ele>845.42999999999995</ele>
        <time>2015-02-06T16:58:56Z</time>
      </trkpt>
      <trkpt lat="47.506472859531641" lon="11.116097839549184">
        <ele>844.92999999999995</ele>
        <time>2015-02-06T16:58:58Z</time>
      </trkpt>
      <trkpt lat="47.506405804306269" lon="11.115958783775568">
        <ele>841.159999999999968</ele>
        <time>2015-02-06T16:59:00Z</time>
      </trkpt>
      <trkpt lat="47.506257612258196" lon="11.115793492645025">
        <ele>837.990000000000009</ele>
        <time>2015-02-06T16:59:03Z</time>
      </trkpt>
      <trkpt lat="47.50599442049861" lon="11.115549243986607">
        <ele>834.549999999999955</ele>
        <time>2015-02-06T16:59:08Z</time>
      </trkpt>
      <trkpt lat="47.50594069249928" lon="11.115510016679764">
        <ele>834.759999999999991</ele>
        <time>2015-02-06T16:59:09Z</time>
      </trkpt>
      <trkpt lat="47.505884449928999" lon="11.115484535694122">
        <ele>833.789999999999964</ele>
        <time>2015-02-06T16:59:10Z</time>
      </trkpt>
      <trkpt lat="47.505646403878927" lon="11.115383366122842">
        <ele>831.549999999999955</ele>
        <time>2015-02-06T16:59:14Z</time>
      </trkpt>
      <trkpt lat="47.505283383652568" lon="11.115216398611665">
        <ele>830.639999999999986</ele>
        <time>2015-02-06T16:59:24Z</time>
      </trkpt>
      <trkpt lat="47.50503720715642" lon="11.115019591525197">
        <ele>830.07000000000005</ele>
        <time>2015-02-06T16:59:35Z</time>
      </trkpt>
      <trkpt lat="47.504779547452927" lon="11.114737037569284">
        <ele>828.759999999999991</ele>
        <time>2015-02-06T16:59:45Z</time>
      </trkpt>
      <trkpt lat="47.504522558301687" lon="11.114528495818377">
        <ele>828.600000000000023</ele>
        <time>2015-02-06T16:59:55Z</time>
      </trkpt>
      <trkpt lat="47.504380568861961" lon="11.114453142508864">
        <ele>826.42999999999995</ele>
        <time>2015-02-06T16:59:58Z</time>
      </trkpt>
      <trkpt lat="47.504276214167476" lon="11.114368150010705">
        <ele>824.519999999999982</ele>
        <time>2015-02-06T17:00:00Z</time>
      </trkpt>
      <trkpt lat="47.504227012395859" lon="11.114305285736918">
        <ele>824.139999999999986</ele>
        <time>2015-02-06T17:00:01Z</time>
      </trkpt>
      <trkpt lat="47.50417429022491" lon="11.11423990689218">
        <ele>822.740000000000009</ele>
        <time>2015-02-06T17:00:02Z</time>
      </trkpt>
      <trkpt lat="47.503946470096707" lon="11.113996328786016">
        <ele>818.700000000000045</ele>
        <time>2015-02-06T17:00:06Z</time>
      </trkpt>
      <trkpt lat="47.503891820088029" lon="11.113941092044115">
        <ele>817.809999999999945</ele>
        <time>2015-02-06T17:00:07Z</time>
      </trkpt>
      <trkpt lat="47.503842115402222" lon="11.113877473399043">
        <ele>817.159999999999968</ele>
        <time>2015-02-06T17:00:08Z</time>
      </trkpt>
      <trkpt lat="47.503796517848969" lon="11.113802706822753">
        <ele>815.539999999999964</ele>
        <time>2015-02-06T17:00:09Z</time>
      </trkpt>
      <trkpt lat="47.503751507028937" lon="11.113716624677181">
        <ele>814.039999999999964</ele>
        <time>2015-02-06T17:00:10Z</time>
      </trkpt>
      <trkpt lat="47.50370666384697" lon="11.11362274736166">
        <ele>813.059999999999945</ele>
        <time>2015-02-06T17:00:11Z</time>
      </trkpt>
      <trkpt lat="47.503664838150144" lon="11.113525601103902">
        <ele>812.700000000000045</ele>
        <time>2015-02-06T17:00:12Z</time>
      </trkpt>
      <trkpt lat="47.503479178994894" lon="11.113157719373703">
        <ele>809.289999999999964</ele>
        <time>2015-02-06T17:00:16Z</time>
      </trkpt>
      <trkpt lat="47.50324884429574" lon="11.112772654742002">
        <ele>805.379999999999995</ele>
        <time>2015-02-06T17:00:21Z</time>
      </trkpt>
      <trkpt lat="47.503231661394238" lon="11.112726638093591">
        <ele>804.590000000000032</ele>
        <time>2015-02-06T17:00:22Z</time>
      </trkpt>
      <trkpt lat="47.503231326118112" lon="11.112711802124977">
        <ele>804.649999999999977</ele>
        <time>2015-02-06T17:00:23Z</time>
      </trkpt>
      <trkpt lat="47.503242054954171" lon="11.112685482949018">
        <ele>804.559999999999945</ele>
        <time>2015-02-06T17:00:28Z</time>
      </trkpt>
      <trkpt lat="47.503247251734138" lon="11.112666623666883">
        <ele>804.169999999999959</ele>
        <time>2015-02-06T17:00:29Z</time>
      </trkpt>
      <trkpt lat="47.503249095752835" lon="11.112579200416803">
        <ele>803.600000000000023</ele>
        <time>2015-02-06T17:00:32Z</time>
      </trkpt>
      <trkpt lat="47.503262422978878" lon="11.112494459375739">
        <ele>803.440000000000055</ele>
        <time>2015-02-06T17:00:34Z</time>
      </trkpt>
      <trkpt lat="47.50328304246068" lon="11.112335370853543">
        <ele>799.950000000000045</ele>
        <time>2015-02-06T17:00:37Z</time>
      </trkpt>
      <trkpt lat="47.503315480425954" lon="11.112109394744039">
        <ele>793.990000000000009</ele>
        <time>2015-02-06T17:00:41Z</time>
      </trkpt>
      <trkpt lat="47.503324532881379" lon="11.112042758613825">
        <ele>792.870000000000005</ele>
        <time>2015-02-06T17:00:42Z</time>
      </trkpt>
      <trkpt lat="47.503352276980877" lon="11.111914599314332">
        <ele>790.549999999999955</ele>
        <time>2015-02-06T17:00:44Z</time>
      </trkpt>
      <trkpt lat="47.503387313336134" lon="11.111724665388465">
        <ele>787.870000000000005</ele>
        <time>2015-02-06T17:00:47Z</time>
      </trkpt>
      <trkpt lat="47.503412794321775" lon="11.111540179699659">
        <ele>784.210000000000036</ele>
        <time>2015-02-06T17:00:50Z</time>
      </trkpt>
      <trkpt lat="47.503408100455999" lon="11.111343540251255">
        <ele>780.860000000000014</ele>
        <time>2015-02-06T17:00:53Z</time>
      </trkpt>
      <trkpt lat="47.503398712724447" lon="11.111115552484989">
        <ele>777.539999999999964</ele>
        <time>2015-02-06T17:00:56Z</time>
      </trkpt>
      <trkpt lat="47.503405921161175" lon="11.110945818945765">
        <ele>773.970000000000027</ele>
        <time>2015-02-06T17:00:58Z</time>
      </trkpt>
      <trkpt lat="47.503423355519772" lon="11.110673490911722">
        <ele>770</ele>
        <time>2015-02-06T17:01:01Z</time>
      </trkpt>
      <trkpt lat="47.503516813740134" lon="11.110208630561829">
        <ele>769.379999999999995</ele>
        <time>2015-02-06T17:01:12Z</time>
      </trkpt>
      <trkpt lat="47.503488902002573" lon="11.110158422961831">
        <ele>768.850000000000023</ele>
        <time>2015-02-06T17:01:22Z</time>
      </trkpt>
      <trkpt lat="47.503482699394226" lon="11.110161859542131">
        <ele>769.409999999999968</ele>
        <time>2015-02-06T17:01:36Z</time>
      </trkpt>
      <trkpt lat="47.503471886739135" lon="11.110160266980529">
        <ele>769.279999999999973</ele>
        <time>2015-02-06T17:01:51Z</time>
      </trkpt>
      <trkpt lat="47.503470461815596" lon="11.110120033845305">
        <ele>769.5</ele>
        <time>2015-02-06T17:02:03Z</time>
      </trkpt>
      <trkpt lat="47.503468366339803" lon="11.110102934762836">
        <ele>769.370000000000005</ele>
        <time>2015-02-06T17:02:04Z</time>
      </trkpt>
      <trkpt lat="47.503470042720437" lon="11.110034706071019">
        <ele>769.519999999999982</ele>
        <time>2015-02-06T17:02:19Z</time>
      </trkpt>
      <trkpt lat="47.503474904224277" lon="11.110024228692055">
        <ele>769.669999999999959</ele>
        <time>2015-02-06T17:02:35Z</time>
      </trkpt>
      <trkpt lat="47.503470545634627" lon="11.110023055225611">
        <ele>769.980000000000018</ele>
        <time>2015-02-06T17:02:55Z</time>
      </trkpt>
      <trkpt lat="47.503472892567515" lon="11.110036885365844">
        <ele>770.669999999999959</ele>
        <time>2015-02-06T17:03:11Z</time>
      </trkpt>
      <trkpt lat="47.503466187044978" lon="11.110025318339467">
        <ele>769.67999999999995</ele>
        <time>2015-02-06T17:03:23Z</time>
      </trkpt>
      <trkpt lat="47.503452189266682" lon="11.109916688874364">
        <ele>768.799999999999955</ele>
        <time>2015-02-06T17:03:30Z</time>
      </trkpt>
      <trkpt lat="47.503428049385548" lon="11.109874276444316">
        <ele>767.879999999999995</ele>
        <time>2015-02-06T17:03:40Z</time>
      </trkpt>
      <trkpt lat="47.50341740436852" lon="11.109863212332129">
        <ele>767.740000000000009</ele>
        <time>2015-02-06T17:03:43Z</time>
      </trkpt>
      <trkpt lat="47.50340374186635" lon="11.109828175976872">
        <ele>767.519999999999982</ele>
        <time>2015-02-06T17:03:45Z</time>
      </trkpt>
      <trkpt lat="47.503443975001574" lon="11.109706638380885">
        <ele>765.299999999999955</ele>
        <time>2015-02-06T17:03:49Z</time>
      </trkpt>
      <trkpt lat="47.503476915881038" lon="11.109636062756181">
        <ele>763.539999999999964</ele>
        <time>2015-02-06T17:03:51Z</time>
      </trkpt>
      <trkpt lat="47.503495523706079" lon="11.109608737751842">
        <ele>762.879999999999995</ele>
        <time>2015-02-06T17:03:52Z</time>
      </trkpt>
      <trkpt lat="47.503537684679031" lon="11.10954855568707">
        <ele>761.610000000000014</ele>
        <time>2015-02-06T17:03:54Z</time>
      </trkpt>
      <trkpt lat="47.503585712984204" lon="11.109373793005943">
        <ele>757.539999999999964</ele>
        <time>2015-02-06T17:03:57Z</time>
      </trkpt>
      <trkpt lat="47.503609098494053" lon="11.109301876276731">
        <ele>754.279999999999973</ele>
        <time>2015-02-06T17:03:59Z</time>
      </trkpt>
      <trkpt lat="47.503608344122767" lon="11.109299026429653">
        <ele>754.850000000000023</ele>
        <time>2015-02-06T17:04:00Z</time>
      </trkpt>
      <trkpt lat="47.503610858693719" lon="11.109302043914795">
        <ele>756</ele>
        <time>2015-02-06T17:04:12Z</time>
      </trkpt>
      <trkpt lat="47.503606919199228" lon="11.109296511858702">
        <ele>755.490000000000009</ele>
        <time>2015-02-06T17:04:23Z</time>
      </trkpt>
      <trkpt lat="47.50360113568604" lon="11.10922459512949">
        <ele>754.200000000000045</ele>
        <time>2015-02-06T17:04:26Z</time>
      </trkpt>
      <trkpt lat="47.503569284453988" lon="11.109108002856374">
        <ele>751.490000000000009</ele>
        <time>2015-02-06T17:04:30Z</time>
      </trkpt>
      <trkpt lat="47.503585712984204" lon="11.109057292342186">
        <ele>751.139999999999986</ele>
        <time>2015-02-06T17:04:44Z</time>
      </trkpt>
      <trkpt lat="47.503585880622268" lon="11.109017562121153">
        <ele>749.889999999999986</ele>
        <time>2015-02-06T17:04:46Z</time>
      </trkpt>
      <trkpt lat="47.503605494275689" lon="11.108870375901461">
        <ele>745.32000000000005</ele>
        <time>2015-02-06T17:04:51Z</time>
      </trkpt>
      <trkpt lat="47.50361337326467" lon="11.108865514397621">
        <ele>742.019999999999982</ele>
        <time>2015-02-06T17:04:52Z</time>
      </trkpt>
      <trkpt lat="47.503616642206907" lon="11.108858725056052">
        <ele>745.019999999999982</ele>
        <time>2015-02-06T17:04:57Z</time>
      </trkpt>
      <trkpt lat="47.503626029938459" lon="11.108845481649041">
        <ele>745.059999999999945</ele>
        <time>2015-02-06T17:05:07Z</time>
      </trkpt>
      <trkpt lat="47.50363533385098" lon="11.108735762536526">
        <ele>744.129999999999995</ele>
        <time>2015-02-06T17:05:10Z</time>
      </trkpt>
      <trkpt lat="47.503700545057654" lon="11.108527136966586">
        <ele>741.240000000000009</ele>
        <time>2015-02-06T17:05:20Z</time>
      </trkpt>
      <trkpt lat="47.503705071285367" lon="11.108508445322514">
        <ele>741.460000000000036</ele>
        <time>2015-02-06T17:05:36Z</time>
      </trkpt>
      <trkpt lat="47.503702975809574" lon="11.108500817790627">
        <ele>741.830000000000041</ele>
        <time>2015-02-06T17:05:50Z</time>
      </trkpt>
      <trkpt lat="47.50371353700757" lon="11.108469637110829">
        <ele>742.350000000000023</ele>
        <time>2015-02-06T17:05:57Z</time>
      </trkpt>
      <trkpt lat="47.503742706030607" lon="11.10840417444706">
        <ele>741.980000000000018</ele>
        <time>2015-02-06T17:06:00Z</time>
      </trkpt>
      <trkpt lat="47.503754608333111" lon="11.108331084251404">
        <ele>740.639999999999986</ele>
        <time>2015-02-06T17:06:03Z</time>
      </trkpt>
      <trkpt lat="47.503747651353478" lon="11.10830501653254">
        <ele>740.019999999999982</ele>
        <time>2015-02-06T17:06:05Z</time>
      </trkpt>
      <trkpt lat="47.503734156489372" lon="11.10827911645174">
        <ele>740.100000000000023</ele>
        <time>2015-02-06T17:06:16Z</time>
      </trkpt>
      <trkpt lat="47.503726109862328" lon="11.108246259391308">
        <ele>739.870000000000005</ele>
        <time>2015-02-06T17:06:24Z</time>
      </trkpt>
      <trkpt lat="47.503722673282027" lon="11.108202422037721">
        <ele>739.840000000000032</ele>
        <time>2015-02-06T17:06:26Z</time>
      </trkpt>
      <trkpt lat="47.503679841756821" lon="11.108103515580297">
        <ele>736.850000000000023</ele>
        <time>2015-02-06T17:06:31Z</time>
      </trkpt>
      <trkpt lat="47.503670202568173" lon="11.108085745945573">
        <ele>737.17999999999995</ele>
        <time>2015-02-06T17:06:40Z</time>
      </trkpt>
      <trkpt lat="47.503682859241962" lon="11.108047440648079">
        <ele>734.730000000000018</ele>
        <time>2015-02-06T17:06:42Z</time>
      </trkpt>
      <trkpt lat="47.503712950274348" lon="11.107935626059771">
        <ele>731.639999999999986</ele>
        <time>2015-02-06T17:06:45Z</time>
      </trkpt>
      <trkpt lat="47.503747316077352" lon="11.107801934704185">
        <ele>727.960000000000036</ele>
        <time>2015-02-06T17:06:52Z</time>
      </trkpt>
      <trkpt lat="47.503747567534447" lon="11.107794977724552">
        <ele>727.730000000000018</ele>
        <time>2015-02-06T17:06:58Z</time>
      </trkpt>
      <trkpt lat="47.503744130954146" lon="11.107729766517878">
        <ele>726.539999999999964</ele>
        <time>2015-02-06T17:07:01Z</time>
      </trkpt>
      <trkpt lat="47.5037482380867" lon="11.107553662732244">
        <ele>720.960000000000036</ele>
        <time>2015-02-06T17:07:04Z</time>
      </trkpt>
      <trkpt lat="47.503759218379855" lon="11.107502700760961">
        <ele>718.009999999999991</ele>
        <time>2015-02-06T17:07:05Z</time>
      </trkpt>
      <trkpt lat="47.503850497305393" lon="11.107392478734255">
        <ele>715.710000000000036</ele>
        <time>2015-02-06T17:07:08Z</time>
      </trkpt>
      <trkpt lat="47.503864578902721" lon="11.107375714927912">
        <ele>715.120000000000005</ele>
        <time>2015-02-06T17:07:09Z</time>
      </trkpt>
      <trkpt lat="47.503878744319081" lon="11.107380157336593">
        <ele>714.889999999999986</ele>
        <time>2015-02-06T17:07:10Z</time>
      </trkpt>
      <trkpt lat="47.503892742097378" lon="11.107383510097861">
        <ele>714.379999999999995</ele>
        <time>2015-02-06T17:07:11Z</time>
      </trkpt>
      <trkpt lat="47.503904141485691" lon="11.107382588088512">
        <ele>714.740000000000009</ele>
        <time>2015-02-06T17:07:12Z</time>
      </trkpt>
      <trkpt lat="47.503915037959814" lon="11.107376804575324">
        <ele>713.82000000000005</ele>
        <time>2015-02-06T17:07:13Z</time>
      </trkpt>
      <trkpt lat="47.503974130377173" lon="11.107369428500533">
        <ele>715.090000000000032</ele>
        <time>2015-02-06T17:07:20Z</time>
      </trkpt>
      <trkpt lat="47.504006568342447" lon="11.107421312481165">
        <ele>715.940000000000055</ele>
        <time>2015-02-06T17:07:34Z</time>
      </trkpt>
      <trkpt lat="47.504013273864985" lon="11.107431203126907">
        <ele>716.279999999999973</ele>
        <time>2015-02-06T17:07:49Z</time>
      </trkpt>
      <trkpt lat="47.504028864204884" lon="11.107433801516891">
        <ele>714.529999999999973</ele>
        <time>2015-02-06T17:08:07Z</time>
      </trkpt>
      <trkpt lat="47.504029115661979" lon="11.10743572935462">
        <ele>715.059999999999945</ele>
        <time>2015-02-06T17:08:08Z</time>
      </trkpt>
      <trkpt lat="47.504010843113065" lon="11.107448637485504">
        <ele>715.039999999999964</ele>
        <time>2015-02-06T17:08:30Z</time>
      </trkpt>
      <trkpt lat="47.504032468423247" lon="11.107439752668142">
        <ele>715.919999999999959</ele>
        <time>2015-02-06T17:08:58Z</time>
      </trkpt>
      <trkpt lat="47.504018638283014" lon="11.107446709647775">
        <ele>717.090000000000032</ele>
        <time>2015-02-06T17:09:21Z</time>
      </trkpt>
      <trkpt lat="47.504010843113065" lon="11.107450146228075">
        <ele>716.580000000000041</ele>
        <time>2015-02-06T17:09:30Z</time>
      </trkpt>
    </trkseg>
  </trk>

</gpx>
